     2.11           OBSERVATION DATA    G (GPS)             RINEX VERSION / TYPE
teqc 2010Oct21 OPUS Account 20111025 18:42:50UTC            PGM / RUN BY / DATE
AUSTIN CE                                                   MARKER NAME
3006                                                        MARKER NUMBER
CSMIDDLETON NGS                                             OBSERVER / AGENCY
0220390632 TRIMBLE R7 2.28                                  REC # / TYPE / VERS
60183425 TRM41249.00 NONE                                   ANT # / TYPE
  -742248.0887 -5462591.7612  3197287.8818                  APPROX POSITION XYZ
        2.0010        0.0000        0.0000                  ANTENNA: DELTA H/E/N
     1     1                                                WAVELENGTH FACT L1/2
     5    L1    L2    C1    P1    P2                        # / TYPES OF OBSERV
    15                                                      LEAP SECONDS
  2011     7    26     0     0   30.0000000     GPS         TIME OF FIRST OBS
                                                            END OF HEADER
 11  7 26  0  0 30.0000000  0  8G28G10G17G09G04G20G27G02
  -7188468.15658  -5592865.85955  21705869.2584                   21705867.2424
  -3285607.42657  -2546049.94154  23903170.3054                   23903173.3014
 -14228947.59058 -11076232.96956  21301248.6174                   21301246.5474
  -8058496.63757  -6271607.95355  22295304.6094                   22295304.8164
 -10481739.06258  -8266440.89856  20008650.0864                   20008648.7464
     50589.10557    -63184.43053  24134019.1724                   24134018.0784
 -11372315.55958  -8853983.21155  22481718.0314                   22481717.3714
  -9488489.05557  -7376691.69155  22628623.4454                   22628621.8284
 11  7 26  0  1  0.0000000  0  8G28G10G17G09G04G20G27G02
  -7125995.78548  -5544186.14145  21717757.5314                   21717755.4304
  -3362560.86546  -2606013.42244  23888526.5784                   23888530.1844
 -14181935.60948 -11039600.27746  21310194.8284                   21310193.0634
  -8078594.22747  -6287268.41045  22291480.5164                   22291480.4964
 -10488988.96548  -8272090.16446  20007270.6484                   20007268.9534
     93965.61346    -29384.53543  24142274.4774                   24142274.0394
 -11373019.31647  -8854531.57445  22481583.9304                   22481583.3484
  -9555745.50847  -7429099.18745  22615825.1724                   22615823.2074
 11  7 26  0  1 30.0000000  0  8G28G10G17G09G04G20G27G02
  -7063130.64848  -5495200.38746  21729720.2974                   21729718.2894
  -3439498.82046  -2665964.77744  23873885.0784                   23873888.4614
 -14134795.48848 -11002867.72346  21319164.9064                   21319162.9024
  -8098045.75447  -6302425.43445  22287778.9064                   22287778.0234
 -10495640.42248  -8277273.08647  20006004.7584                   20006003.2704
    137869.85946      4826.52043  24150628.6254                   24150629.4574
 -11373207.85548  -8854678.50045  22481547.9774                   22481546.8404
  -9622712.05147  -7481280.77745  22603081.8444                   22603080.1024
 11  7 26  0  2  0.0000000  0  8G28G10G17G09G04G20G27G02
  -6999890.74648  -5445922.58645  21741754.0944                   21741753.1054
  -3516436.85946  -2725916.21144  23859244.7664                   23859246.9414
 -14087546.47348 -10966050.31246  21328156.2974                   21328154.1524
  -8116869.38747  -6317093.17645  22284197.1414                   22284196.4304
 -10501712.35948  -8282004.45346  20004849.3364                   20004847.7464
    182282.32846     39433.63743  24159080.8984                   24159080.4344
 -11372900.08647  -8854438.66845  22481606.3674                   22481605.4844
  -9689406.37147  -7533250.27345  22590390.4144                   22590388.5944
 11  7 26  0  2 30.0000000  0  8G28G10G17G09G04G20G27G02
  -6936273.31648  -5396350.63345  21753860.7424                   21753858.8554
  -3593368.65246  -2785862.78943  23844604.4534                   23844607.2704
 -14040185.27048 -10929145.47746  21337168.5314                   21337166.4304
  -8135060.16447  -6331267.76245  22280735.5944                   22280735.1764
 -10507200.82848  -8286281.16046  20003804.9454                   20003803.2544
    227206.43846     74439.40243  24167627.8674                   24167628.7814
 -11372091.75447  -8853808.78945  22481759.7504                   22481759.3634
  -9755822.94547  -7585003.34045  22577751.3524                   22577749.4344
 11  7 26  0  3  0.0000000  0  8G28G10G17G09G04G20G27G02
  -6872274.50848  -5346481.48046  21766038.9224                   21766037.6414
  -3670287.46946  -2845799.28543  23829966.6414                   23829969.4384
 -13992708.88748 -10892150.88346  21346203.0084                   21346200.6994
  -8152613.59047  -6344945.73845  22277395.5084                   22277395.0904
 -10512102.23048  -8290100.42646  20002871.9304                   20002870.5944
    272645.44547    109846.49643  24176277.1644                   24176274.3524
 -11370779.37947  -8852786.16045  22482009.7894                   22482010.2304
  -9821957.03947  -7636536.27345  22565166.2814                   22565164.7544
 11  7 26  0  3 30.0000000  0  8G28G10G17G09G04G20G27G02
  -6807896.24248  -5296316.64545  21778290.1484                   21778287.5864
  -3747192.67646  -2905725.14843  23815331.7344                   23815334.1884
 -13945120.38748 -10855068.93746  21355258.6954                   21355257.4614
  -8169531.28547  -6358128.33245  22274175.5004                   22274174.7664
 -10516419.23848  -8293464.32046  20002050.7034                   20002049.3954
    318596.70346    145652.71543  24185020.7194                   24185019.0594
 -11368965.18047  -8851372.52045  22482355.2034                   22482354.6334
  -9887809.61347  -7687849.84845  22552634.6334                   22552633.1484
 11  7 26  0  4  0.0000000  0  8G28G10G17G09G04G20G27G02
  -6743135.74648  -5245853.97345  21790613.4534                   21790611.4494
  -3824078.91046  -2965636.22744  23800700.8984                   23800702.7704
 -13897417.53548 -10817897.88346  21364336.3984                   21364334.6954
  -8185809.71947  -6370812.80545  22271077.9774                   22271077.2424
 -10520149.16448  -8296370.75046  20001340.6484                   20001339.4694
    365062.33246    181859.66443  24193862.7274                   24193861.9344
 -11366646.55947  -8849565.78945  22482795.9454                   22482796.0044
  -9953376.48047  -7738940.78545  22540157.5164                   22540156.2464
 11  7 26  0  4 30.0000000  0  8G28G10G17G09G04G20G27G02
  -6677987.58648  -5195089.22745  21803010.5314                   21803009.3204
  -3900937.57046  -3025525.84044  23786075.1564                   23786077.0744
 -13849595.39848 -10780633.87146  21373436.5704                   21373434.5514
  -8201442.44147  -6382994.13745  22268103.0394                   22268102.8484
 -10523286.50048  -8298815.41846  20000743.7894                   20000742.3714
    412047.11746    218471.20743  24202804.2114                   24202802.2274
 -11363817.78548  -8847361.56245  22483334.5944                   22483334.3444
 -10018650.88347  -7789803.84045  22527736.2424                   22527734.5234
 11  7 26  0  5  0.0000000  0  8G28G10G17G09G04G20G27G02
  -6612457.19948  -5144026.62945  21815480.6644                   21815479.3714
  -3977771.68446  -3085396.34043  23771453.9454                   23771455.9534
 -13801660.65247 -10743282.11746  21382558.1884                   21382556.5314
  -8216434.52047  -6394676.26245  22265250.4384                   22265249.9654
 -10525837.36748  -8300803.09847  20000258.4384                   20000257.2114
    459544.59446    255482.21943  24211842.3054                   24211840.9924
 -11360484.75448  -8844764.41845  22483969.2034                   22483968.5124
 -10083637.58648  -7840442.71145  22515369.8984                   22515367.8634
 11  7 26  0  5 30.0000000  0  8G28G10G17G09G04G20G27G02
  -6546545.43748  -5092666.85545  21828023.3134                   21828021.8524
  -4054578.93746  -3145245.89543  23756837.7814                   23756839.7074
 -13753613.94148 -10705843.12146  21391701.1094                   21391699.8524
  -8230785.77047  -6405859.03545  22262519.8444                   22262519.7234
 -10527802.42648  -8302334.28946  19999884.3364                   19999882.8954
    507553.94946    292892.09843  24220977.0554                   24220977.4804
 -11356647.94547  -8841774.69945  22484698.8204                   22484698.9614
 -10148335.63748  -7890856.64845  22503058.4224                   22503057.0824
 11  7 26  0  6  0.0000000  0  8G28G10G17G09G04G20G27G02
  -6480246.96548  -5041005.73845  21840639.5554                   21840637.8244
  -4131350.89146  -3205068.02044  23742227.6564                   23742230.3554
 -13705451.11748 -10668313.66046  21400866.4224                   21400865.2194
  -8244490.24647  -6416537.79745  22259911.7034                   22259910.9264
 -10529176.53948  -8303405.00846  19999622.6254                   19999621.6334
    556079.66046    330704.32043  24230211.2424                   24230210.9144
 -11352302.23847  -8838388.44545  22485525.9924                   22485526.1884
 -10212738.31248  -7941040.44545  22490803.1024                   22490800.5744
 11  7 26  0  6 30.0000000  0  8G28G10G17G09G04G20G27G02
  -6413567.82048  -4989048.01245  21853328.2814                   21853326.7304
  -4208090.68047  -3264865.03143  23727625.8204                   23727627.7424
 -13657178.62947 -10630698.74646  21410052.0474                   21410050.3094
  -8257553.27047  -6426716.74645  22257425.9384                   22257424.8284
 -10529966.30548  -8304020.36746  19999472.5784                   19999470.8054
    605115.42646    368914.05943  24239542.6954                   24239541.6604
 -11347453.52047  -8834610.25845  22486449.0784                   22486448.3754
 -10276850.61748  -7990997.98045  22478602.2114                   22478600.2234
 11  7 26  0  7  0.0000000  0  8G28G10G17G09G04G20G27G02
  -6346502.03548  -4936788.99245  21866090.5554                   21866089.0124
  -4284789.59447  -3324630.23044  23713030.1484                   23713031.5634
 -13608790.96547 -10592994.07846  21419260.0234                   21419257.8594
  -8269968.13347  -6436390.60545  22255062.6954                   22255062.4884
 -10530165.70348  -8304175.73046  19999434.5084                   19999432.8244
    654666.18446    407525.05143  24248971.7344                   24248971.8324
 -11342096.08648  -8830435.64545  22487468.7664                   22487467.9774
 -10340665.25848  -8040723.58245  22466458.8284                   22466456.9064
 11  7 26  0  7 30.0000000  0  8G28G10G17G09G04G20G27G02
  -6279052.16848  -4884230.68045  21878925.4384                   21878924.8634
  -4361446.90247  -3384362.96544  23698442.1564                   23698444.3364
 -13560290.91448 -10555201.85246  21428489.2034                   21428487.7194
  -8281736.66047  -6445560.85945  22252823.5164                   22252822.9734
 -10529777.42648  -8303873.14846  19999508.2584                   19999507.2114
    704728.89147    446534.92643  24258499.6564                   24258497.7974
 -11336232.33647  -8825866.52345  22488583.5944                   22488583.5664
 -10404183.21948  -8090218.00045  22454372.3364                   22454369.5784
 11  7 26  0  8  0.0000000  0  8G28G10G17G09G04G20G27G02
  -6211212.12547  -4831368.35245  21891835.3754                   21891833.4844
  -4438053.70747  -3444056.38344  23683863.8054                   23683866.0944
 -13511673.09448 -10517317.84046  21437740.8524                   21437739.1724
  -8292852.09847  -6454222.22345  22250708.5944                   22250707.5314
 -10528795.70348  -8303108.14847  19999694.8754                   19999693.5514
    755309.38346    485948.32043  24268125.2814                   24268122.7154
 -11329856.33247  -8820898.24245  22489797.5394                   22489797.1174
 -10467397.27748  -8139475.61345  22442342.5474                   22442340.1524
 11  7 26  0  8 30.0000000  0  8G28G10G17G09G04G20G27G02
  -6142987.35248  -4778206.23045  21904818.2274                   21904816.7504
  -4514612.17646  -3503712.13344  23669295.4614                   23669297.7384
 -13462943.15248 -10479346.48046  21447014.0084                   21447011.9924
  -8303319.11747  -6462378.33645  22248716.3364                   22248716.2274
 -10527226.14148  -8301885.09446  19999994.0474                   19999992.5124
    806401.39145    525760.27043  24277845.1804                   24277844.5664
 -11322973.38747  -8815534.93045  22491107.4614                   22491106.9064
 -10530311.30547  -8188499.43045  22430369.3054                   22430367.8324
 11  7 26  0  9  0.0000000  0  8G28G10G17G09G04G20G27G02
  -6074379.18747  -4724745.36345  21917873.9694                   21917872.7774
  -4591120.64547  -3563328.91843  23654736.5084                   23654738.0394
 -13414103.18048 -10441289.37946  21456307.7424                   21456306.8834
  -8313138.71547  -6470029.94945  22246847.9144                   22246846.6954
 -10525070.48848  -8300205.34846  20000403.9844                   20000402.9264
    858003.05546    565969.29343  24287666.0314                   24287664.6484
 -11315585.00847  -8809777.75445  22492513.1644                   22492512.4844
 -10592925.56647  -8237289.68445  22418454.5314                   22418452.5744
 11  7 26  0  9 30.0000000  0  8G28G10G17G09G04G20G27G02
  -6005380.78947  -4670980.41845  21931003.1484                   21931002.5744
  -4667569.45347  -3622899.24243  23640188.4924                   23640190.4104
 -13365146.73848 -10403141.50446  21465623.9774                   21465622.6054
  -8322303.26647  -6477171.14545  22245104.1884                   22245103.3984
 -10522322.16448  -8298063.77746  20000927.0314                   20000925.8714
    910120.34846    606580.10943  24297584.4694                   24297583.0664
 -11307684.46547  -8803621.52745  22494016.0474                   22494015.8554
 -10655231.85248  -8285839.94945  22406598.4224                   22406596.3284
 11  7 26  0 10  0.0000000  0  8G28G10G17G09G04G20G27G02
  -5936000.88747  -4616918.19945  21944206.5394                   21944205.2544
  -4743963.86347  -3682427.19144  23625650.9614                   23625653.1954
 -13316082.91048 -10364909.97746  21474960.9844                   21474958.4574
  -8330820.89148  -6483808.26245  22243483.7974                   22243482.5514
 -10518990.25048  -8295467.45346  20001561.2114                   20001559.6844
    962744.01246    647585.59843  24307597.7424                   24307597.3014
 -11299280.68747  -8797073.15245  22495616.6564                   22495615.5984
 -10717237.59048  -8334156.02345  22394798.6484                   22394796.8984
 11  7 26  0 10 30.0000000  0  8G28G10G17G09G04G20G27G02
  -5866239.09448  -4562558.43445  21957481.8834                   21957480.3794
  -4820300.74647  -3741910.28143  23611125.0704                   23611126.5124
 -13266911.59848 -10326594.68046  21484317.2274                   21484315.6094
  -8338690.77747  -6489940.61745  22241985.2894                   22241984.9964
 -10515074.70348  -8292416.35947  20002306.5004                   20002305.1524
   1015873.52046    688985.25043  24317709.7664                   24317706.7234
 -11290373.31647  -8790132.35945  22497310.6644                   22497310.6254
 -10778940.97348  -8382236.50045  22383057.0234                   22383055.0824
 11  7 26  0 11  0.0000000  0  8G28G10G17G09G04G20G27G02
  -5796095.61747  -4507901.23045  21970829.4454                   21970828.1484
  -4896576.85946  -3801346.00843  23596609.1724                   23596611.5514
 -13217633.43048 -10288196.14546  21493695.2814                   21493693.1414
  -8345912.40247  -6495567.83645  22240611.5554                   22240611.1994
 -10510575.79348  -8288910.71147  20003162.4844                   20003161.1214
   1069508.53545    730778.69542  24327913.8204                   24327913.2584
 -11280962.18047  -8782799.02345  22499102.2894                   22499101.7034
 -10840340.70348  -8430080.36345  22371373.3914                   22371370.9844
 11  7 26  0 11 30.0000000  0  8G28G10G17G09G04G20G27G02
  -5725569.65647  -4452945.99245  21984250.2894                   21984249.5904
  -4972788.30146  -3860731.32844  23582106.5864                   23582109.3674
 -13168247.87948 -10249713.89546  21503092.7114                   21503091.1484
  -8352484.48047  -6500688.93045  22239360.5004                   22239360.3134
 -10505493.29348  -8284950.30547  20004129.5784                   20004128.1484
   1123648.56645    772965.77043  24338215.8754                   24338216.4264
 -11271046.93447  -8775072.87545  22500988.8594                   22500987.9844
 -10901434.93748  -8477686.17645  22359747.1094                   22359744.3324
 11  7 26  0 12  0.0000000  0  8G28G10G17G09G04G20G27G02
  -5654666.70348  -4397696.99245  21997743.0704                   21997741.6684
  -5048937.19146  -3920067.94144  23567615.1564                   23567617.7074
 -13118760.85248 -10211152.61346  21512509.9694                   21512508.1684
  -8358411.67247  -6505307.54345  22238232.3364                   22238232.4804
 -10499832.60548  -8280539.37147  20005206.5864                   20005204.7974
   1178288.07846    815541.98043  24348614.2504                   24348613.7544
 -11260633.09047  -8766958.20345  22502970.0944                   22502969.9924
 -10962227.45748  -8525056.87945  22348178.5944                   22348176.1054
 11  7 26  0 12 30.0000000  0  8G28G10G17G09G04G20G27G02
  -5583379.43448  -4342148.53145  22011308.3594                   22011306.6914
  -5125013.22746  -3979347.78144  23553138.6954                   23553141.0084
 -13069165.07848 -10172506.57846  21521947.6024                   21521945.5164
  -8363686.44947  -6509417.79745  22237228.8444                   22237228.2464
 -10493587.10548  -8275672.74246  20006394.7034                   20006393.6844
   1233433.76246    858512.55143  24359108.4454                   24359108.0394
 -11249713.61747  -8758449.53545  22505048.5704                   22505048.2074
 -11022709.81648  -8572185.90245  22336668.8594                   22336666.7424
 11  7 26  0 13  0.0000000  0  8G28G10G17G09G04G20G27G02
  -5511709.32048  -4286301.75445  22024946.8444                   22024945.4964
  -5201014.35246  -4038569.23844  23538675.9774                   23538678.3134
 -13019462.51648 -10133777.32846  21531405.8054                   21531403.6094
  -8368309.61747  -6513020.29345  22236349.3054                   22236348.6804
 -10486758.41448  -8270351.67647  20007694.4454                   20007693.0784
   1289082.95746    901875.53143  24369697.3444                   24369697.5274
 -11238290.10247  -8749548.09045  22507222.3054                   22507221.7584
 -11082882.10948  -8619073.31645  22325218.4924                   22325216.0704
 11  7 26  0 13 30.0000000  0  8G28G10G17G09G04G20G27G02
  -5439661.11347  -4230160.35945  22038657.0474                   22038655.5204
  -5276942.60946  -4097733.91444  23524226.9774                   23524228.6644
 -12969658.09448 -10094968.73446  21540883.2584                   21540881.9694
  -8372285.39847  -6516118.34445  22235593.2504                   22235592.0434
 -10479351.71148  -8264580.19946  20009103.8754                   20009102.9614
   1345230.14846    945626.60943  24380381.8284                   24380381.9494
 -11226367.52047  -8740257.76245  22509490.7894                   22509489.8364
 -11142747.91848  -8665721.92646  22313826.8524                   22313824.1884
 11  7 26  0 14  0.0000000  0  8G28G10G17G09G04G20G27G02
  -5367231.11348  -4173721.46545  22052440.2274                   22052438.5234
  -5352790.71546  -4156836.18044  23509793.5004                   23509795.2274
 -12919748.14148 -10056077.88346  21550380.7664                   21550379.0204
  -8375609.86347  -6518708.87545  22234960.1094                   22234959.9144
 -10471363.69148  -8258355.75446  20010624.0864                   20010622.4574
   1401879.00446    989768.51243  24391163.2034                   24391161.6914
 -11213942.22747  -8730575.70745  22511855.3204                   22511855.1994
 -11202302.03148  -8712127.64846  22302494.0944                   22302492.1564
 11  7 26  0 14 30.0000000  0  8G28G10G17G09G04G20G27G02
  -5294422.84047  -4116987.80945  22066295.4614                   22066293.4844
  -5428558.86346  -4215876.11744  23495376.3834                   23495376.9144
 -12869736.51248 -10017107.80146  21559897.7504                   21559896.0124
  -8378285.58247  -6520793.86745  22234451.4844                   22234450.7974
 -10462798.18048  -8251681.31246  20012253.9144                   20012252.7234
   1459024.71946   1034297.63743  24402037.3364                   24402036.0864
 -11201017.82847  -8720504.73845  22514314.3984                   22514314.1884
 -11261546.37948  -8758291.99645  22291220.1954                   22291218.0744
 11  7 26  0 15  0.0000000  0  8G28G10G17G09G04G20G27G02
  -5221232.10247  -4059956.11745  22080223.0394                   22080221.3554
  -5504239.71947  -4274848.05144  23480974.3284                   23480974.6604
 -12819619.15648  -9978055.35246  21569434.4064                   21569433.4804
  -8380308.45747  -6522370.15245  22234066.1094                   22234065.6994
 -10453651.60248  -8244554.08247  20013994.3834                   20013993.3014
   1516670.92646   1079216.73843  24413006.3754                   24413005.9654
 -11187590.33647  -8710041.74645  22516869.5864                   22516869.5274
 -11320475.48848  -8804210.71545  22280006.2344                   22280003.8364
 11  7 26  0 15 30.0000000  0  8G28G10G17G09G04G20G27G02
  -5147657.07448  -4002624.99645  22094224.0164                   22094222.4104
  -5579827.77746  -4333747.65244  23466589.5554                   23466591.0784
 -12769394.09048  -9938918.94946  21578992.5084                   21578990.5474
  -8381675.66447  -6523435.53145  22233806.2274                   22233805.5864
 -10443921.84848  -8236972.42647  20015846.0944                   20015844.5904
   1574819.27046   1124527.15243  24424072.9224                   24424071.5274
 -11173657.56247  -8699185.03145  22519521.0634                   22519521.4224
 -11379085.69148  -8849880.93045  22268852.6564                   22268850.1374
 11  7 26  0 16  0.0000000  0  8G28G10G17G09G04G20G27G02
  -5073694.79747  -3944992.10545  22108298.1174                   22108297.1134
  -5655317.14847  -4392570.37144  23452224.5634                   23452225.8714
 -12719058.87948  -9899696.73046  21588571.1254                   21588569.3284
  -8382384.03147  -6523987.51645  22233671.2344                   22233670.3134
 -10433606.75448  -8228934.68046  20017808.8754                   20017807.4414
   1633471.33646   1170229.98443  24435231.9924                   24435232.7074
 -11159217.32847  -8687932.87145  22522268.8984                   22522268.6844
 -11437373.19948  -8895299.69945  22257760.7194                   22257758.6884
 11  7 26  0 16 30.0000000  0  8G28G10G17G09G04G20G27G02
  -4999356.05947  -3887065.88345  22122445.0084                   22122443.0554
  -5730715.11347  -4451321.89144  23437876.8754                   23437877.9694
 -12668624.34848  -9860397.12546  21598168.3674                   21598166.7034
  -8382443.95747  -6524034.24245  22233659.7344                   22233658.7464
 -10422717.72748  -8220449.69947  20019881.3204                   20019879.8834
   1692615.71946   1216316.50843  24446488.7814                   24446488.0514
 -11144280.80947  -8676294.02745  22525111.1564                   22525111.1484
 -11495347.56648  -8940474.44545  22246729.0004                   22246726.3984
 11  7 26  0 17  0.0000000  0  8G28G10G17G09G04G20G27G02
  -4924634.80947  -3828841.57045  22136663.3984                   22136662.0314
  -5806012.15247  -4509994.77044  23423548.0084                   23423549.7974
 -12618084.71148  -9821015.63346  21607786.2034                   21607783.7774
  -8381848.94547  -6523570.61345  22233772.3674                   22233772.7974
 -10411248.90248  -8211512.94947  20022063.5864                   20022062.4344
   1752257.64846   1262790.69543  24457837.4304                   24457836.3284
 -11128841.80547  -8664263.63345  22528049.4844                   22528049.1724
 -11553001.16048  -8985399.23846  22235757.7194                   22235755.5124
 11  7 26  0 17 30.0000000  0  8G28G10G17G09G04G20G27G02
  -4849535.08647  -3770322.35545  22150954.5864                   22150953.2584
  -5881208.83246  -4568589.43044  23409237.5704                   23409240.4574
 -12567443.64548  -9781555.08246  21617422.4534                   21617420.5944
  -8380602.56647  -6522599.39145  22234009.3674                   22234009.7304
 -10399204.62548  -8202127.77747  20024355.3754                   20024353.9304
   1812392.79746   1309649.27743  24469280.5864                   24469279.5664
 -11112904.14847  -8651844.66845  22531082.6644                   22531081.9454
 -11610336.41848  -9030075.99645  22224847.2424                   22224845.0784
 11  7 26  0 18  0.0000000  0  8G28G10G17G09G04G20G27G02
  -4774054.34047  -3711506.24645  22165317.9384                   22165317.2074
  -5956299.18746  -4627101.28144  23394948.7114                   23394949.8324
 -12516698.67248  -9742013.56246  21627078.6094                   21627077.2344
  -8378702.27347  -6521118.62945  22234371.0394                   22234371.7544
 -10386582.82448  -8192292.59847  20026757.2114                   20026755.8554
   1873022.94946   1356893.57443  24480819.4694                   24480817.4804
 -11096465.62547  -8639035.40245  22534210.6334                   22534210.0274
 -11667349.38748  -9074501.60946  22213998.0084                   22213995.5204
 11  7 26  0 18 30.0000000  0  8G28G10G17G09G04G20G27G02
  -4698195.19547  -3652395.27045  22179754.0474                   22179752.3204
  -6031282.31246  -4685529.55144  23380680.1174                   23380680.8014
 -12465852.41447  -9702393.12946  21636754.6564                   21636753.0354
  -8376150.23047  -6519130.01645  22234856.7274                   22234857.2624
 -10373386.68048  -8182009.87946  20029268.1174                   20029267.1604
   1934144.59846   1404520.78543  24492449.4844                   24492449.1994
 -11079529.03147  -8625838.06245  22537433.1024                   22537433.1684
 -11724041.51648  -9118677.21545  22203209.3284                   22203206.7854
 11  7 26  0 19  0.0000000  0  8G28G10G17G09G04G20G27G02
  -6197366.50447  -4820580.74245  21894470.9454                   21894470.1724
  -7681568.84446  -5971467.00044  23066641.0704                   23066641.6954
 -13990314.71548 -10890285.85946  21346658.9224                   21346657.3204
  -9948357.45748  -7744226.53945  21935676.5314                   21935675.8204
 -11935027.86348  -9398873.13347  19732097.7194                   19732096.7344
    420347.16046    224938.38743  24204383.3674                   24204382.9144
 -12637505.72347  -9839845.86745  22240960.4144                   22240959.6604
 -13355824.53148 -10390196.37545  21892691.4064                   21892688.5474
 11  7 26  0 19 30.0000000  0  8G28G10G17G09G04G20G27G02
  -6120742.68747  -4760873.92645  21909052.3364                   21909051.5784
  -7756319.59646  -6029714.23543  23052415.8054                   23052416.9384
 -13939258.46548 -10850501.78146  21356374.5084                   21356372.5164
  -9944493.01248  -7741215.25845  21936412.4144                   21936411.3404
 -11920676.64548  -9387690.35947  19734828.7974                   19734827.3054
    482456.71546    273335.39543  24216201.7504                   24216201.2304
 -12619566.23847  -9825867.02745  22244373.1884                   22244373.0704
 -13411862.64848 -10433862.38345  21882027.5394                   21882024.5904
 11  7 26  0 20  0.0000000  0  8G28G10G17G09G04G20G27G02
  -6043744.97747  -4700875.74645  21923704.0474                   21923703.1524
  -7830957.03146  -6087873.12944  23038212.8054                   23038214.1724
 -13888105.38748 -10810642.27046  21366108.6334                   21366106.9344
  -9939980.13747  -7737698.70745  21937270.8674                   21937269.5554
 -11905756.83648  -9376064.53147  19737668.0944                   19737666.6024
    545051.30146    322110.42243  24228113.6174                   24228112.8794
 -12601133.72347  -9811504.03545  22247881.6024                   22247880.9494
 -13467579.94548 -10477278.38346  21871425.0864                   21871422.3164
 11  7 26  0 20 30.0000000  0  9G28G10G17G12G09G04G20G27G02
  -5966370.25047  -4640583.79345  21938427.9924                   21938427.2274
  -7905474.74247  -6145938.74644  23024032.6484                   23024033.5594
 -13836852.48848 -10770704.95746  21375861.6884                   21375859.8794
  -1689817.90656  -1308224.64153  24509119.6024                   24509118.5634
  -9934815.62947  -7733674.37145  21938252.2504                   21938252.5164
 -11890265.80548  -9363993.61346  19740615.9384                   19740614.7034
    608132.94946    371264.88343  24240116.8444                   24240117.1214
 -12582205.47347  -9796754.73845  22251483.2034                   22251482.7894
 -13522971.95748 -10520440.91846  21860884.0164                   21860881.8484
 11  7 26  0 21  0.0000000  0  9G28G10G17G12G09G04G20G27G02
  -5888623.02347  -4580001.59045  21953223.0944                   21953222.2934
  -7979873.53147  -6203911.71144  23009875.4924                   23009876.6254
 -13785503.75048 -10730692.96946  21385632.9304                   21385631.8714
  -1768822.92246  -1369786.93043  24494084.7034                   24494084.4264
  -9929003.79347  -7729145.60945  21939357.9064                   21939358.4694
 -11874208.66848  -9351481.55947  19743671.1804                   19743669.8444
    671696.20346    420794.68443  24252212.5704                   24252213.3364
 -12562786.25447  -9781622.88745  22255178.3754                   22255178.3714
 -13578041.80147 -10563352.43045  21850404.4304                   21850402.6054
 11  7 26  0 21 30.0000000  0  9G28G10G17G12G09G04G20G27G02
  -5810511.07447  -4519135.18445  21968087.2274                   21968086.4264
  -8054157.82046  -6261795.45344  22995739.2114                   22995740.2424
 -13734067.26648 -10690612.61346  21395421.1564                   21395419.9224
  -1847851.88746  -1431367.94943  24479046.0864                   24479046.4344
  -9922552.15647  -7724118.31245  21940585.9224                   21940586.3914
 -11857593.68748  -9338534.82046  19746833.0004                   19746832.0314
    735732.39546    470693.02043  24264399.0084                   24264399.0514
 -12542884.19547  -9766114.79745  22258965.8594                   22258965.6914
 -13632795.63747 -10606017.69545  21839985.0864                   21839983.0004
 11  7 26  0 22  0.0000000  0  9G28G10G17G12G09G04G20G27G02
  -5732026.48447  -4457978.42245  21983022.7664                   21983021.3094
  -8128315.98847  -6319580.91044  22981627.6954                   22981628.3444
 -13682534.73048 -10650457.39546  21405227.4924                   21405226.1844
  -1926895.29746  -1492960.24643  24464005.4304                   24464004.6484
  -9915452.41847  -7718586.02345  21941937.7034                   21941936.8794
 -11840413.10248  -9325147.35547  19750102.6884                   19750101.2624
    800249.12146    520965.77343  24276675.8914                   24276675.9184
 -12522491.29347  -9750224.23445  22262846.9614                   22262845.8484
 -13687224.33648 -10648429.61346  21829628.2194                   21829624.9614
 11  7 26  0 22 30.0000000  0  9G28G10G17G12G09G04G20G27G02
  -5653172.58247  -4396533.89545  21998027.9534                   21998026.8674
  -8202347.55547  -6377267.71544  22967539.7504                   22967540.0514
 -13630909.25847 -10610229.77746  21415051.4614                   21415049.9734
  -2005954.22346  -1554564.60543  24448959.9774                   24448960.7424
  -9907707.38747  -7712550.89545  21943411.7974                   21943410.8484
 -11822670.90648  -9311322.28147  19753478.7344                   19753477.3834
    865242.43446    571609.90642  24289045.4694                   24289043.9184
 -12501611.14547  -9733953.98845  22266819.6174                   22266820.0004
 -13741329.55148 -10690589.44946  21819332.5004                   21819329.5984
 11  7 26  0 23  0.0000000  0  9G28G10G17G12G09G04G20G27G02
  -5573943.36747  -4334796.91045  22013104.7504                   22013104.0004
  -8276243.12547  -6434848.54744  22953477.3054                   22953478.7154
 -13579184.86748 -10569925.05946  21424894.7504                   21424892.8674
  -2085020.37546  -1616174.57443  24433914.5634                   24433914.2464
  -9899311.38747  -7706008.53945  21945009.2974                   21945009.0004
 -11804361.82448  -9297055.46947  19756962.9844                   19756961.4494
    930716.84046    622628.84842  24301502.0634                   24301502.7584
 -12480238.40647  -9717299.91445  22270887.2814                   22270886.8954
 -13795104.07848 -10732491.61346  21809099.0314                   21809096.7974
 11  7 26  0 23 30.0000000  0  9G28G10G17G12G09G04G20G27G02
  -5494341.19547  -4272769.32845  22028252.3914                   22028251.8554
  -8350001.49247  -6492322.49244  22939441.4454                   22939443.1884
 -13527363.59048 -10529544.85946  21434755.9774                   21434753.8554
  -2164094.56246  -1677790.72343  24418866.8284                   24418865.6724
  -9890266.32047  -7698960.37945  21946730.5004                   21946729.2584
 -11785488.32848  -9282348.85547  19760554.3984                   19760553.0984
    996669.27046    674020.45342  24314055.2114                   24314052.2424
 -12458375.38747  -9700263.82045  22275047.5084                   22275047.0204
 -13848548.67648 -10774136.70746  21798928.5234                   21798926.1214
 11  7 26  0 24  0.0000000  0  9G28G10G17G12G09G04G20G27G02
  -5414368.99247  -4210453.40645  22043471.1254                   22043469.7934
  -8423621.84446  -6549688.88744  22925432.1724                   22925433.2344
 -13475447.90247 -10489091.09846  21444635.2974                   21444633.2464
  -2243177.44146  -1739413.69943  24403818.4774                   24403816.5164
  -9880575.02347  -7691408.68045  21948574.1334                   21948574.2274
 -11766054.01648  -9267205.23047  19764252.5004                   19764251.1994
   1063096.99246    725782.25042  24326694.4924                   24326694.5084
 -12436025.12147  -9682848.04345  22279300.4924                   22279300.1604
 -13901664.86748 -10815525.90646  21788821.1334                   21788818.8794
 11  7 26  0 24 30.0000000  0  9G28G10G17G12G09G04G20G27G02
  -5334022.48847  -4147845.80545  22058760.5554                   22058760.2974
  -8497096.01647  -6606941.40644  22911450.0164                   22911451.7894
 -13423433.46547 -10448560.36346  21454532.9844                   21454531.7774
  -2322262.84846  -1801038.64543  24388769.3674                   24388767.8364
  -9870233.30947  -7683350.17245  21950541.8754                   21950542.3164
 -11746055.19148  -9251621.73447  19768058.4144                   19768056.9534
   1130002.49246    777916.44943  24339425.9224                   24339425.5164
 -12413184.00847  -9665049.79745  22283647.3204                   22283646.8954
 -13954446.77348 -10856654.60946  21778777.7734                   21778773.8284
 11  7 26  0 25  0.0000000  0  9G28G10G17G12G09G04G20G27G02
  -5253300.96947  -4084946.00045  22074121.3834                   22074120.3204
  -8570419.35247  -6664076.35544  22897497.2274                   22897498.7974
 -13371319.40248 -10407952.00846  21464450.1024                   21464448.6524
  -2401347.50446  -1862663.01643  24373719.8834                   24373719.7074
  -9859240.14547  -7674784.05145  21952633.4454                   21952633.6254
 -11725491.84848  -9235598.34047  19771971.0864                   19771970.1764
   1197386.27346    830423.20742  24352248.4614                   24352247.6134
 -12389851.21547  -9646868.43045  22288087.1724                   22288086.9144
 -14006892.23048 -10897521.14546  21768797.1954                   21768794.3954
 11  7 26  0 25 30.0000000  0  9G28G10G17G12G09G04G20G27G02
  -5172209.81647  -4021758.17645  22089552.5554                   22089551.6294
  -8643593.60947  -6721095.14544  22883572.6954                   22883573.1954
 -13319110.30547 -10367269.62546  21474385.1884                   21474383.7854
  -2480434.46146  -1924289.13743  24358670.4614                   24358670.0634
  -9847600.55147  -7665714.24245  21954849.3204                   21954849.1054
 -11704369.23848  -9219139.15247  19775990.9384                   19775989.3874
   1265241.66046    883297.69142  24365163.3674                   24365159.5274
 -12366032.42247  -9628308.36345  22292619.8674                   22292619.1374
 -14059005.16848 -10938128.58246  21758880.1254                   21758877.8484
 11  7 26  0 26  0.0000000  0  9G28G10G17G12G09G04G20G27G02
  -5090745.67247  -3958279.70345  22105054.8594                   22105053.3874
  -8716612.12947  -6777992.59044  22869677.6564                   22869678.4774
 -13266803.00047 -10326510.69546  21484338.8914                   21484337.4734
  -2559519.14847  -1985913.46143  24343620.5084                   24343619.7304
  -9835311.13347  -7656138.09845  21957187.8834                   21957187.5944
 -11682685.34048  -9202242.59847  19780116.8594                   19780115.7384
   1333571.50446    936541.55942  24378167.5314                   24378162.6094
 -12341724.70347  -9609367.30545  22297245.0784                   22297244.7304
 -14110780.84848 -10978473.21946  21749027.1954                   21749024.8914
 11  7 26  0 26 30.0000000  0  9G28G10G17G12G09G04G20G27G02
  -5008904.37947  -3894507.35245  22120628.5084                   22120627.7074
  -8789466.84446  -6834762.39844  22855812.9774                   22855814.3054
 -13214392.79347 -10285671.57446  21494311.9454                   21494310.5554
  -2638594.96947  -2047530.92643  24328572.6884                   24328571.9144
  -9822367.76247  -7646052.37945  21959651.7814                   21959650.9534
 -11660436.09448  -9184905.51647  19784351.0234                   19784349.7504
   1402379.17645    990157.94142  24391256.4924                   24391256.5474
 -12316924.25447  -9590042.33645  22301964.7344                   22301964.7934
 -14162213.86348 -11018550.87146  21739239.9844                   21739237.7734
 11  7 26  0 27  0.0000000  0  9G28G10G17G12G09G04G20G27G02
  -4926694.20747  -3830447.56245  22136272.9534                   22136271.7664
  -8862161.86747  -6891407.77044  22841979.8674                   22841980.8754
 -13161887.45347 -10244758.31646  21504303.8594                   21504301.6484
  -2717667.72346  -2109145.95743  24313524.6334                   24313525.0594
  -9808778.67647  -7635463.50845  21962237.5634                   21962236.2154
 -11637630.44548  -9167134.86747  19788690.9064                   19788688.9304
   1471655.44545   1044139.51642  24404440.1484                   24404438.9694
 -12291639.61347  -9570340.03945  22306776.5784                   22306775.8754
 -14213310.73048 -11058366.55146  21729516.6334                   21729514.0474
 11  7 26  0 27 30.0000000  0  9G28G10G17G12G09G04G20G27G02
  -4844119.66847  -3766103.85545  22151986.2114                   22151985.2274
  -8934698.37547  -6947929.60544  22828176.6094                   22828177.5434
 -13109291.37148 -10203774.35246  21514312.4774                   21514310.3444
  -2796739.78146  -2170760.46943  24298478.9224                   24298477.8244
  -9794548.52347  -7624375.05545  21964944.2344                   21964944.0984
 -11614273.49248  -9148934.62147  19793135.5474                   19793134.0164
   1541394.95345   1098481.95742  24417710.8444                   24417710.8754
 -12265875.55947  -9550264.18745  22311679.2504                   22311678.7664
 -14264074.33248 -11097922.54746  21719856.5314                   21719853.7734
 11  7 26  0 28  0.0000000  0  9G28G10G17G12G09G04G20G27G02
  -4761176.32447  -3701472.75445  22167769.3134                   22167768.7934
  -9007067.69547  -7004321.19944  22814405.5554                   22814406.0664
 -13056599.55148 -10162715.79346  21524338.8674                   21524337.8674
  -2875804.31946  -2232369.09943  24283432.2344                   24283431.5394
  -9779672.74247  -7612783.52345  21967774.6724                   21967775.4224
 -11590361.21148  -9130301.66846  19797685.6254                   19797684.3364
   1611601.43045   1153188.29742  24431066.0704                   24431070.4574
 -12239627.71947  -9529811.33645  22316673.7814                   22316673.4024
 -14314498.80148 -11137214.29346  21710260.9614                   21710258.3714
 11  7 26  0 28 30.0000000  0  9G28G10G17G12G09G04G20G27G02
  -4677860.11747  -3636551.09445  22183624.4774                   22183623.1294
  -9079262.35147  -7060576.65744  22800666.6254                   22800667.1914
 -13003807.45748 -10121579.10946  21534385.1884                   21534383.6844
  -2954855.22346  -2293967.05943  24268390.5944                   24268388.3284
  -9764147.07847  -7600685.60945  21970729.9384                   21970730.0204
 -11565890.21148  -9111233.33247  19802342.3444                   19802341.4774
   1682277.98045   1208260.85243  24444520.0944                   24444519.5354
 -12212892.59848  -9508978.80545  22321761.9694                   22321760.9924
 -14364578.91848 -11176237.70346  21700731.1414                   21700728.3484
 11  7 26  0 29  0.0000000  0  9G28G10G17G12G09G04G20G27G02
  -4594174.59447  -3571341.67245  22199549.8834                   22199547.7384
  -9151281.81246  -7116695.60944  22786961.6724                   22786962.4734
 -12950918.14547 -10080366.68046  21544449.8134                   21544448.1454
  -3033893.50446  -2355555.27343  24253349.0164                   24253348.0164
  -9747974.91847  -7588083.94945  21973807.5554                   21973806.9924
 -11540864.72348  -9091732.94547  19807104.7424                   19807103.1374
   1753420.25846   1263696.36343  24458059.8054                   24458057.6644
 -12185673.99647  -9487769.52745  22326940.9064                   22326940.8984
 -14414316.52048 -11214994.22346  21691266.5004                   21691264.0704
 11  7 26  0 29 30.0000000  0  9G28G10G17G12G09G04G20G27G02
  -4510122.47747  -3505846.58645  22215543.8364                   22215542.9064
  -9223124.73847  -7172676.99244  22773290.8364                   22773290.6884
 -12897933.89547 -10039080.26246  21554532.6954                   21554530.7384
  -3112919.61746  -2417133.96143  24238311.8914                   24238310.5164
  -9731159.08247  -7574980.71945  21977007.4774                   21977007.3754
 -11515287.87148  -9071802.91447  19811971.7034                   19811970.7074
   1825024.99246   1319492.24643  24471685.6954                   24471683.9614
 -12157974.91047  -9466185.83645  22332211.9304                   22332211.4884
 -14463712.68748 -11253484.68746  21681866.4924                   21681864.4614
 11  7 26  0 30  0.0000000  0  9G28G10G17G12G09G04G20G27G02
  -4425704.55947  -3440066.45345  22231608.0234                   22231607.4144
  -9294788.15247  -7228518.52044  22759654.2344                   22759653.6604
 -12844854.87548  -9997720.00446  21564633.1724                   21564631.1214
  -3191931.90246  -2478701.92244  24223275.4774                   24223275.3324
  -9713700.27047  -7561376.44945  21980329.5784                   21980328.8674
 -11489161.00848  -9051444.29347  19816943.4144                   19816941.8014
   1897090.38746   1375647.11343  24485398.9064                   24485397.8054
 -12129796.38747  -9444228.55945  22337574.5474                   22337573.6484
 -14512766.84447 -11291708.64846  21672531.9144                   21672529.2704
 11  7 26  0 30 30.0000000  0  9G28G10G17G12G09G04G20G27G02
  -4340918.83647  -3373999.71145  22247742.3834                   22247741.0314
  -9366266.34447  -7284215.69544  22746052.3284                   22746051.7194
 -12791678.85547  -9956284.13746  21574752.1254                   21574750.5164
  -3270926.41047  -2540256.02344  24208245.0864                   24208243.9024
  -9695596.68447  -7547269.75045  21983774.6804                   21983774.0084
 -11462482.86348  -9030656.10946  19822020.1094                   19822018.9774
   1969617.14846   1432161.45743  24499199.7274                   24499199.1174
 -12101137.09847  -9421896.66845  22343027.7734                   22343026.9574
 -14561475.80148 -11329663.61746  21663262.8914                   21663260.2854
 11  7 26  0 31  0.0000000  0  9G28G10G17G12G09G04G20G27G02
  -4255761.11747  -3307643.09845  22263947.1334                   22263946.0274
  -9437551.27347  -7339762.28944  22732486.7114                   22732487.1804
 -12738400.70348  -9914768.72746  21584890.5004                   21584889.3754
  -3349896.43746  -2601791.07444  24193216.0164                   24193216.6604
  -9676844.29347  -7532657.51245  21987343.9924                   21987342.9304
 -11435249.77348  -9009435.50046  19827202.2814                   19827200.7304
   2042609.12946   1489038.31343  24513090.2894                   24513088.9804
 -12071993.05947  -9399187.02345  22348574.0004                   22348573.4614
 -14609833.42647 -11367344.82846  21654060.2974                   21654057.4144
 11  7 26  0 31 30.0000000  0  8G28G10G17G12G09G04G27G02
  -4170238.28547  -3241001.98045  22280221.7034                   22280221.0354
  -9508645.50847  -7395160.30145  22718957.7424                   22718958.5704
 -12685026.82848  -9873178.72746  21595047.5474                   21595046.4964
  -3428846.11346  -2663310.27744  24178192.6724                   24178192.3164
  -9657449.77347  -7517544.91845  21991033.9224                   21991033.3134
 -11407469.21948  -8987788.29747  19832488.8364                   19832487.6054
 -12042371.26247  -9376105.12545  22354210.2974                   22354210.0274
 -14657845.14548 -11404756.49246  21644924.5944                   21644921.2504
 11  7 26  0 32  0.0000000  0  8G28G10G17G12G09G04G27G02
  -4084354.37547  -3174079.51645  22296565.2034                   22296564.2114
  -9579549.46947  -7450410.06244  22705464.5944                   22705464.6214
 -12631560.83248  -9831516.93446  21605221.4144                   21605220.3364
  -3507777.25847  -2724815.07444  24163172.3054                   24163171.1024
  -9637417.58247  -7501935.43045  21994845.9454                   21994845.9964
 -11379145.95748  -8965718.20347  19837878.6024                   19837877.1024
 -12012276.33647  -9352654.54745  22359937.4064                   22359937.2194
 -14705513.84047 -11441900.85546  21635852.8054                   21635850.5704
 11  7 26  0 32 30.0000000  0  8G28G10G17G12G09G04G27G02
  -3998107.76647  -3106874.40645  22312977.2734                   22312976.5704
  -9650257.38347  -7505507.04744  22692009.1414                   22692010.1254
 -12578000.52048  -9789781.64546  21615413.6174                   21615412.2774
  -3586685.70347  -2786302.19544  24148156.5394                   24148155.0084
  -9616746.03947  -7485827.71945  21998778.7584                   21998779.2664
 -11350278.95348  -8943224.41447  19843371.7664                   19843370.5354
 -11981706.84047  -9328834.16845  22365754.5704                   22365754.6604
 -14752836.12948 -11478775.30146  21626847.7274                   21626845.5784
 11  7 26  0 33  0.0000000  0  8G28G10G17G12G09G04G27G02
  -3911494.91047  -3039383.92645  22329459.2814                   22329458.9454
  -9720762.09047  -7560445.70344  22678592.8054                   22678593.3524
 -12524341.48448  -9747969.43746  21625624.6954                   21625623.3054
  -3665565.51246  -2847766.99644  24133145.5394                   24133144.7344
  -9595431.72347  -7469219.19545  22002835.4534                   22002835.4774
 -11320865.37548  -8920304.72347  19848968.8444                   19848967.6134
 -11950659.75447  -9304641.62145  22371662.3444                   22371662.3634
 -14799806.90648 -11515375.85946  21617909.4534                   21617907.0984
 11  7 26  0 33 30.0000000  0  8G28G10G17G12G09G04G27G02
  -3824512.56247  -2971605.52045  22346011.3444                   22346010.5004
  -9791056.03547  -7615220.11344  22665216.6884                   22665216.9304
 -12470579.97748  -9706077.37146  21635855.2974                   21635854.2234
  -3744410.39146  -2909204.55944  24118142.3134                   24118141.7424
  -9573471.37947  -7452107.25045  22007014.2974                   22007014.9844
 -11290902.29348  -8896956.84847  19854670.9064                   19854669.2154
 -11919132.00047  -9280074.55545  22377661.9064                   22377661.5354
 -14846421.45348 -11551698.81246  21609039.2814                   21609036.6994
 11  7 26  0 34  0.0000000  0  8G28G10G17G12G09G04G27G02
  -3737163.91847  -2903541.69145  22362633.5474                   22362632.0784
  -9861138.15247  -7669829.46945  22651880.0164                   22651881.0514
 -12416718.52048  -9664107.43746  21646104.4774                   21646103.1764
  -3823221.49647  -2970615.82444  24103145.3914                   24103144.4924
  -9550868.53147  -7434494.63745  22011315.8674                   22011315.7664
 -11260393.64548  -8873183.85547  19860476.1564                   19860475.0744
 -11887127.30947  -9255135.82445  22383752.0554                   22383752.1454
 -14892681.48848 -11587745.53146  21600236.2424                   21600233.5904
 11  7 26  0 34 30.0000000  0  8G28G10G17G12G09G04G27G02
  -3649448.78547  -2835192.26645  22379324.9064                   22379324.0594
  -9931004.28947  -7724270.52045  22638585.0474                   22638586.1294
 -12362755.53148  -9622058.39546  21656373.9924                   21656371.6604
  -3901995.68747  -3031998.29744  24088155.3284                   24088153.9964
  -9527622.80947  -7416381.09845  22015739.5004                   22015739.3674
 -11229339.60948  -8848985.87947  19866385.8524                   19866384.4264
 -11854645.52047  -9229825.34845  22389933.7894                   22389933.4024
 -14938584.84448 -11623514.31246  21591500.7814                   21591497.9534
 11  7 26  0 35  0.0000000  0  8G28G10G17G12G09G04G27G02
  -3561374.35247  -2766562.88745  22396085.3594                   22396084.1484
 -10000657.52047  -7778545.68045  22625330.5784                   22625331.4774
 -12308698.24248  -9579935.84046  21666660.7504                   21666659.9264
  -3980737.74247  -3093355.70744  24073170.6414                   24073169.3164
  -9503741.95347  -7397772.62945  22020283.2424                   22020283.6334
 -11197748.38748  -8824369.32447  19872397.0084                   19872396.0434
 -11821694.43447  -9204149.18045  22396204.0004                   22396203.3634
 -14984137.79747 -11659010.03946  21582832.7034                   21582829.4384
 11  7 26  0 35 30.0000000  0  8G28G10G17G12G09G04G27G02
  -3472934.03547  -2697648.41045  22412914.7504                   22412913.7424
 -10070087.37947  -7832646.77744  22612118.0314                   22612119.0704
 -12254539.37148  -9537734.13746  21676966.8284                   21676965.4384
  -4059438.49247  -3154680.88744  24058194.7814                   24058193.4384
  -9479219.64847  -7378664.33245  22024949.6644                   22024949.9884
 -11165614.22748  -8799329.70346  19878512.2734                   19878510.8674
 -11788267.88747  -9178102.55545  22402564.5004                   22402564.9024
 -15029332.05148 -11694226.28146  21574232.7114                   21574229.7034
 11  7 26  0 36  0.0000000  0  8G28G10G17G12G09G04G27G02
  -3384136.06647  -2628455.23045  22429812.2504                   22429812.0234
 -10139298.27347  -7886577.27045  22598947.5004                   22598948.8554
 -12200286.31248  -9495459.05146  21687290.3524                   21687288.1414
  -4138103.87547  -3215978.51644  24043224.8914                   24043223.7934
  -9454064.30147  -7359062.73845  22029736.4924                   22029736.8404
 -11132945.88748  -8773873.82447  19884728.6024                   19884727.5634
 -11754374.80947  -9151692.39145  22409014.6644                   22409014.3204
 -15074174.79348 -11729168.60546  21565698.4694                   21565695.8014
 11  7 26  0 36 30.0000000  0  8G28G10G17G12G09G04G27G02
  -3294974.06647  -2558978.39144  22446779.6884                   22446778.9494
 -10208279.51247  -7940328.76645  22585821.1884                   22585821.6374
 -12145931.55948  -9453104.70746  21697633.7274                   21697632.6954
  -4216724.27347  -3277241.05144  24028264.4304                   24028262.8484
  -9428269.18747  -7338962.64144  22034645.4064                   22034645.0084
 -11099737.32848  -8747997.01247  19891048.3134                   19891046.9534
 -11720008.77747  -9124913.69145  22415554.5394                   22415553.8054
 -15118657.41848 -11763830.32046  21557233.9144                   21557231.0634
 11  7 26  0 37  0.0000000  0  8G28G10G17G12G09G04G27G02
  -3205449.36347  -2489218.94144  22463816.0164                   22463814.9184
 -10277027.80147  -7993898.77745  22572738.5474                   22572739.1484
 -12091475.41848  -9410671.37546  21707996.3284                   21707995.4614
  -4295297.98847  -3338467.21144  24013311.8594                   24013311.1254
  -9401835.81647  -7318365.19144  22039675.7344                   22039674.9694
 -11065990.26248  -8721700.58647  19897470.0164                   19897468.4344
 -11685171.43747  -9097767.73444  22422183.4774                   22422182.7584
 -15162779.30547 -11798210.95346  21548838.0554                   21548835.3914
 11  7 26  0 37 30.0000000  0  8G28G10G17G12G09G04G27G02
  -3115572.75447  -2419185.27345  22480918.6804                   22480917.6294
 -10345550.33247  -8047292.88745  22559698.9924                   22559700.2624
 -12036928.24248  -9368167.11346  21718376.6254                   21718374.8404
  -4373833.71547  -3399663.75444  23998366.8914                   23998366.4574
  -9374775.98447  -7297279.60244  22044825.1174                   22044825.0204
 -11031716.85248  -8694994.01647  19903991.7894                   19903990.8914
 -11649874.41047  -9070263.59445  22428900.8204                   22428900.5784
 -15206550.57447 -11832318.36346  21540508.5784                   21540505.3674
 11  7 26  0 38  0.0000000  0  8G28G10G17G12G09G04G27G02
  -3025344.10247  -2348877.30544  22498088.2894                   22498087.9844
 -10413842.34047  -8100507.34445  22546704.0164                   22546704.1604
 -11982289.02048  -9325591.10546  21728774.0784                   21728772.6604
  -4452328.42647  -3460828.35944  23983429.9534                   23983428.9414
  -9347089.42647  -7275705.63744  22050093.1414                   22050093.3364
 -10996917.22748  -8667877.42246  19910614.4224                   19910612.7734
 -11614117.63747  -9042401.20345  22435704.7424                   22435704.7424
 -15249968.96948 -11866150.82046  21532246.2114                   21532242.8634
 11  7 26  0 38 30.0000000  0  8G28G10G17G12G09G04G27G02
  -2934755.76647  -2278289.05145  22515327.1884                   22515325.8674
 -10481892.86347  -8153533.64545  22533754.0004                   22533754.4924
 -11927549.22748  -9282936.72746  21739190.9924                   21739190.1604
  -4530771.79747  -3521952.99644  23968502.7734                   23968502.1454
  -9318768.85247  -7253637.66044  22055482.4614                   22055481.7934
 -10961584.53948  -8640345.44947  19917337.7974                   19917336.5744
 -11577894.13747  -9014175.09845  22442597.7664                   22442597.9964
 -15293026.11348 -11899701.75446  21524051.9774                   21524049.4654
 11  7 26  0 39  0.0000000  0  8G28G10G17G12G09G04G27G02
  -2843816.75847  -2207427.54745  22532632.3754                   22532631.1174
 -10549706.45747  -8206375.35245  22520849.6954                   22520849.3364
 -11872717.17248  -9240210.45746  21749624.8984                   21749623.8324
  -4609170.30147  -3583042.64544  23953583.4614                   23953583.4104
  -9289823.71947  -7231083.01645  22060990.1024                   22060989.7034
 -10925728.77748  -8612405.88747  19924160.7894                   19924159.1454
 -11541213.39847  -8985592.71945  22449577.8754                   22449578.0864
 -15335729.37148 -11932976.95346  21515926.1954                   21515923.2624
 11  7 26  0 39 30.0000000  0  8G28G10G17G12G09G04G27G02
  -2752524.72347  -2136290.97745  22550004.7114                   22550004.0904
 -10617276.27747  -8259027.07445  22507991.5944                   22507991.5124
 -11817789.14148  -9197409.39846  21760077.6564                   21760075.7344
  -4687518.19547  -3644092.87944  23938674.0084                   23938673.6454
  -9260251.71947  -7208039.88344  22066617.7584                   22066617.0984
 -10889347.54348  -8584056.86346  19931083.7344                   19931082.6564
 -11504073.14147  -8956652.27745  22456645.6564                   22456645.2894
 -15378073.97748 -11965972.70346  21507868.4614                   21507865.3444
 11  7 26  0 40  0.0000000  0  8G28G10G17G12G09G04G27G02
  -2660884.69547  -2064883.23045  22567443.0084                   22567442.5784
 -10684603.44947  -8311489.71145  22495179.5864                   22495179.7504
 -11762769.33647  -9154536.81646  21770546.8984                   21770545.3014
  -4765817.56247  -3705105.31244  23923774.9774                   23923773.7584
  -9230058.22747  -7184512.48445  22072363.6884                   22072363.0084
 -10852446.74248  -8555302.99647  19938105.9844                   19938104.4804
 -11466478.93747  -8927358.10245  22463799.6094                   22463799.1804
 -15420064.05948 -11998692.16846  21499878.0634                   21499874.7504
 11  7 26  0 40 30.0000000  0  8G28G10G17G12G09G04G27G02
  -2568891.06247  -1993199.96544  22584948.9064                   22584948.3914
 -10751677.89547  -8363755.43045  22482415.4924                   22482415.6454
 -11707651.30948  -9111587.66846  21781035.8984                   21781034.2544
  -4844060.47347  -3766073.76644  23908886.1884                   23908885.0314
  -9199238.15647  -7160496.85945  22078229.1174                   22078227.9964
 -10815021.61348  -8526140.55547  19945227.7114                   19945226.2234
 -11428425.70347  -8897706.25845  22471041.0554                   22471041.0004
 -15461692.19548 -12031129.61746  21491956.2814                   21491953.1724
 11  7 26  0 41  0.0000000  0  8G28G10G17G12G09G04G27G02
  -2476539.41847  -1921237.69545  22602522.8054                   22602522.8984
 -10818491.14847  -8415817.62545  22469701.0084                   22469701.4614
 -11652429.69948  -9068557.82046  21791544.0394                   21791542.6214
  -4922239.52347  -3826992.48044  23894008.5944                   23894007.0314
  -9167787.20747  -7135989.62545  22084213.4924                   22084213.1414
 -10777068.37548  -8496566.60547  19952450.0314                   19952448.4924
 -11389909.18047  -8867693.39845  22478370.3834                   22478369.8014
 -15502952.37948 -12063280.34046  21484104.4144                   21484101.5634
 11  7 26  0 41 30.0000000  0  8G28G10G17G12G09G04G27G02
  -2383837.73447  -1849002.69945  22620162.9144                   22620163.5944
 -10885046.94547  -8467679.19945  22457035.7194                   22457036.1994
 -11597111.34848  -9025452.62146  21802070.8674                   21802069.4694
  -5000359.62947  -3887865.23044  23879142.4844                   23879142.0634
  -9135713.90247  -7110997.44545  22090317.4614                   22090316.3244
 -10738595.66448  -8466587.87147  19959771.0864                   19959769.5044
 -11350938.18047  -8837326.41445  22485786.0944                   22485785.7304
 -15543851.36348 -12095149.63746  21476321.7664                   21476319.1374
 11  7 26  0 42  0.0000000  0  8G28G10G17G12G09G04G27G02
  -2290790.20747  -1776498.22345  22637869.6884                   22637869.4344
 -10951345.26647  -8519340.15645  22444419.7894                   22444419.7934
 -11541699.47348  -8982274.52046  21812615.4924                   21812613.7934
  -5078422.28547  -3948693.19144  23864288.1884                   23864287.0394
  -9103022.75047  -7085523.80945  22096537.7114                   22096537.6884
 -10699608.39148  -8436208.18747  19967190.2344                   19967188.6684
 -11311517.34847  -8806608.89845  22493287.7814                   22493287.5784
 -15584392.01648 -12126739.70346  21468607.2584                   21468604.3284
 11  7 26  0 42 30.0000000  0  8G28G10G17G12G09G04G27G02
  -2197395.76247  -1703723.39844  22655642.3134                   22655642.2894
 -11017380.30947  -8570795.93745  22431853.5234                   22431854.3364
 -11486191.57447  -8939021.59046  21823177.4384                   21823177.0044
  -5156422.93747  -4009472.85544  23849445.1254                   23849443.8324
  -9069712.84447  -7059568.01245  22102876.0084                   22102876.3714
 -10660105.91848  -8405427.04347  19974707.4064                   19974705.8404
 -11271645.91847  -8775540.27045  22500875.3914                   22500874.5044
 -15624570.66848 -12158047.71146  21460961.4534                   21460957.9024
 11  7 26  0 43  0.0000000  0  8G28G10G17G12G09G04G27G02
  -2103654.84847  -1630678.62944  22673480.7584                   22673480.3284
 -11083148.81247  -8622044.03145  22419338.1884                   22419338.6684
 -11430587.71548  -8895693.91046  21833759.1334                   21833758.0044
  -5234359.44146  -4070202.51644  23834614.6724                   23834613.0944
  -9035785.55547  -7033131.15245  22109332.0634                   22109331.9884
 -10620089.79348  -8374245.64547  19982321.6884                   19982320.8134
 -11231324.91447  -8744121.32445  22508548.1724                   22508548.6134
 -15664387.09448 -12189073.45746  21453384.4844                   21453380.9534
 11  7 26  0 43 30.0000000  0  8G28G10G17G12G09G04G27G02
  -2009568.60547  -1557364.74244  22691385.2974                   22691384.4144
 -11148647.27347  -8673081.69145  22406873.9064                   22406874.4654
 -11374887.52047  -8852291.16446  21844358.7034                   21844357.1644
  -5312229.75046  -4130880.59844  23819795.5784                   23819794.3364
  -9001242.02747  -7006214.12545  22115905.5084                   22115905.2774
 -10579561.54748  -8342665.19547  19990034.3134                   19990032.7774
 -11190555.72747  -8712353.15645  22516306.3054                   22516305.9454
 -15703840.75448 -12219816.52746  21445876.6484                   21445873.5784
 11  7 26  0 44  0.0000000  0  8G28G10G17G12G09G04G27G02
  -1915143.59447  -1483786.91044  22709353.6564                   22709353.3954
 -11213878.00847  -8723910.71145  22394460.6254                   22394461.4494
 -11319096.77347  -8808817.82846  21854975.2894                   21854973.0084
  -5390037.47747  -4191509.90644  23804988.9844                   23804987.9224
  -8966089.42247  -6978822.48845  22122595.4144                   22122595.0164
 -10538528.69548  -8310691.55147  19997842.6804                   19997841.5164
 -11149345.64547  -8680241.42645  22524148.3834                   22524147.6414
 -15742936.58248 -12250280.77746  21438437.3284                   21438434.0554
 11  7 26  0 44 30.0000000  0  8G28G10G17G12G09G04G27G02
  -1820378.09447  -1409943.73844  22727386.6884                   22727386.9844
 -11278835.34047  -8774526.71145  22382100.2814                   22382100.2624
 -11263212.60247  -8765271.71546  21865609.7114                   21865607.8164
  -5467778.12147  -4252086.94144  23790195.5004                   23790194.4144
  -8930326.65247  -6950955.39844  22129400.8984                   22129399.8054
 -10496990.20748  -8278323.91046  20005747.2034                   20005745.5664
 -11107693.48047  -8647785.23045  22532073.9304                   22532074.2194
 -15781671.57848 -12280463.85946  21431065.7814                   21431062.9304
 11  7 26  0 45  0.0000000  0  8G28G10G17G12G09G04G27G02
  -1725272.45747  -1335835.53544  22745484.9924                   22745485.0084
 -11343515.14847  -8824926.46945  22369791.7584                   22369792.1484
 -11207233.83647  -8721651.91046  21876262.1174                   21876260.0634
  -5545448.60247  -4312609.32844  23775414.9224                   23775414.7114
  -8893954.35547  -6922613.35944  22136322.7034                   22136321.8754
 -10454946.79748  -8245562.81647  20013747.6094                   20013745.9654
 -11065599.67647  -8614984.87145  22540084.4384                   22540084.4184
 -15820043.99247 -12310364.42646  21423763.9694                   21423760.6294
 11  7 26  0 45 30.0000000  0  8G28G10G17G12G09G04G27G02
  -1629829.62547  -1261464.57844  22763647.2344                   22763646.5084
 -11407915.83247  -8875108.70345  22357537.2734                   22357536.7304
 -11151162.14547  -8677959.69946  21886932.1724                   21886930.3484
  -5623048.67247  -4373076.82844  23760648.3204                   23760648.2584
  -8856975.81247  -6893798.94944  22143359.7814                   22143358.7464
 -10412402.18748  -8212411.19147  20021843.3834                   20021842.3954
 -11023067.62947  -8581843.03545  22548178.4064                   22548178.0274
 -15858055.21147 -12339983.52746  21416530.6174                   21416527.3324
 11  7 26  0 46  0.0000000  0  8G28G10G17G12G09G04G27G02
  -1534046.73447  -1186828.65244  22781874.1644                   22781874.2544
 -11472030.49647  -8925068.07845  22345335.8444                   22345336.2504
 -11094993.75848  -8634192.11346  21897621.0474                   21897618.6844
  -5700572.54747  -4433485.02044  23745896.9064                   23745894.1644
  -8819388.90647  -6864510.46944  22150511.2664                   22150510.6954
 -10369354.14548  -8178867.26247  20030035.1484                   20030034.0784
 -10980095.16847  -8548358.00845  22556355.3284                   22556355.1414
 -15895701.05947 -12369317.92246  21409366.7424                   21409363.6884
 11  7 26  0 46 30.0000000  0  8G28G10G17G12G09G04G27G02
  -1437926.07047  -1111929.51645  22800165.0634                   22800165.0274
 -11535857.05947  -8974802.98045  22333190.4844                   22333190.5084
 -11038729.85548  -8590350.12146  21908326.8134                   21908325.5634
  -5778019.48447  -4493833.26644  23731158.7894                   23731155.6844
  -8781196.29347  -6834750.00444  22157778.8364                   22157778.3754
 -10325805.98848  -8144933.64547  20038322.5474                   20038321.0824
 -10936685.14547  -8514532.05545  22564616.1254                   22564615.4804
 -15932982.28947 -12398368.21546  21402272.4454                   21402269.3984
 11  7 26  0 47  0.0000000  0  8G28G10G17G12G09G04G27G02
  -1341466.64547  -1036766.40644  22818520.8134                   22818520.9534
 -11599390.23847  -9024309.28145  22321100.1414                   22321100.8054
 -10982368.49248  -8546432.20746  21919052.3754                   21919050.8634
  -5855385.34447  -4554118.37144  23716437.2584                   23716433.7074
  -8742397.66447  -6804517.34843  22165163.1094                   22165161.4734
 -10281757.43448  -8110610.09847  20046705.0164                   20046703.3204
 -10892837.25847  -8480364.89145  22572960.0634                   22572960.3364
 -15969896.65247 -12427132.62946  21395247.7894                   21395245.3244
 11  7 26  0 47 30.0000000  0  8G28G10G17G12G09G04G27G02
  -1244664.71947   -961336.43744  22836941.9224                   22836942.0124
 -11662621.57047  -9073580.36745  22309067.6024                   22309067.7274
 -10925904.41848  -8502434.24246  21929797.6414                   21929795.8244
  -5932663.14847  -4614334.78944  23701731.0394                   23701727.9064
  -8702989.96946  -6773810.05144  22172661.4224                   22172661.6254
 -10237205.41848  -8075894.24647  20055182.4224                   20055181.6604
 -10848548.05547  -8445853.83245  22581388.0234                   22581387.9694
 -16006438.48848 -12455606.76646  21388293.8134                   21388291.2664
 11  7 26  0 48  0.0000000  0  8G28G10G17G12G09G04G27G02
  -1147530.80147   -885647.72344  22855425.4064                   22855425.1174
 -11725556.77747  -9122620.71945  22297091.2194                   22297090.8594
 -10869346.33648  -8458363.00446  21940560.5784                   21940558.3164
  -6009859.85947  -4674488.07444  23687040.2734                   23687037.6764
  -8662983.62547  -6742636.29343  22180274.4064                   22180273.3594
 -10192160.55948  -8040794.34847  20063754.3674                   20063753.0554
 -10803827.87147  -8411006.96145  22589898.1484                   22589898.3874
 -16042616.30948 -12483797.25046  21381409.7814                   21381406.5274
 11  7 26  0 48 30.0000000  0  8G28G10G17G12G09G04G27G02
  -1050067.39847   -809702.31244  22873972.2894                   22873971.8834
 -11788194.43747  -9171429.22345  22285171.7344                   22285171.7624
 -10812695.85547  -8414219.81646  21951340.5084                   21951338.4494
  -6086974.97347  -4734577.73844  23672365.5314                   23672364.2934
  -8622381.80146  -6710998.53944  22188000.7274                   22188000.1174
 -10146626.34048  -8005313.12946  20072419.0864                   20072417.7424
 -10758680.45347  -8375827.15645  22598488.9144                   22598489.1844
 -16078431.55548 -12511705.19546  21374594.0944                   21374591.4494
 11  7 26  0 49  0.0000000  0  8G28G10G17G12G09G04G27G02
   -952274.09447   -733499.79344  22892581.5234                   22892582.0204
 -11850529.83247  -9220002.19945  22273309.8204                   22273309.1844
 -10755951.44947  -8370003.42246  21962138.0944                   21962136.9964
  -6164004.87147  -4794601.00044  23657707.1254                   23657706.6214
  -8581184.93747  -6678897.12144  22195841.0554                   22195839.8134
 -10100603.30548  -7969451.01647  20081177.1174                   20081175.5044
 -10713105.95347  -8340314.57844  22607161.3364                   22607161.3634
 -16113882.32048 -12539329.13746  21367848.3524                   21367845.0824
 11  7 26  0 49 30.0000000  0  8G28G10G17G12G09G04G27G02
   -854146.15247   -657036.55944  22911254.6644                   22911255.3984
 -11912553.90647  -9268332.56645  22261506.8594                   22261506.1994
 -10699106.73847  -8325708.88346  21972955.5234                   21972953.3444
  -6240941.39847  -4854551.50844  23643066.7344                   23643066.2544
  -8539388.87946  -6646328.78944  22203793.6174                   22203793.3244
 -10054087.24248  -7933204.71147  20090028.6724                   20090027.0084
 -10667099.99247  -8304465.79345  22615916.5164                   22615916.1644
 -16148962.10548 -12566663.99246  21361172.9844                   21361169.8134
 11  7 26  0 50  0.0000000  0  8G28G10G17G12G09G04G27G02
   -755681.85947   -580311.24244  22929992.2584                   22929991.9414
 -11974260.48047  -9316415.56245  22249764.3134                   22249763.8484
 -10642158.83647  -8281333.92246  21983792.2504                   21983791.1884
  -6317779.75047  -4914425.54744  23628444.5084                   23628444.0234
  -8496992.74246  -6613292.83244  22211861.2114                   22211861.2304
 -10007077.32848  -7896573.58647  20098974.4224                   20098973.0514
 -10620661.58247  -8268280.05945  22624753.1954                   22624753.7384
 -16183667.63748 -12593707.21546  21354568.4924                   21354565.1994
 11  7 26  0 50 30.0000000  0  8G28G10G17G12G09G04G27G02
   -656894.75047   -503334.36744  22948791.6174                   22948790.8634
 -12035658.52347  -9364258.11745  22238080.3364                   22238079.6724
 -10585120.07047  -8236888.16046  21994646.6174                   21994645.8404
  -6394529.77347  -4974230.70744  23613839.3054                   23613839.3554
  -8454010.12946  -6579799.91044  22220040.5784                   22220040.2664
  -9959587.39548  -7859568.42247  20108011.5164                   20108010.3444
 -10573804.48047  -8231768.07045  22633669.8054                   22633670.4024
 -16218010.72348 -12620468.00846  21348033.3134                   21348030.2624
 11  7 26  0 51  0.0000000  0  8G28G10G17G12G09G04G27G02
   -557780.18747   -426102.36344  22967652.0164                   22967651.9884
 -12096739.12547  -9411853.32444  22226457.0784                   22226456.0664
 -10527984.09447  -8192366.65646  22005519.3754                   22005517.8674
  -6471183.91447  -5033961.13344  23599252.7194                   23599252.6024
  -8410437.32446  -6545847.05143  22228332.5634                   22228331.6454
  -9911613.90248  -7822186.45747  20117140.1414                   20117139.1484
 -10526524.64847  -8194926.68045  22642667.2894                   22642667.3874
 -16251985.52048 -12646941.82046  21341567.8204                   21341564.6254
 11  7 26  0 51 30.0000000  0  8G28G10G17G12G09G04G27G02
   -458336.60547   -348613.94144  22986575.9534                   22986575.7934
 -12157496.00047  -9459196.28545  22214895.6254                   22214895.3324
 -10470748.13747  -8147767.25046  22016410.5704                   22016409.2194
  -6547737.20347  -5093612.95744  23584685.1884                   23584684.8914
  -8366273.52046  -6511433.68443  22236736.7504                   22236736.1454
  -9863156.14148  -7784427.12946  20126361.6564                   20126359.8284
 -10478821.15247  -8157755.14845  22651744.9454                   22651745.1914
 -16285588.95348 -12673126.25046  21335172.8984                   21335170.1024
 11  7 26  0 52  0.0000000  0  8G28G10G17G12G09G04G27G02
   -358561.46147   -270867.19544  23005562.2664                   23005562.3204
 -12217922.23047  -9506281.57845  22203396.5784                   22203396.6604
 -10413408.03947  -8103086.68046  22027322.7424                   22027320.3754
  -6624183.30147  -5153181.25844  23570137.3754                   23570137.1094
  -8321516.56646  -6476558.13744  22245253.4844                   22245253.1644
  -9814211.64548  -7746288.53146  20135675.4844                   20135673.9344
 -10430691.58247  -8120251.62945  22660903.5634                   22660903.2034
 -16318816.51648 -12699017.79746  21328850.5004                   21328846.4734
 11  7 26  0 52 30.0000000  0  8G28G10G17G12G09G04G27G02
   -258461.37547   -192867.23044  23024610.4924                   23024610.9614
 -12278020.22347  -9553111.11345  22191960.1724                   22191960.4414
 -10355969.38747  -8058329.31246  22038252.8524                   22038251.4384
  -6700525.70347  -5212668.76645  23555610.5084                   23555609.4064
  -8276174.05546  -6441226.34444  22253882.0164                   22253881.3794
  -9764788.08648  -7707776.63747  20145080.2424                   20145079.0234
 -10382143.64847  -8082422.10545  22670142.3594                   22670142.3754
 -16351673.26248 -12724620.39546  21322597.6484                   21322594.0744
 11  7 26  0 53  0.0000000  0  8G28G10G17G12G09G04G27G02
   -158035.15247   -114613.13344  23043721.3054                   23043721.9104
 -12337784.05147  -9599680.26245  22180587.6884                   22180587.5004
 -10298429.14847  -8013492.78546  22049202.5004                   22049200.8204
  -6776759.63347  -5272071.74245  23541103.9774                   23541103.6764
  -8230245.09047  -6405437.54344  22262622.3284                   22262620.9614
  -9714884.98848  -7668891.08246  20154576.3754                   20154574.9104
 -10333176.33647  -8044265.79745  22679460.8364                   22679460.8484
 -16384156.91048 -12749932.26646  21316416.4534                   21316412.9884
 11  7 26  0 53 30.0000000  0  8G28G10G17G12G09G04G27G02
    -57284.96547    -36106.55144  23062893.6484                   23062893.5204
 -12397211.28147  -9645987.10545  22169279.0474                   22169278.5274
 -10240788.08648  -7968577.70346  22060170.8914                   22060169.6684
  -6852884.06647  -5331389.39845  23526617.8134                   23526617.0434
  -8183732.67647  -6369194.13344  22271473.3444                   22271472.2114
  -9664505.34448  -7629634.18746  20164163.4454                   20164162.3914
 -10283792.41847  -8005784.84445  22688858.1174                   22688857.2584
 -16416267.59448 -12774953.52046  21310305.7504                   21310303.1644
 11  7 26  0 54  0.0000000  0  8G28G10G17G12G09G04G27G02
     43791.63747     42654.34844  23082128.2424                   23082127.8444
 -12456295.46547  -9692026.64845  22158036.0164                   22158035.7154
 -10183042.17647  -7923580.89546  22071159.3364                   22071158.6294
  -6928892.91847  -5390617.02044  23512153.4064                   23512153.1724
  -8136635.18747  -6332494.80944  22280435.4064                   22280434.9414
  -9613647.23448  -7590004.47746  20173841.6884                   20173839.7344
 -10233990.05147  -7966977.83245  22698334.8594                   22698334.5314
 -16448001.46948 -12799681.16046  21304266.7034                   21304264.2934
 11  7 26  0 54 30.0000000  0  8G28G10G17G12G09G04G27G02
    145187.16047    121663.76644  23101422.7344                   23101423.6054
 -12515039.10947  -9737800.81645  22146856.9534                   22146856.8324
 -10125197.39147  -7878507.03946  22082167.9224                   22082165.4734
  -7004790.19547  -5449757.69144  23497710.7814                   23497709.7854
  -8088960.60947  -6295345.79745  22289507.5314                   22289507.1254
  -9562318.68748  -7550008.19547  20183609.0084                   20183607.5824
 -10183777.05947  -7927850.85545  22707890.1024                   22707890.0704
 -16479364.26648 -12824119.66046  21298298.4614                   21298295.5904
 11  7 26  0 55  0.0000000  0  8G28G10G17G12G09G04G27G02
    246897.53547    200918.50844  23120777.4224                   23120777.3714
 -12573442.24247  -9783309.67645  22135743.1024                   22135743.0514
 -10067256.61747  -7833358.39546  22093193.1334                   22093190.8324
  -7080576.94147  -5508812.28144  23483288.9534                   23483287.6294
  -8040714.23047  -6257751.23845  22298688.3204                   22298688.7814
  -9510524.80548  -7509649.31246  20193465.2344                   20193463.8134
 -10133158.57447  -7888407.90245  22717522.5704                   22717522.3014
 -16510359.02748 -12848271.36746  21292400.6724                   21292397.8054
 11  7 26  0 55 30.0000000  0  8G28G10G17G12G09G04G27G02
    348920.66447    280416.98444  23140192.1334                   23140191.8524
 -12631501.97347  -9828550.93745  22124694.8204                   22124694.5784
 -10009220.02047  -7788135.08245  22104236.5554                   22104235.2584
  -7156250.95747  -5567778.98844  23468889.2344                   23468886.8204
  -7991898.30947  -6219712.85245  22307978.0474                   22307977.3284
  -9458268.22748  -7468929.89547  20203409.0944                   20203407.8444
 -10082136.80547  -7848650.69945  22727231.6564                   22727231.1684
 -16540986.18748 -12872136.65646  21286572.1804                   21286569.1174
 11  7 26  0 56  0.0000000  0  8G28G10G17G12G09G04G27G02
    451261.62947    360163.09844  23159667.5704                   23159666.4844
 -12689208.93447  -9873517.31645  22113713.9144                   22113713.3404
  -9951081.08247  -7742832.03546  22115300.1884                   22115299.7704
  -7231803.68447  -5626651.18044  23454511.5314                   23454509.8484
  -7942508.50447  -6181227.32045  22317376.5704                   22317376.0314
  -9405544.29748  -7427846.30146  20213442.0314                   20213440.8634
 -10030707.13347  -7808575.66845  22737018.2894                   22737018.6414
 -16571238.34448 -12895709.72346  21280814.9924                   21280811.7344
 11  7 26  0 56 30.0000000  0  8G28G10G17G12G09G04G27G02
    553915.63347    440153.15244  23179201.5554                   23179200.7194
 -12746563.55547  -9918209.15645  22102799.2194                   22102799.2344
  -9892843.16047  -7697451.83246  22126382.1174                   22126382.0634
  -7307236.79747  -5685430.16044  23440157.8914                   23440155.1524
  -7892550.81647  -6142299.28945  22326883.7034                   22326883.0784
  -9352359.07848  -7386403.27046  20223562.7274                   20223561.1484
  -9978875.27747  -7768187.23445  22746882.1174                   22746881.6994
 -16601119.22747 -12918993.50046  21275129.6174                   21275125.7774
 11  7 26  0 57  0.0000000  0  8G28G10G17G12G09G04G27G02
    656881.30947    520386.08644  23198795.0314                   23198795.7234
 -12803562.29747  -9962623.68745  22091952.1254                   22091952.6524
  -9834505.64147  -7651994.02346  22137484.2424                   22137482.2274
  -7382547.70747  -5744113.89144  23425826.1884                   23425824.2384
  -7842027.16047  -6102930.20345  22336497.4774                   22336497.7234
  -9298714.22748  -7344602.09846  20233771.1024                   20233769.6684
  -9926642.85947  -7727486.67245  22756821.3674                   22756821.0704
 -16630628.64848 -12941987.82046  21269514.3364                   21269510.7154
 11  7 26  0 57 30.0000000  0  8G28G10G17G12G09G04G27G02
    760161.61347    600864.16844  23218449.1174                   23218449.1334
 -12860197.89847 -10006755.25845  22081175.2344                   22081175.1884
  -9776064.23848  -7606455.25045  22148605.4304                   22148603.5984
  -7457730.12547  -5802697.46544  23411518.8914                   23411517.2894
  -7790935.34047  -6063118.42645  22346220.3594                   22346219.6024
  -9244607.59848  -7302441.10246  20244066.9454                   20244065.6684
  -9874007.62947  -7686472.23845  22766837.6094                   22766838.0824
 -16659761.91048 -12964689.03546  21263969.7974                   21263966.9694
 11  7 26  0 58  0.0000000  0  8G28G10G17G12G09G04G27G02
    863740.21947    681574.68044  23238159.1644                   23238159.5984
 -12916482.36747 -10050613.21145  22070464.8834                   22070464.5864
  -9717533.77048  -7560847.07046  22159742.9924                   22159742.0984
  -7532796.58647  -5861190.69145  23397234.4064                   23397231.7344
  -7739292.61347  -6022877.38345  22356047.2974                   22356047.1914
  -9190056.23848  -7259933.55546  20254448.3984                   20254446.8404
  -9820986.55547  -7645157.13744  22776926.7344                   22776927.0044
 -16688534.01648 -12987108.83646  21258495.1644                   21258492.4064
 11  7 26  0 58 30.0000000  0  8G28G10G17G12G09G04G27G02
    967624.61747    762523.46544  23257928.4454                   23257928.5904
 -12972403.36347 -10094187.95345  22059822.9534                   22059822.8054
  -9658904.68748  -7515162.09046  22170899.8834                   22170898.7274
  -7607735.82847  -5919584.78545  23382974.0864                   23382971.3954
  -7687092.38347  -5982201.91445  22365980.6174                   22365980.0474
  -9135053.33648  -7217074.16846  20264914.7664                   20264913.6524
  -9767572.69547  -7603535.97745  22787091.1254                   22787091.4614
 -16716935.91448 -13009240.15646  21253090.1644                   21253087.1094
 11  7 26  0 59  0.0000000  0  8G28G10G17G12G09G04G27G02
   1071813.52346    843709.52744  23277754.3054                   23277754.4304
 -13027958.03147 -10137477.24245  22049251.2114                   22049251.5274
  -9600176.69548  -7469400.02045  22182075.3914                   22182073.7194
  -7682545.77347  -5977878.12945  23368737.7814                   23368735.6214
  -7634336.23847  -5941093.26245  22376020.1094                   22376019.3874
  -9079600.56648  -7173864.21946  20275467.3754                   20275465.8094
  -9713767.89147  -7561610.21145  22797330.1724                   22797330.4734
 -16744967.10248 -13031082.61746  21247755.8364                   21247752.6374
 11  7 26  0 59 30.0000000  0  8G28G10G17G12G09G04G27G02
   1176305.52347    925131.77344  23297639.1024                   23297638.3754
 -13083142.75047 -10180478.26645  22038750.4144                   22038749.7114
  -9541349.69148  -7423560.80145  22193270.3204                   22193268.0824
  -7757223.87547  -6036068.71545  23354525.7034                   23354525.3834
  -7581026.88747  -5899553.55145  22386164.5704                   22386163.7384
  -9023700.22748  -7130305.52046  20286104.3444                   20286103.5204
  -9659574.25047  -7519381.44945  22807642.9844                   22807643.4494
 -16772627.58648 -13052636.21546  21242492.4454                   21242489.1564
 11  7 26  1  0  0.0000000  0  8G28G10G17G12G09G04G27G02
   1281093.45346   1006784.63343  23317578.6094                   23317578.7854
 -13137960.62947 -10223193.44145  22028318.3594                   22028318.5434
  -9482429.34847  -7377648.82446  22204482.4064                   22204479.6094
  -7831773.98847  -6094159.59045  23340340.6414                   23340338.8284
  -7527172.44547  -5857589.08645  22396412.5704                   22396411.4344
  -8967360.62548  -7086404.53546  20296825.5784                   20296823.9734
  -9604999.62947  -7476855.82845  22818028.0634                   22818028.4774
 -16799923.15248 -13073905.47346  21237298.3054                   21237295.3164
 11  7 26  1  0 30.0000000  0  8G28G10G17G12G09G04G27G02
   1386186.43447   1088675.15243  23337578.0314                   23337577.7114
 -13192397.43047 -10265611.68445  22017959.3364                   22017959.4494
  -9423404.36747  -7331655.32846  22215713.5704                   22215712.6524
  -7906182.88747  -6152140.43445  23326180.4384                   23326179.5004
  -7472764.30947  -5815193.19945  22406766.2894                   22406765.4574
  -8910572.73848  -7042154.24246  20307632.1024                   20307631.0864
  -9550035.25847  -7434026.44145  22828487.6564                   22828487.3524
 -16826842.78148 -13094881.77346  21232175.5474                   21232172.6844
 11  7 26  1  1  0.0000000  0  8G28G10G17G12G09G04G27G02
   1491584.50047   1170803.43444  23357634.8594                   23357634.6024
 -13246448.41047 -10307729.27045  22007673.7664                   22007674.4144
  -9364273.00847  -7285578.93746  22226965.7734                   22226965.3754
  -7980446.24647  -6210007.89145  23312048.2114                   23312047.7504
  -7417802.97347  -5772366.22745  22417224.7504                   22417224.6054
  -8853336.99648  -6997554.96946  20318523.6334                   20318522.1254
  -9494681.46947  -7390893.69545  22839021.4144                   22839021.2234
 -16853384.62948 -13115563.71146  21227124.7194                   21227121.5204
 11  7 26  1  1 30.0000000  0  8G28G10G17G12G09G04G27G02
   1597282.88347   1253165.70744  23377748.1724                   23377748.4304
 -13300114.32047 -10349546.80545  21997461.1884                   21997461.2234
  -9305038.30947  -7239422.01645  22238237.8134                   22238236.1804
  -8054566.10247  -6267763.50445  23297944.4384                   23297942.5904
  -7362294.38347  -5729112.83245  22427787.9144                   22427788.0634
  -8795659.53148  -6952611.48846  20329499.3204                   20329497.3094
  -9438943.99647  -7347461.91845  22849627.6334                   22849627.5434
 -16879552.48448 -13135954.20746  21222145.1414                   21222141.9884
 11  7 26  1  2  0.0000000  0  8G28G10G17G12G09G04G27G02
   1703281.88347   1335762.23044  23397919.3834                   23397920.3364
 -13353390.23447 -10391060.43745  21987323.6484                   21987323.5554
  -9245698.23047  -7193182.99645  22249530.4144                   22249529.0004
  -8128537.99247  -6325403.87145  23283868.3754                   23283865.4224
  -7306239.42247  -5685433.69545  22438454.8834                   22438454.4344
  -8737540.42648  -6907323.88346  20340559.2664                   20340558.1804
  -9382822.95747  -7303731.29745  22860307.6024                   22860306.9224
 -16905344.19948 -13156051.61346  21217237.4304                   21217234.2424
 11  7 26  1  2 30.0000000  0  8G28G10G17G12G09G04G27G02
    234163.76247    190994.75844  23118355.7344                   23118355.7344
 -14981694.57047 -11659868.91845  21677467.0394                   21677467.1414
 -10761670.42247  -8374460.02746  21961050.4454                   21961049.2304
  -9777781.80947  -7610528.85545  22970026.6724                   22970024.9574
  -8825058.01647  -6868928.73045  22149433.5554                   22149433.6484
 -10254399.54348  -8089292.02047  20051910.3524                   20051909.2854
 -10901738.24247  -8487301.70344  22571266.7424                   22571267.2074
 -18506180.43748 -14403456.44546  20912607.9384                   20912604.8204
 11  7 26  1  3  0.0000000  0  8G28G10G17G12G09G04G27G02
    340758.13747    274055.16044  23138640.3914                   23138641.3324
 -15034182.46547 -11700768.51245  21667479.4454                   21667478.7304
 -10702120.59447  -8328057.59045  21972382.6174                   21972380.8954
  -9851452.03947  -7667934.15244  22956008.1254                   22956005.9144
  -8767918.62547  -6824404.55145  22160306.8364                   22160306.5704
 -10195404.98048  -8043322.23446  20063136.6564                   20063135.4144
 -10844857.85547  -8442979.35545  22582091.0944                   22582091.3364
 -18531221.26248 -14422968.72746  20907843.0394                   20907839.5514
 11  7 26  1  3 30.0000000  0  8G28G10G17G12G09G04G27G02
    447638.91447    357338.77744  23158979.3134                   23158979.5744
 -15086280.65647 -11741364.42645  21657564.9454                   21657564.7664
 -10642474.05147  -8281579.76645  21983733.0004                   21983730.6094
  -9924976.99247  -7725226.30944  22942015.6724                   22942015.2504
  -8710249.46547  -6779467.56245  22171281.2504                   22171280.8204
 -10135984.92648  -7997020.90646  20074444.1484                   20074442.7304
 -10787609.68047  -8398370.43745  22592984.8134                   22592985.9104
 -18555895.43448 -14442195.31246  20903147.2734                   20903144.6254
 11  7 26  1  4  0.0000000  0  8G28G10G17G12G09G04G27G02
    554817.66447    440854.57044  23179374.7894                   23179374.7424
 -15137973.15247 -11781644.20745  21647728.5084                   21647727.5004
 -10582717.49247  -8235016.20345  21995103.4614                   21995102.6994
  -9998341.40247  -7782393.33644  22928054.5314                   22928054.2584
  -8652039.99246  -6734109.56244  22182357.3204                   22182357.2424
 -10076128.46948  -7950379.51246  20085834.4774                   20085832.6724
 -10729983.04347  -8353466.59445  22603951.2034                   22603951.5784
 -18580189.84448 -14461125.98046  20898524.6724                   20898521.1024
 11  7 26  1  4 30.0000000  0  8G28G10G17G12G09G04G27G02
    662284.95747    524595.20344  23199824.8284                   23199825.4224
 -15189264.95747 -11821611.77045  21637968.1334                   21637966.8834
 -10522858.17247  -8188372.57845  22006494.8134                   22006493.9064
 -10071550.80547  -7839439.60545  22914123.7814                   22914123.4534
  -8593300.58247  -6688338.60544  22193535.7424                   22193534.8094
 -10015845.76648  -7903405.98046  20097305.3594                   20097304.3364
 -10671988.29747  -8308275.94145  22614987.3054                   22614987.1214
 -18604112.46148 -14479766.93046  20893972.1174                   20893968.8244
 11  7 26  1  5  0.0000000  0  8G28G10G17G12G09G04G27G02
    770037.75846    608558.32044  23220329.3364                   23220330.1454
 -15240154.33647 -11861265.73445  21628284.0554                   21628283.1134
 -10462897.98447  -8141650.35945  22017904.8134                   22017903.0164
 -10144604.01647  -7896364.20745  22900222.1724                   22900221.5984
  -8534035.20347  -6642157.81644  22204812.9844                   22204812.7734
  -9955140.48048  -7856103.16846  20108857.6804                   20108855.7234
 -10613628.62547  -8262800.92645  22626091.9614                   22626092.7424
 -18627664.94948 -14498119.46546  20889489.9924                   20889486.7234
 11  7 26  1  5 30.0000000  0  8G28G10G17G12G09G04G27G02
    878081.46546    692748.11744  23240890.1484                   23240890.7734
 -15290631.53147 -11900598.53145  21618678.6094                   21618678.0394
 -10402829.83647  -8094844.03145  22029335.4144                   22029333.0784
 -10217492.29747  -7953160.23045  22886352.8984                   22886351.8834
  -8474239.60947  -6595563.88345  22216192.2814                   22216191.8324
  -9894008.17248  -7808467.61347  20120490.5704                   20120489.2074
 -10554899.61747  -8217038.07845  22637268.2814                   22637269.5084
 -18650840.26648 -14516178.11746  20885080.3134                   20885076.0704
 11  7 26  1  6  0.0000000  0  8G28G10G17G12G09G04G27G02
    986411.65646    777161.17643  23261503.7894                   23261504.8444
 -15340696.28147 -11939609.94145  21609151.2274                   21609150.9184
 -10342655.68047  -8047955.08645  22040785.7274                   22040784.3554
 -10290215.77747  -8009827.89845  22872513.2734                   22872512.9384
  -8413918.92247  -6548560.74645  22227670.5084                   22227670.1604
  -9832453.41048  -7760502.86346  20132204.0634                   20132202.8634
 -10495806.03947  -8170991.17245  22648513.6804                   22648513.8444
 -18673641.03148 -14533944.89546  20880741.1644                   20880737.4964
 11  7 26  1  6 30.0000000  0  8G28G10G17G12G09G04G27G02
   1095023.88346    861793.98043  23282172.1334                   23282173.5164
 -15390348.07047 -11978299.56245  21599702.5234                   21599702.1884
 -10282377.45347  -8000985.04345  22052256.7734                   22052255.1604
 -10362774.51647  -8066367.16045  22858706.2424                   22858705.3484
  -8353078.21947  -6501152.42645  22239248.3054                   22239247.5594
  -9770481.34448  -7712212.94946  20143996.8594                   20143995.6334
 -10436352.67247  -8124663.89145  22659827.4384                   22659827.4384
 -18696070.17248 -14551422.11746  20876473.0474                   20876469.9184
 11  7 26  1  7  0.0000000  0  8G28G10G17G12G09G04G27G02
   1203920.73846    946648.61743  23302894.5084                   23302895.4774
 -15439580.35547 -12016662.30945  21590334.1414                   21590333.6054
 -10221991.26647  -7953930.88345  22063747.8914                   22063746.5084
 -10435162.28547  -8122773.20745  22844931.6884                   22844929.6024
  -8291716.03547  -6453337.76245  22250924.9384                   22250925.0664
  -9708090.04748  -7663596.34046  20155869.6254                   20155868.4384
 -10376537.67247  -8078054.83645  22671209.8594                   22671209.8834
 -18718123.57448 -14568606.52746  20872276.3204                   20872272.7154
 11  7 26  1  7 30.0000000  0  8G28G10G17G12G09G04G27G02
   1313096.74246   1031720.73843  23323670.5084                   23323670.8834
 -15488393.70347 -12054698.61345  21581045.0004                   21581044.4494
 -10161500.66047  -7906795.34846  22075259.1954                   22075257.6414
 -10507380.52347  -8179047.12145  22831188.4454                   22831187.1254
  -8229839.26647  -6405122.10945  22262699.8834                   22262699.8754
  -9645285.83648  -7614657.99646  20167820.6954                   20167819.6414
 -10316367.36747  -8031168.91845  22682660.3984                   22682660.4734
 -18739805.20348 -14585501.27046  20868150.5634                   20868147.2424
 11  7 26  1  8  0.0000000  0  8G28G10G17G12G09G04G27G02
   1422552.36747   1117010.77043  23344499.2664                   23344498.7584
 -15536783.18447 -12092404.64145  21571837.0084                   21571836.2974
 -10100902.78948  -7859576.22745  22086790.3364                   22086788.6844
 -10579425.09447  -8235185.69945  22817478.9614                   22817477.9884
  -8167448.23048  -6356505.72345  22274572.4694                   22274572.3914
  -9582068.76648  -7565397.94146  20179850.6174                   20179848.7774
 -10255841.90647  -7984006.24645  22694177.1724                   22694177.8484
 -18761113.14548 -14602104.81246  20864095.5634                   20864092.4414
 11  7 26  1  8 30.0000000  0  8G28G10G17G12G09G04G27G02
   1532284.81346   1202516.52344  23365380.6484                   23365381.1294
 -15584746.89547 -12129778.89545  21562709.4844                   21562708.9184
 -10040199.23047  -7812274.75845  22098341.6094                   22098340.7424
 -10651294.55547  -8291187.83645  22803802.7344                   22803801.4654
  -8104546.49647  -6307491.41445  22286542.5634                   22286541.8164
  -9518442.43448  -7515818.95346  20191958.3914                   20191956.7544
 -10194964.54347  -7936569.36345  22705761.6414                   22705762.4654
 -18782048.77748 -14618418.25446  20860111.6564                   20860108.0554
 11  7 26  1  9  0.0000000  0  8G28G10G17G12G09G04G27G02
   1642296.72746   1288240.04343  23386315.4534                   23386315.4964
 -15632277.79347 -12166815.89145  21553664.6644                   21553664.0944
  -9979385.17647  -7764887.19545  22109914.3754                   22109912.8014
 -10722982.34447  -8347048.37145  22790161.1884                   22790160.1954
  -8041132.84447  -6258078.16045  22298609.6564                   22298609.5904
  -9454404.61748  -7465919.34446  20204144.0634                   20204143.0164
 -10133733.25447  -7888856.69145  22717413.9614                   22717414.4534
 -18802607.72348 -14634438.17646  20856199.3834                   20856195.8134
 11  7 26  1  9 30.0000000  0  8G28G10G17G12G09G04G27G02
   1752582.99646   1374177.28944  23407302.0164                   23407302.7384
 -15679376.14547 -12203515.84445  21544702.0784                   21544701.4494
  -9918463.28147  -7717415.60545  22121507.2424                   22121505.5824
 -10794489.13347  -8402767.87945  22776553.4844                   22776552.3014
  -7977213.04347  -6208270.54745  22310773.4304                   22310772.5274
  -9389961.00448  -7415703.52346  20216407.4064                   20216406.0864
 -10072153.59047  -7840872.57045  22729132.4384                   22729132.2894
 -18822793.43448 -14650167.28146  20852358.3364                   20852354.8714
 11  7 26  1 10  0.0000000  0  8G28G10G17G12G09G04G27G02
   1863146.15246   1460330.30543  23428341.7734                   23428342.3874
 -15726035.35947 -12239873.61345  21535823.0474                   21535822.9964
  -9857429.49247  -7669856.80545  22133121.3754                   22133119.9494
 -10865808.89847  -8458341.60545  22762981.5554                   22762980.8754
  -7912786.07047  -6158067.70345  22323033.2114                   22323032.9614
  -9325109.90248  -7365170.19146  20228748.0864                   20228746.8834
 -10010224.20747  -7792615.92245  22740917.6334                   22740917.0314
 -18842602.08648 -14665602.56646  20848588.7504                   20848585.7194
 11  7 26  1 10 30.0000000  0  8G28G10G17G12G09G04G27G02
   1973977.98446   1546692.65243  23449432.5704                   23449433.4654
 -15772258.72347 -12275891.75045  21527027.2664                   21527026.4614
  -9796289.53548  -7622215.27045  22144756.8134                   22144754.6414
 -10936945.19947  -8513772.41445  22749444.6174                   22749443.3594
  -7847860.94547  -6107476.71545  22335388.0234                   22335387.4884
  -9259859.96948  -7314326.07046  20241164.8054                   20241163.7894
  -9947953.55147  -7744093.36744  22752766.9454                   22752766.4734
 -18862040.05548 -14680748.98846  20844889.7114                   20844886.2624
 11  7 26  1 11  0.0000000  0  8G28G10G17G12G09G04G27G02
   2085076.17246   1633262.55543  23470573.4454                   23470574.4414
 -15818043.75447 -12311568.33645  21518314.2664                   21518313.7664
  -9735043.23848  -7574490.89145  22156411.0084                   22156409.8554
 -11007896.26647  -8569058.85945  22735943.6724                   22735941.9184
  -7782440.59447  -6056499.81245  22347836.5314                   22347836.8364
  -9194213.80148  -7263173.21546  20253656.7734                   20253655.4384
  -9885344.31247  -7695307.00045  22764681.1334                   22764681.7234
 -18881107.96147 -14695607.06246  20841261.2734                   20841257.9384
 11  7 26  1 11 30.0000000  0  8G28G10G17G12G09G04G27G02
   2196449.46146   1720046.79343  23491767.1024                   23491768.0904
 -15863377.53147 -12346893.30545  21509687.4614                   21509686.7234
  -9673680.71548  -7526675.93045  22168087.9304                   22168086.5744
 -11078649.77047  -8624191.38745  22722478.9774                   22722476.9774
  -7716517.60547  -6005131.25045  22360381.3444                   22360381.6374
  -9128163.71148  -7211705.61346  20266226.1094                   20266224.6214
  -9822388.84447  -7646250.78145  22776661.3594                   22776661.1764
 -18899796.17247 -14710169.26246  20837705.0164                   20837701.6884
 11  7 26  1 12  0.0000000  0  8G28G10G17G12G09G04G27G02
   2308083.33246   1807034.12543  23513011.0164                   23513011.7464
 -15908270.19147 -12381874.54745  21501145.3914                   21501144.4494
  -9612214.54748  -7478780.22345  22179784.6484                   22179783.5664
 -11149216.20347  -8679178.12145  22709051.0234                   22709049.1604
  -7650107.77347  -5953383.32845  22373018.7114                   22373018.9844
  -9061724.93048  -7159935.13346  20278868.7344                   20278867.2274
  -9759102.63347  -7596936.86745  22788703.4844                   22788704.0944
 -18918117.65648 -14724445.70746  20834218.5394                   20834214.9414
 11  7 26  1 12 30.0000000  0  8G28G10G17G12G09G04G27G02
   2419978.91446   1894225.32043  23534303.6334                   23534304.9884
 -15952715.82047 -12416507.45345  21492687.0004                   21492686.5474
  -9550640.84048  -7430800.72345  22191502.0084                   22191500.3164
 -11219589.94947  -8734014.71145  22695658.7974                   22695657.1484
  -7583211.19547  -5901256.13345  22385748.8204                   22385748.9964
  -8994896.93748  -7107861.37946  20291585.4224                   20291583.7034
  -9695484.85547  -7547364.58645  22800810.2344                   22800810.3364
 -18936069.53148 -14738434.15246  20830802.5704                   20830798.9734
 11  7 26  1 13  0.0000000  0  8G28G10G17G12G09G04G27G02
   2532139.52046   1981623.07844  23555648.1174                   23555648.3794
 -15996706.23047 -12450785.64545  21484315.9844                   21484315.4144
  -9488954.17248  -7382733.19545  22203240.3054                   22203239.2894
 -11289763.35947  -8788695.18045  22682305.3984                   22682303.6684
  -7515825.02347  -5848747.42245  22398572.1094                   22398572.2584
  -8927676.55548  -7055481.87146  20304377.6644                   20304375.8714
  -9631532.61747  -7497531.70344  22812979.6564                   22812979.8324
 -18953646.76248 -14752130.67246  20827457.4534                   20827454.1174
 11  7 26  1 13 30.0000000  0  8G28G10G17G12G09G04G27G02
   2644558.81646   2069222.37543  23577039.9924                   23577040.8444
 -16040243.14147 -12484710.46545  21476030.9694                   21476030.3404
  -9427159.06248  -7334581.18045  22214999.2194                   22214998.1684
 -11359738.71547  -8843221.34045  22668989.0394                   22668987.5164
  -7447956.68447  -5795863.00445  22411487.0864                   22411487.2664
  -8860070.77048  -7002802.03546  20317242.4774                   20317241.1914
  -9567252.95347  -7447443.66844  22825211.7584                   22825211.5044
 -18970854.09448 -14765538.95746  20824182.9064                   20824179.6914
 11  7 26  1 14  0.0000000  0  8G28G10G17G12G09G04G27G02
   2757241.23446   2157026.76643  23598482.9694                   23598483.5234
 -16083317.99247 -12518275.23445  21467834.1804                   21467833.0314
  -9365248.72348  -7286339.37945  22226780.6804                   22226778.7074
 -11429507.46147  -8897586.49245  22655713.1484                   22655711.6644
  -7379603.23847  -5742600.59045  22424494.6254                   22424495.0474
  -8792075.93748  -6949819.06646  20330181.1174                   20330179.2544
  -9502642.00847  -7397097.55544  22837506.7504                   22837506.9224
 -18987685.83648 -14778654.57846  20820980.0164                   20820975.9304
 11  7 26  1 14 30.0000000  0  8G28G10G17G12G09G04G27G02
   2870177.98846   2245029.28943  23619974.0084                   23619975.7934
 -16125935.20747 -12551483.41445  21459724.1024                   21459723.4184
  -9303230.15247  -7238013.21945  22238581.7344                   22238581.0234
 -11499074.25047  -8951794.29745  22642474.7274                   22642473.5984
  -7310774.62547  -5688967.91445  22437592.2424                   22437592.0594
  -8723701.44548  -6896540.25446  20343192.6414                   20343190.9224
  -9437709.26647  -7346500.60944  22849863.1954                   22849862.8714
 -19004149.27048 -14791483.19946  20817847.0004                   20817843.5744
 11  7 26  1 15  0.0000000  0  8G28G10G17G12G09G04G27G02
   2983372.79347   2333232.96143  23641514.7814                   23641515.6604
 -16168086.37147 -12584328.43745  21451703.2894                   21451702.2894
  -9241097.04748  -7189597.79745  22250405.8054                   22250404.5634
 -11568431.09447  -9005838.48045  22629276.6024                   22629275.2304
  -7241467.94947  -5634962.71945  22450780.3914                   22450780.3714
  -8654944.07848  -6842963.10246  20356276.8134                   20356275.4804
  -9372451.30947  -7295650.30544  22862281.0474                   22862281.4654
 -19020239.09848 -14804020.69146  20814785.2114                   20814781.8954
 11  7 26  1 15 30.0000000  0  8G28G10G17G12G09G04G27G02
   3096824.54347   2421636.83643  23663104.7034                   23663103.9774
 -16209768.00847 -12616807.58245  21443771.3834                   21443771.0554
  -9178848.49248  -7141092.43445  22262251.9534                   22262250.3134
 -11637574.95347  -9059716.71945  22616118.8594                   22616117.1254
  -7171685.44147  -5580586.77045  22464060.2034                   22464059.7894
  -8585805.44148  -6789088.85246  20369433.2424                   20369431.5984
  -9306870.26647  -7244548.24244  22874761.1954                   22874761.2154
 -19035954.63748 -14816266.52046  20811794.5704                   20811790.9804
 11  7 26  1 16  0.0000000  0  8G28G10G17G12G09G04G27G02
   3210532.19947   2510240.12943  23684741.7344                   23684742.2344
 -16250976.54347 -12648918.06645  21435929.8984                   21435928.6764
  -9116483.55148  -7092496.39545  22274119.4144                   22274118.9104
 -11706502.54747  -9113426.44945  22603001.6644                   22603000.2464
  -7101429.17247  -5525841.63345  22477429.4064                   22477428.8364
  -8516286.94148  -6734918.60546  20382662.1724                   20382660.5204
  -9240967.86347  -7193195.77744  22887302.3444                   22887301.6724
 -19051295.60548 -14828220.48846  20808875.5084                   20808872.1374
 11  7 26  1 16 30.0000000  0  8G28G10G17G12G09G04G27G02
   3324495.96147   2599043.02343  23706428.2664                   23706429.8874
 -16291707.26647 -12680656.23045  21428178.8204                   21428177.7034
  -9053999.77348  -7043807.75845  22286009.5864                   22286007.9144
 -11775209.47347  -9166964.23045  22589927.2584                   22589925.0704
  -7030700.07047  -5470728.07045  22490888.8204                   22490888.1524
  -8446389.28548  -6680452.91446  20395963.5474                   20395961.8634
  -9174744.35947  -7141593.09044  22899903.5704                   22899903.2664
 -19066260.44548 -14839881.37546  20806027.5704                   20806024.3554
 11  7 26  1 17  0.0000000  0  8G28G10G17G12G09G04G27G02
   3438713.68847   2688043.77343  23728163.8914                   23728163.7304
 -16331958.05547 -12712020.41845  21420519.2894                   21420518.0744
  -8991396.90247  -6995026.30145  22297922.1414                   22297920.8244
 -11843693.43047  -9220328.28945  22576895.5784                   22576893.3714
  -6959501.66047  -5415248.80545  22504437.1564                   22504436.7814
  -8376115.10248  -6625693.81246  20409336.1414                   20409334.6604
  -9108202.85947  -7089742.60244  22912566.3674                   22912565.5824
 -19080849.82848 -14851249.71546  20803251.3054                   20803247.4804
 11  7 26  1 17 30.0000000  0  8G28G10G17G12G09G04G27G02
   3553179.33246   2777237.70343  23749945.1254                   23749946.5084
 -16371730.24247 -12743011.66045  21412950.2584                   21412949.7854
  -8928678.52747  -6946154.85945  22309857.1484                   22309855.5354
 -11911956.01647  -9273519.84445  22563905.6564                   22563903.1094
  -6887840.80947  -5359409.20745  22518073.5704                   22518073.5634
  -8305470.50448  -6570646.08646  20422779.2424                   20422777.9804
  -9041349.48847  -7037649.10244  22925288.0784                   22925288.4024
 -19095067.77048 -14862328.61746  20800545.6334                   20800542.1174
 11  7 26  1 18  0.0000000  0  8G28G10G17G12G09G04G27G02
   3667893.04346   2866624.91043  23771774.7504                   23771775.6884
 -16411019.40647 -12773626.52746  21405474.3754                   21405473.1374
  -8865842.80547  -6897191.97345  22321814.0084                   22321813.1604
 -11979993.34447  -9326535.90245  22550958.9534                   22550956.8014
  -6815718.97347  -5303210.40245  22531798.6884                   22531797.8244
  -8234456.65648  -6515310.64546  20436292.6094                   20436291.9064
  -8974185.37947  -6985313.47344  22938068.7584                   22938069.2734
 -19108913.34048 -14873117.34846  20797910.8594                   20797907.5664
 11  7 26  1 18 30.0000000  0  8G28G10G17G12G09G04G27G02
   3782853.61746   2956204.50043  23793651.6334                   23793652.5904
 -16449822.16047 -12803862.35946  21398090.5004                   21398089.2584
  -8802888.22348  -6848136.42645  22333794.3284                   22333793.4104
 -12047802.21947  -9379373.94145  22538054.5864                   22538053.3714
  -6743138.11747  -5246653.93045  22545609.5784                   22545609.0274
  -8163074.98048  -6459688.57846  20449876.3674                   20449875.0664
  -8906712.28947  -6932737.08644  22950908.6334                   22950909.3674
 -19122385.90248 -14883615.41046  20795347.1884                   20795343.3484
 11  7 26  1 19  0.0000000  0  8G28G10G17G12G09G04G27G02
   3898059.56646   3045975.28143  23815574.4454                   23815575.9494
 -16488135.39547 -12833716.76645  21390799.5164                   21390798.4614
  -8739814.39548  -6798987.98845  22345797.0084                   22345795.3014
 -12115379.41447  -9432031.42645  22525195.2274                   22525193.5864
  -6670100.91047  -5189741.84445  22559508.2114                   22559507.9414
  -8091327.27048  -6403781.27746  20463529.4064                   20463527.8954
  -8838931.84847  -6879921.18044  22963806.8674                   22963807.1954
 -19135485.43048 -14893822.79346  20792854.6024                   20792851.2274
 11  7 26  1 19 30.0000000  0  8G28G10G17G12G09G04G27G02
   4013502.63746   3135930.77743  23837542.8984                   23837543.3054
 -16525963.13347 -12863192.84846  21383601.0474                   21383599.8634
  -8676627.05547  -6749751.07845  22357821.0554                   22357819.2304
 -12182729.04347  -9484511.62545  22512378.9304                   22512376.9774
  -6596616.65647  -5132481.41045  22573492.2114                   22573492.4844
  -8019222.22748  -6347595.53546  20477250.5084                   20477249.2304
  -8770853.10947  -6826872.83644  22976761.7344                   22976762.1414
 -19148218.52348 -14903744.62946  20790431.4384                   20790427.6254
 11  7 26  1 20  0.0000000  0  8G28G10G17G12G09G04G27G02
   4129178.23446   3226067.49243  23859554.9924                   23859556.2384
 -16563305.13347 -12892290.44146  21376495.4774                   21376494.4184
  -8613328.63747  -6700427.65645  22369866.3984                   22369864.5904
 -12249851.27747  -9536814.63345  22499605.3914                   22499604.3954
  -6522691.07847  -5074877.08245  22587559.4064                   22587559.1914
  -7946765.16048  -6291135.50446  20491038.6024                   20491037.6684
  -8702481.44147  -6773596.25044  22989772.7974                   22989773.6564
 -19160588.30948 -14913383.39146  20788077.2664                   20788073.4924
 11  7 26  1 20 30.0000000  0  8G28G10G17G12G09G04G27G02
   4245089.49246   3316387.90243  23881612.4304                   23881614.1374
 -16600154.11347 -12921003.85945  21369483.1024                   21369482.3484
  -8549913.93047  -6651013.60245  22381933.6334                   22381932.7384
 -12316738.98047  -9588934.86345  22486877.6884                   22486875.7774
  -6448322.39847  -5016927.47345  22601711.8594                   22601711.2384
  -7873953.47748  -6234399.13746  20504894.4924                   20504892.4694
  -8633814.64146  -6720089.67644  23002839.3364                   23002840.0634
 -19172590.35948 -14922735.61346  20785793.3594                   20785789.9064
 11  7 26  1 21  0.0000000  0  8G28G10G17G12G09G04G27G02
   4361233.57846   3406889.70343  23903713.2664                   23903715.1174
 -16636508.48448 -12949331.89146  21362565.6024                   21362564.3404
  -8486383.01247  -6601508.99245  22394023.0314                   22394022.1094
 -12383390.38747  -9640870.99645  22474194.6094                   22474192.8714
  -6373514.52347  -4958635.68444  22615946.9844                   22615946.5514
  -7800790.52748  -6177389.03946  20518816.6094                   20518815.2464
  -8564855.98047  -6666355.70744  23015962.1484                   23015962.9384
 -19184226.27748 -14931802.55146  20783579.0944                   20783575.5044
 11  7 26  1 21 30.0000000  0  8G28G10G17G12G09G04G27G02
   4477615.92246   3497577.17243  23925860.6174                   23925861.6094
 -16672358.18448 -12977266.65246  21355742.5554                   21355741.9614
  -8422728.32848  -6551907.96145  22406136.3444                   22406135.1724
 -12449795.65247  -9692615.32845  22461558.1884                   22461556.0434
  -6298263.62547  -4899998.60944  22630266.1564                   22630265.8914
  -7727271.55548  -6120101.52746  20532806.8364                   20532805.5004
  -8495600.69947  -6612390.59844  23029140.5004                   23029141.3444
 -19195488.84848 -14940578.53946  20781435.9924                   20781432.5664
 11  7 26  1 22  0.0000000  0  8G28G10G17G12G09G04G27G02
   4594227.73046   3588443.44943  23948051.5394                   23948052.0274
 -16707707.73447 -13004811.69946  21349015.9304                   21349014.9144
  -8358956.50047  -6502215.61745  22418271.6254                   22418269.9384
 -12515959.12547  -9744171.26245  22448966.8284                   22448964.5984
  -6222579.34847  -4841023.91444  22644668.7194                   22644668.7384
  -7653405.32448  -6062543.44546  20546863.2194                   20546862.0164
  -8426058.07047  -6558201.57044  23042374.2114                   23042374.6254
 -19206385.35948 -14949069.32046  20779362.7344                   20779358.6454
 11  7 26  1 22 30.0000000  0  8G28G10G17G12G09G04G27G02
   4711067.35546   3679487.23443  23970284.7424                   23970285.8094
 -16742554.48848 -13031964.95346  21342384.8204                   21342384.1724
  -8295066.58248  -6452431.24245  22430429.0084                   22430427.5514
 -12581877.94547  -9795536.55145  22436423.4534                   22436421.3484
  -6146464.33647  -4781713.54345  22659153.5864                   22659152.7194
  -7579194.24648  -6004716.64146  20560985.4774                   20560983.2074
  -8356230.25847  -6503790.30544  23055662.6414                   23055662.9574
 -19216915.75448 -14957274.79746  20777358.3594                   20777354.6214
 11  7 26  1 23  0.0000000  0  8G28G10G17G12G09G04G27G02
   4828137.16846   3770710.43043  23992562.7344                   23992563.6804
 -16776891.54348 -13058721.05546  21335850.9304                   21335849.6954
  -8231053.86747  -6402551.20745  22442610.6954                   22442608.8634
 -12647545.41047  -9846706.00845  22423927.3054                   22423925.2774
  -6069917.44147  -4722066.68445  22673719.8674                   22673719.5594
  -7504636.25048  -5946619.49246  20575172.9534                   20575171.8204
  -8286115.53147  -6449155.48845  23069005.2344                   23069005.2464
 -19227076.19948 -14965191.99646  20775425.2814                   20775421.0434
 11  7 26  1 23 30.0000000  0  8G28G10G17G12G09G04G27G02
   4945434.34046   3862110.75043  24014883.8834                   24014885.4024
 -16810717.25447 -13085078.69546  21329413.7664                   21329412.9344
  -8166918.85247  -6352575.86345  22454815.0314                   22454814.2114
 -12712960.18047  -9897678.55545  22411479.3984                   22411477.3484
  -5992943.10547  -4662086.75045  22688367.9614                   22688367.2234
  -7429734.92248  -5888254.81246  20589426.1254                   20589424.8484
  -8215717.72747  -6394300.08645  23082400.8204                   23082401.0944
 -19236868.64848 -14972822.44946  20773561.5554                   20773557.2504
 11  7 26  1 24  0.0000000  0  8G28G10G17G12G09G04G27G02
   5062955.65646   3953685.73443  24037247.4144                   24037249.0204
 -16844030.28148 -13111036.84446  21323074.6254                   21323073.7114
  -8102662.80147  -6302506.21945  22467043.0864                   22467041.6604
 -12778120.89147  -9948453.12545  22399079.7034                   22399077.6524
  -5915545.28946  -4601776.79344  22703095.4614                   22703095.6094
  -7354493.77748  -5829625.37946  20603743.9534                   20603742.7154
  -8145040.63347  -6339227.03944  23095849.9304                   23095850.3634
 -19246294.47348 -14980167.22346  20771767.9224                   20771763.9494
 11  7 26  1 24 30.0000000  0  8G28G10G17G12G09G04G27G02
   5180702.91046   4045436.79343  24059654.4384                   24059655.1724
 -16876824.43748 -13136590.68746  21316834.5164                   21316833.0634
  -8038280.90647  -6252338.53545  22479294.7114                   22479292.7114
 -12843021.04347  -9999024.66045  22386729.7894                   22386727.8954
  -5837723.07047  -4541136.16845  22717905.2034                   22717905.6214
  -7278911.19948  -5770729.85546  20618127.2034                   20618125.7464
  -8074082.87147  -6283935.27044  23109353.0634                   23109353.5784
 -19255350.04348 -14987223.48446  20770044.7814                   20770041.1294
 11  7 26  1 25  0.0000000  0  8G28G10G17G12G09G04G27G02
   5298669.62946   4137358.85943  24082102.0864                   24082104.0274
 -16909102.18048 -13161742.10946  21310691.8914                   21310690.6334
  -7973777.54748  -6202076.17645  22491569.3134                   22491567.5234
 -12907662.87547 -10049394.91446  22374428.5864                   22374427.4344
  -5759484.69147  -4480171.21545  22732792.9224                   22732793.6764
  -7202994.52748  -5711574.00446  20632573.3984                   20632572.7974
  -8002852.05147  -6228430.75444  23122908.0784                   23122908.5354
 -19264040.62948 -14993995.34846  20768391.0164                   20768387.4304
 11  7 26  1 25 30.0000000  0  8G28G10G17G12G09G04G27G02
   5416855.97346   4229451.99443  24104592.4064                   24104594.7114
 -16940859.20748 -13186487.80546  21304648.7194                   21304647.4734
  -7909150.15247  -6151717.17645  22503867.0704                   22503865.0474
 -12972042.18747 -10099560.61745  22362177.7194                   22362176.0634
  -5680831.25847  -4418882.90245  22747760.9844                   22747760.8954
  -7126744.04348  -5652158.05146  20647083.4304                   20647082.5984
  -7931348.61347  -6172713.79744  23136514.5084                   23136515.2624
 -19272364.97348 -15000481.83246  20766807.1174                   20766803.2424
 11  7 26  1 26  0.0000000  0  8G28G10G17G12G09G04G27G02
   5535250.56346   4321707.48043  24127122.0084                   24127123.8594
 -16972101.82848 -13210832.65646  21298703.3364                   21298702.6334
  -7844407.86747  -6101268.65645  22516187.4614                   22516184.6094
 -13036165.08247 -10149526.49245  22349975.9534                   22349973.5394
  -5601774.95747  -4357280.65245  22762804.5944                   22762804.7344
  -7050171.19948  -5592490.89546  20661655.0944                   20661653.5474
  -7859583.95746  -6116793.29344  23150170.7504                   23150171.6024
 -19280332.55948 -15006690.32446  20765290.7034                   20765287.1174
 11  7 26  1 26 30.0000000  0  8G28G10G17G12G09G04G27G02
   5653857.11746   4414128.15242  24149692.8204                   24149692.5474
 -17002822.42248 -13234770.73446  21292857.3594                   21292855.9774
  -7779544.49247  -6050725.81245  22528530.4534                   22528528.1484
 -13100023.54347 -10199286.32845  22337823.6954                   22337822.0044
  -5522313.62547  -4295362.80545  22777925.5634                   22777925.8794
  -6973272.85548  -5532570.10546  20676288.2814                   20676286.4654
  -7787555.45346  -6060667.23443  23163877.5314                   23163877.8484
 -19287938.33248 -15012616.89146  20763843.3364                   20763839.4264
 11  7 26  1 27  0.0000000  0  8G28G10G17G12G09G04G27G02
   5772675.87546   4506714.18042  24172302.7504                   24172303.5234
 -17033016.42248 -13258298.46946  21287111.7734                   21287110.2154
  -7714557.13348  -6000086.31645  22540896.8524                   22540895.4224
 -13163613.21947 -10248836.70746  22325723.1954                   22325721.3014
  -5442448.06247  -4233129.89844  22793123.5944                   22793123.4454
  -6896049.08648  -5472395.73846  20690983.3594                   20690982.3754
  -7715263.19146  -6004335.62944  23177633.9614                   23177633.9454
 -19295180.56248 -15018260.17646  20762465.1724                   20762461.3094
 11  7 26  1 27 30.0000000  0  8G28G10G17G12G09G04G27G02
   5891706.18046   4599464.97743  24194953.6024                   24194954.1134
 -17062680.48048 -13281413.26646  21281466.5864                   21281465.1684
  -7649444.11348  -5949348.91445  22553288.1024                   22553285.9104
 -13226930.29747 -10298174.67645  22313674.3284                   22313671.7854
  -5362180.04747  -4170583.42245  22808397.9454                   22808398.1414
  -6818501.22748  -5411968.84846  20705740.0704                   20705739.0204
  -7642708.80947  -5947799.80144  23191441.1254                   23191441.3634
 -19302058.62548 -15023619.68046  20761156.1484                   20761152.2774
 11  7 26  1 28  0.0000000  0  8G28G10G17G12G09G04G27G02
   6010947.46545   4692380.09842  24217644.4454                   24217645.6724
 -17091810.21948 -13304111.71946  21275923.6024                   21275922.5004
  -7584203.52747  -5898512.11745  22565702.3674                   22565700.7274
 -13289970.62547 -10347297.01245  22301677.9454                   22301675.7464
  -5281511.65247  -4107724.99645  22823748.8524                   22823748.5514
  -6740630.01648  -5351290.00046  20720558.5784                   20720557.1884
  -7569893.38347  -5891060.58644  23205297.8364                   23205298.1094
 -19308571.48448 -15028694.61746  20759917.2034                   20759913.0004
 11  7 26  1 28 30.0000000  0  8G28G10G17G12G09G04G27G02
   6130395.47346   4785456.37542  24240374.0784                   24240377.0394
 -17120406.00048 -13326394.08646  21270481.5634                   21270480.5394
  -7518836.82847  -5847577.05145  22578141.1094                   22578140.1374
 -13352733.66047 -10396203.25845  22289734.2274                   22289732.3364
  -5200448.37547  -4044558.85945  22839174.9064                   22839173.3984
  -6662440.23848  -5290362.90246  20735437.5704                   20735436.3324
  -7496821.90247  -5834121.83244  23219202.4454                   23219202.8244
 -19314722.13748 -15033487.31646  20758746.3134                   20758743.0394
 11  7 26  1 29  0.0000000  0  8G28G10G17G12G09G04G27G02
   6250045.98446   4878690.54343  24263143.2194                   24263145.2304
 -17148467.53948 -13348260.15646  21265141.5784                   21265140.5274
  -7453346.55147  -5796545.66845  22590603.8284                   22590602.7504
 -13415219.10247 -10444893.19145  22277843.0784                   22277841.8794
  -5118995.46147  -3981089.08644  22854674.7894                   22854673.8914
  -6583936.44548  -5229191.10546  20750376.4304                   20750375.1334
  -7423499.19147  -5776987.30544  23233154.8444                   23233155.6764
 -19320513.02348 -15037999.68046  20757644.6644                   20757641.0904
 11  7 26  1 29 30.0000000  0  8G28G10G17G12G09G04G27G02
   6369908.28546   4972089.70743  24285952.3524                   24285954.7814
 -17175981.51648 -13369699.56646  21259905.6564                   21259904.6804
  -7387720.77747  -5745408.71145  22603092.0164                   22603090.2234
 -13477413.49247 -10493356.33645  22266008.6174                   22266006.3094
  -5037144.89547  -3917309.51244  22870250.5554                   22870250.4454
  -6505109.58248  -5167767.56646  20765376.6484                   20765375.5634
  -7349916.61347  -5719650.27344  23247157.2664                   23247158.3714
 -19325933.53548 -15042223.44146  20756612.9924                   20756609.3954
 11  7 26  1 30  0.0000000  0  8G28G10G17G12G09G04G27G02
   6489971.81346   5065645.63743  24308800.1484                   24308802.3794
 -17202954.30948 -13390717.27746  21254773.4614                   21254771.8714
  -7321967.45347  -5694172.39545  22615604.2504                   22615602.7274
 -13539323.01647 -10541597.50845  22254227.6724                   22254225.2304
  -4954908.71547  -3853229.41044  22885899.4774                   22885898.6024
  -6425970.87548  -5106101.04346  20780436.1644                   20780434.5554
  -7276085.40247  -5662119.49244  23261207.9224                   23261208.3714
 -19330992.98448 -15046165.87146  20755650.5554                   20755646.6294
 11  7 26  1 30 30.0000000  0  8G28G10G17G12G09G04G27G02
   6610233.32446   5159355.87143  24331684.7114                   24331687.1094
 -17229385.08648 -13411312.64846  21249743.8984                   21249742.4734
  -7256087.42647  -5642837.35245  22628140.7344                   22628139.1484
 -13600946.25047 -10589615.57846  22242501.5234                   22242499.4844
  -4872291.35947  -3788852.26644  22901620.5634                   22901620.5664
  -6346524.20748  -5044194.55146  20795554.7344                   20795553.1214
  -7202009.71547  -5604398.23444  23275304.1804                   23275304.0704
 -19335693.54348 -15049828.63346  20754755.7734                   20754751.8014
 11  7 26  1 31  0.0000000  0  8G28G10G17G12G09G04G27G02
   6730688.94146   5253217.37943  24354607.0004                   24354608.6994
 -17255273.03548 -13431485.02346  21244817.3204                   21244815.9104
  -7190081.57447  -5591404.23045  22640701.4224                   22640700.0274
 -13662282.00447 -10637409.63346  22230829.0314                   22230827.6054
  -4789297.44547  -3724181.69544  22917413.7194                   22917414.4384
  -6266772.96948  -4982050.73046  20810730.6484                   20810729.1094
  -7127693.53947  -5546489.59444  23289445.7034                   23289446.6334
 -19340036.91448 -15053213.07446  20753928.8204                   20753925.5314
 11  7 26  1 31 30.0000000  0  8G28G10G17G12G09G04G27G02
   6851342.40646   5347232.99243  24377565.9924                   24377568.2504
 -17280610.60548 -13451228.52346  21239995.4384                   21239993.9574
  -7123943.65247  -5539868.18445  22653287.1954                   22653286.3244
 -13723322.34047 -10684973.48445  22219213.2894                   22219211.9534
  -4705924.61747  -3659215.85244  22933279.5004                   22933280.0164
  -6186714.10948  -4919667.19146  20825965.0474                   20825963.7704
  -7053133.73447  -5488391.14143  23303633.3594                   23303634.0004
 -19344018.07848 -15056315.25446  20753171.6564                   20753167.2774
 11  7 26  1 32  0.0000000  0  7G10G17G12G09G04G27G02
 -17305400.36748 -13470545.18046  21235277.9304                   21235276.7034
  -7057678.21547  -5488232.78945  22665896.6414                   22665895.9144
 -13784069.56247 -10732308.91045  22207653.6024                   22207651.5634
  -4622181.30947  -3593961.34044  22949215.2274                   22949214.9964
  -6106354.90248  -4857049.62546  20841256.9844                   20841255.4344
  -6978338.22747  -5430108.99644  23317866.7584                   23317867.6954
 -19347642.59048 -15059139.50846  20752481.9924                   20752477.9064
 11  7 26  1 32 30.0000000  0  7G10G17G12G09G04G27G02
 -17329641.63348 -13489434.43046  21230665.3594                   21230664.1334
  -6991286.73447  -5436499.19145  22678530.4384                   22678529.5944
 -13844522.33247 -10779414.91445  22196149.7344                   22196147.9454
  -4538072.10247  -3528421.73044  22965220.7894                   22965220.2114
  -6025699.08248  -4794200.92246  20856605.5864                   20856604.1414
  -6903310.83646  -5371646.16043  23332144.1804                   23332145.0704
 -19350912.37948 -15061687.37146  20751859.4844                   20751855.5634
 11  7 26  1 33  0.0000000  0  7G10G17G12G09G04G27G02
 -17353322.93048 -13507887.33246  21226158.6484                   21226157.5394
  -6924758.91847  -5384659.34845  22691191.0554                   22691189.6454
 -13904669.00447 -10826282.38746  22184704.4694                   22184702.2854
  -4453590.74247  -3462592.13744  22981296.9224                   22981296.8244
  -5944739.55948  -4731115.57846  20872011.3204                   20872009.8954
  -6828045.05546  -5312997.54343  23346467.0784                   23346468.2584
 -19353818.94948 -15063952.21546  20751306.7894                   20751302.9024
 11  7 26  1 33 30.0000000  0  7G10G17G12G09G04G27G02
 -17376437.24248 -13525898.43046  21221760.5944                   21221758.7814
  -6858089.12947  -5332708.87945  22703877.0944                   22703876.5824
 -13964501.98447 -10872905.41845  22173317.6094                   22173316.2854
  -4368735.84847  -3396471.45344  22997443.6954                   22997444.4064
  -5863473.97748  -4667791.74246  20887475.9694                   20887474.6604
  -6752538.60946  -5254161.41043  23360835.7664                   23360836.5594
 -19356357.68048 -15065930.45346  20750823.5704                   20750819.7344
 11  7 26  1 34  0.0000000  0  7G10G17G12G09G04G27G02
 -17398996.19948 -13543476.78946  21217467.3594                   21217466.0824
  -6791290.95747  -5280658.36745  22716588.9064                   22716588.3754
 -14024032.43747 -10919292.69145  22161989.7974                   22161987.9344
  -4283524.44947  -3330072.99244  23013659.0234                   23013659.5044
  -5781918.44148  -4604241.97746  20902995.2034                   20902994.3404
  -6676807.94946  -5195150.60243  23375246.1024                   23375246.5744
 -19358543.29748 -15067633.52346  20750407.6174                   20750403.8364
 11  7 26  1 34 30.0000000  0  7G10G17G12G09G04G27G02
 -17420986.66048 -13560612.15246  21213282.3674                   21213281.2344
  -6724352.91447  -5228498.87545  22729326.3284                   22729325.8914
 -14083246.97347 -10965433.79746  22150721.9924                   22150720.1684
  -4197948.80947  -3263390.73844  23029944.5784                   23029944.1524
  -5700064.32848  -4540459.54346  20918571.3134                   20918570.8014
  -6600844.69146  -5135958.54343  23389701.7894                   23389702.1174
 -19360365.44548 -15069053.35947  20750061.0554                   20750056.8794
 11  7 26  1 35  0.0000000  0  7G10G17G12G09G04G27G02
 -17442401.71948 -13577299.16046  21209207.1884                   21209206.1294
  -6657269.27347  -5176225.93445  22742091.9224                   22742090.6134
 -14142137.69147 -11011322.61345  22139515.3444                   22139513.6214
  -4112006.95347  -3196423.05144  23046298.6954                   23046298.2194
  -5617908.46948  -4476441.99246  20934205.3834                   20934204.0314
  -6524646.18746  -5076583.12142  23404202.2814                   23404202.7854
 -19361819.53948 -15070186.40246  20749784.1804                   20749780.3984
 11  7 26  1 35 30.0000000  0  7G10G17G12G09G04G27G02
 -17463249.45348 -13593544.09846  21205240.3444                   21205238.5434
  -6590049.72747  -5123847.10245  22754884.0314                   22754882.5394
 -14200712.42647 -11056965.19145  22128368.6484                   22128366.3444
  -4025712.62547  -3129180.73044  23062719.2814                   23062720.3164
  -5535463.91048  -4412199.48846  20949894.2894                   20949893.1024
  -6448225.80146  -5017034.85943  23418745.3524                   23418745.3014
 -19362916.54748 -15071041.18446  20749575.3134                   20749571.7344
 11  7 26  1 36  0.0000000  0  7G10G17G12G09G04G27G02
 -17483527.30948 -13609344.98046  21201381.6484                   21201379.8164
  -6522693.17647  -5071361.50845  22767701.3674                   22767700.0084
 -14258968.20347 -11102359.23445  22117282.7424                   22117280.7274
  -3939068.46547  -3061665.83244  23079208.1804                   23079207.5434
  -5452732.16448  -4347733.19546  20965637.4454                   20965636.4414
  -6371585.52346  -4957315.26242  23433328.8984                   23433328.7384
 -19363656.33248 -15071617.61746  20749434.6884                   20749430.4654
 11  7 26  1 36 30.0000000  0  7G10G17G12G09G04G27G02
 -17503235.75448 -13624702.17246  21197631.1484                   21197629.8244
  -6455201.40647  -5018770.51245  22780544.4304                   22780543.0204
 -14316904.69947 -11147504.46545  22106257.9144                   22106255.6214
  -3852080.24247  -2993882.85944  23095761.0554                   23095760.3404
  -5369717.99248  -4283046.83646  20981434.7114                   20981432.9494
  -6294730.52345  -4897428.32842  23447952.7734                   23447954.3014
 -19364042.01648 -15071918.13746  20749361.1174                   20749357.1564
 11  7 26  1 37  0.0000000  0  7G10G17G12G09G04G27G02
 -17522380.74648 -13639620.30146  21193987.8204                   21193986.6644
  -6387581.91047  -4966079.99645  22793411.6954                   22793411.3834
 -14374527.00847 -11192404.90646  22095292.6884                   22095290.5864
  -3764759.06647  -2925840.44944  23112377.4694                   23112377.0944
  -5286431.45748  -4218148.22746  20997283.9304                   20997282.0514
  -6217670.93746  -4837381.92642  23462618.5234                   23462618.1054
 -19364082.14848 -15071949.37946  20749353.3834                   20749349.1884
 11  7 26  1 37 30.0000000  0  7G10G17G12G09G04G27G02
 -17540955.75448 -13654094.30146  21190452.8444                   21190451.3484
  -6319829.48847  -4913285.91845  22806304.8674                   22806304.5204
 -14431828.32047 -11237055.21945  22084388.3914                   22084386.0824
  -3677103.75447  -2857537.66444  23129057.2504                   23129058.1884
  -5202870.26648  -4153035.60546  21013184.7424                   21013183.3874
  -6140404.96946  -4777174.70342  23477321.9144                   23477320.6524
 -19363772.77048 -15071708.29746  20749412.3284                   20749408.6604
 11  7 26  1 38  0.0000000  0  7G10G17G12G09G04G27G02
 -17558956.96548 -13668121.18446  21187027.2424                   21187026.0664
  -6251941.91047  -4860386.52745  22819223.5084                   22819222.2074
 -14488803.60947 -11281451.48446  22073546.6724                   22073543.9844
  -3589115.53947  -2788975.46144  23145801.4924                   23145801.6604
  -5119034.80148  -4087709.28146  21029138.1644                   21029136.6254
  -6062933.51645  -4716807.52042  23492063.5784                   23492063.7034
 -19363112.84448 -15071194.07446  20749538.0234                   20749533.7344
 11  7 26  1 38 30.0000000  0  7G10G17G12G09G04G27G02
 -17576383.01248 -13681699.88346  21183711.4924                   21183709.7854
  -6183918.96547  -4807381.64145  22832168.3524                   22832165.8244
 -14545451.39547 -11325592.57846  22062767.2424                   22062764.4654
  -3500798.48847  -2720156.98044  23162607.8204                   23162607.2624
  -5034928.09448  -4022171.58646  21045142.6954                   21045141.2934
  -5985260.11345  -4656282.82042  23506844.1024                   23506845.6294
 -19362103.34048 -15070407.42246  20749729.8524                   20749725.9144
 11  7 26  1 39  0.0000000  0  7G10G17G12G09G04G27G02
 -17593226.45348 -13694824.60546  21180506.1414                   21180505.2154
  -6115754.67247  -4754266.62945  22845138.8984                   22845138.0634
 -14601763.53147 -11369472.12945  22052050.8364                   22052048.1684
  -3412150.55547  -2651080.70744  23179476.1954                   23179475.7344
  -4950546.76248  -3956419.91446  21061199.8594                   21061198.6294
  -5907381.57845  -4595598.23842  23521665.0634                   23521665.7424
 -19360739.58248 -15069344.73046  20749989.5234                   20749985.5824
 11  7 26  1 39 30.0000000  0  7G10G17G12G09G04G27G02
 -17609493.66048 -13707500.34046  21177410.7664                   21177409.3874
  -6047456.49247  -4701047.27345  22858136.0234                   22858134.2544
 -14657745.42647 -11413094.33246  22041397.9224                   22041395.6054
  -3323182.95747  -2581755.34444  23196406.4614                   23196407.2544
  -4865901.43048  -3890462.52346  21077307.5164                   21077305.8714
  -5829308.77046  -4534762.37142  23536521.6564                   23536521.2974
 -19359030.57848 -15068012.99646  20750314.3444                   20750310.6374
 11  7 26  1 40  0.0000000  0  7G10G17G12G09G04G27G02
 -17625178.21148 -13719722.02746  21174426.0554                   21174424.7274
  -5979019.66847  -4647719.88745  22871159.4384                   22871157.8164
 -14713389.86347 -11456453.60946  22030809.2194                   22030806.9264
  -3233894.66447  -2512180.13344  23213398.0004                   23213398.6054
  -4780989.85548  -3824297.67646  21093465.6884                   21093464.4734
  -5751040.05545  -4473773.92642  23551413.8524                   23551416.7274
 -19356972.39848 -15066409.17647  20750706.3444                   20750702.1884
 11  7 26  1 40 30.0000000  0  6G10G17G12G09G04G02
 -17640280.71148 -13731490.18446  21171552.1724                   21171550.5634
  -5910445.89147  -4594285.78145  22884207.9534                   22884206.9574
 -14768697.05147 -11499550.09446  22020284.8364                   22020282.3444
  -3144291.34447  -2442359.43745  23230449.0944                   23230449.1214
  -4695816.57848  -3757928.91846  21109674.0234                   21109672.9104
 -19354568.14548 -15064535.70746  20751163.8444                   20751159.7814
 11  7 26  1 41  0.0000000  0  7G10G17G12G09G04G27G02
 -17654807.24648 -13742809.53546  21168787.4924                   21168786.8674
  -5841742.41447  -4540750.60245  22897281.9844                   22897280.3364
 -14823671.89147 -11542387.61746  22009822.8284                   22009820.6884
  -3054384.24247  -2372302.00445  23247557.7584                   23247557.3954
  -4610391.78148  -3691364.16046  21125929.4384                   21125928.1804
                                  23581310.648
 -19351826.43048 -15062399.28547  20751685.7734                   20751681.4574
 11  7 26  1 41 30.0000000  0  7G10G17G12G09G04G27G02
 -17668742.37548 -13753668.04346  21166135.7584                   21166134.9774
  -5772894.90647  -4487103.16845  22910383.7894                   22910381.4844
 -14878298.13347 -11584953.50446  21999427.8524                   21999425.7934
  -2964162.79347  -2301999.60944  23264726.4064                   23264726.0314
  -4524703.63748  -3624594.19946  21142235.5004                   21142234.4694
  -5515106.344 5                  23596310.773
 -19348734.03548 -15059989.60546  20752274.0944                   20752270.2664
 11  7 26  1 42  0.0000000  0  7G10G17G12G09G04G27G02
 -17682084.73448 -13764064.65246  21163596.8444                   21163595.2704
  -5703903.32047  -4433343.48445  22923512.1094                   22923510.5594
 -14932573.69547 -11627246.16446  21989099.7814                   21989097.6994
  -2873630.73847  -2231455.19145  23281954.1724                   23281954.2274
  -4438755.05948  -3557621.30546  21158590.9534                   21158589.8634
  -5436086.410 5                  23611348.414
 -19345291.96148 -15057307.43046  20752928.8284                   20752925.3094
 11  7 26  1 42 30.0000000  0  7G10G17G12G09G04G27G02
 -17694837.17648 -13774001.57446  21161170.0784                   21161168.3134
  -5634771.82047  -4379474.78545  22936667.0084                   22936665.3594
 -14986500.65647 -11669267.16846  21978837.6954                   21978835.8984
  -2782796.08647  -2160674.96945  23299239.4064                   23299239.7344
  -4352553.12948  -3490451.00046  21174994.3054                   21174993.4224
  -5356885.70715                  23626420.383
 -19341505.93048 -15054357.27046  20753649.4694                   20753645.6484
 11  7 26  1 43  0.0000000  0  7G10G17G12G09G04G27G02
 -17707000.52748 -13783479.47746  21158855.7814                   21158854.3674
  -5565502.20747  -4325498.50445  22949849.0084                   22949847.7774
 -15040078.94947 -11711016.48846  21968642.2274                   21968640.0474
  -2691664.66847  -2089663.50845  23316581.3284                   23316581.5944
  -4266102.39548  -3423086.83246  21191445.4534                   21191444.0634
                                  23641525.633
 -19337379.19948 -15051141.60946  20754434.6094                   20754430.1914
 11  7 26  1 43 30.0000000  0  7G10G17G12G09G04G27G02
 -17718577.05548 -13792500.10246  21156652.6644                   21156651.2274
  -5496097.62947  -4271417.03145  22963056.3364                   22963055.2074
 -15093309.75047 -11752495.02046  21958512.9144                   21958510.4574
  -2600243.58647  -2018426.29744  23333978.1954                   23333978.3164
  -4179408.85548  -3355533.46546  21207943.1884                   21207942.0124
  -5197963.71115                  23656661.453
 -19332915.93748 -15047663.70346  20755284.3444                   20755279.9024
 11  7 26  1 44  0.0000000  0  7G10G17G12G09G04G27G02
 -17729562.18048 -13801059.89846  21154562.0634                   21154560.6334
  -5426555.02047  -4217228.01245  22976289.1254                   22976288.3524
 -15146187.81647 -11793698.72346  21948450.9384                   21948448.2304
  -2508533.62947  -1946964.02044  23351429.8754                   23351430.0594
  -4092472.16048  -3287790.62946  21224486.7114                   21224485.9534
  -5118248.72715                  23671832.094
 -19328114.58648 -15043922.35546  20756197.5314                   20756193.4494
 11  7 26  1 44 30.0000000  0  7G10G17G12G09G04G27G02
 -17739956.50048 -13809159.32446  21152584.1564                   21152582.5004
  -5356875.70347  -4162932.46145  22989549.3524                   22989546.8554
 -15198712.41047 -11834626.98446  21938455.6804                   21938452.7194
  -2416540.05547  -1875280.77344  23368935.5234                   23368935.7304
  -4005296.40248  -3219861.49646  21241075.6724                   21241074.6684
  -5038369.40214                  23687033.344
 -19322977.74248 -15039919.59446  20757175.3054                   20757171.2424
 11  7 26  1 45  0.0000000  0  7G10G17G12G09G04G27G02
 -19325170.36348 -15044390.85946  20850927.5944
                                  20850926.6174
  -6862468.12147  -5336121.37945  22703044.7424                   22703042.3954
 -16826294.56247 -13102872.81646  21628737.0394                   21628734.9104
  -3899675.20746  -3030970.55943  23086704.8914                   23086703.9774
  -5493292.66048  -4379339.12146  20957919.3914   20957917.7114   23402473.180
 -20892917.83648 -16263249.51646  20458425.3444                   20458421.2584
 11  7 26  1 45 30.0000000  0  8G10G17G12G05G09G04G27G02
 -19334359.57848 -15051551.25446  20849179.1254
                                  20849177.7664
  -6792494.96547  -5281596.85245  22716360.0634                   22716359.0164
 -16878086.18747 -13143229.91446  21618881.5704   21618879.1954   22595226.789
  -3807106.27746  -2958838.93443  23104318.8674                   23104320.1024
  -5405626.92248  -4311028.18046  20974601.6644                   20974600.0354
  -6453518.20715                                                  23417739.563
 -20887093.78548 -16258711.27047  20459533.9384                   20459529.9844
 11  7 26  1 46  0.0000000  0  8G10G17G12G05G09G04G27G02
 -19342955.20748 -15058249.09046  20847543.2974
                                  20847542.2154
  -6722385.49247  -5226966.12145  22729702.1414                   22729699.8444
 -16929518.54747 -13183307.08246  21609093.9774   21609091.9104
  -5092850.69915                  22579694.773
  -3714265.52046  -2886495.49643  23121986.4224                   23121987.0944
  -5317730.44548  -4242537.44946  20991327.4924   20991326.0204   23433031.789
 -20880938.37148 -16253914.81647  20460704.9844                   20460700.7464
 11  7 26  1 46 30.0000000  0  8G10G17G12G05G09G04G27G02
 -19350945.05148 -15064474.89146  20846022.9384                   20846022.0274
  -6652128.53147  -5172220.46545  22743070.8754                   22743069.5664
 -16980578.85247 -13223094.30146  21599377.6564                   21599375.7344
  -5174279.12115                  22564199.656
  -3621146.05546  -2813934.89843  23139707.6644                   23139707.1414
  -5229595.10548  -4173860.57846  21008099.1804                   21008097.6524
  -6292608.31315                                                  23448361.930
 -20874441.99248 -16248852.68747  20461941.2894                   20461936.9144
 11  7 26  1 47  0.0000000  0  8G10G17G12G05G09G04G27G02
 -19358335.48848 -15070233.64146  20844616.3754                   20844615.2504
  -6581730.87947  -5117365.16845  22756466.8524                   22756465.7584
 -17031271.87147 -13262595.33646  21589731.0864                   21589729.0314
  -5255515.066 5                  22548740.195
  -3527758.95346  -2741165.80543  23157477.4924                   23157478.7814
                  -5141230.90248
  -4105005.37146                  21024914.3284   21024913.8134   23463713.016
 -20867612.96148 -16243531.33247  20463240.8134                   20463237.0234
 11  7 26  1 47 30.0000000  0  8G10G17G12G05G09G04G27G02
 -19365118.70348 -15075519.21946  20843325.7424                   20843323.5664
  -6511185.98847  -5062395.15245  22769891.1804                   22769890.6684
 -17081589.23847 -13301803.66046  21580155.9924                   21580154.1374
  -5336549.230 5                  22533319.242
  -3434101.50046  -2668186.00042  23175300.9614                   23175300.6954
                  -5052633.87148
  -4035968.72346                  21041773.6884   21041772.8634   23479094.156
 -20860446.08648 -16237946.72347  20464604.7274                   20464600.7774
 11  7 26  1 48  0.0000000  0  8G25G10G17G12G05G09G04G02
  -4898168.29315                  24503134.563
 -19371291.48848 -15080329.12546  20842150.9534                   20842149.4574
  -6440491.34447  -5007308.46545  22783343.8914                   22783342.8484
 -17131526.34847 -13340715.68746  21570653.2344                   21570650.7424
  -5417376.965 5                  22517938.766
  -3340174.930 5                  23193173.867
  -4963804.00048  -3966750.66046  21058677.8444                   21058676.8054
 -20852940.30548 -16232098.03947  20466032.3834                   20466028.6954
 11  7 26  1 48 30.0000000  0  8G25G10G17G12G05G09G04G02
  -4982609.344 6                  24487067.641
 -19376857.69548 -15084666.38746  20841091.7344                   20841090.2664
  -6369652.04747  -4952109.01645  22796824.1024                   22796823.0634
 -17181085.92647 -13379333.53546  21561221.9924                   21561219.9454
  -5498000.484 6                  22502596.789
  -3245988.148 5                  23211096.641
  -4874748.81348  -3897357.01246  21075624.1644                   21075622.6644
 -20845101.52748 -16225989.89146  20467524.4064                   20467520.5784
 11  7 26  1 49  0.0000000  0  8G25G10G17G12G05G09G04G02
  -5066942.813 5                  24471018.250
 -19381822.29748 -15088534.87146  20840147.2664                   20840145.7424
  -6298673.55947  -4896801.12945  22810331.0474                   22810329.9304
 -17230271.50847 -13417659.94946  21551862.2504                   21551860.4494
  -5578422.95346  -4184292.81353  22487292.3284                   22487292.6484
  -3151550.465 5                  23229070.070
  -4785476.99648  -3827794.55546  21092612.4454                   21092610.1884
 -20836936.98048 -16219627.87946  20469078.1254                   20469074.2234
 11  7 26  1 49 30.0000000  0  8G25G10G17G12G05G09G04G02
  -5151165.750 6                  24454990.656
 -19386183.41848 -15091933.11746  20839317.2274                   20839315.2974
  -6227554.60547  -4841383.79745  22823864.1414                   22823863.5474
 -17279080.71547 -13455693.08246  21542574.4224                   21542572.1134
  -5658640.32446  -4246799.76243  22472027.9844                   22472028.1994
  -3056864.953 5                  23247085.727
  -4695990.09448  -3758064.48846  21109640.8594                   21109639.1914
 -20828447.03148 -16213012.30946  20470693.5474                   20470689.5634
 11  7 26  1 50  0.0000000  0  8G25G10G17G12G05G09G04G02
  -5235273.44546  -4071680.33253  24438986.5634                   24438987.6644
 -19389937.75448 -15094858.53546  20838602.6884                   20838600.7274
  -6156292.66447  -4785855.03545  22837425.1804                   22837424.0314
 -17327508.53147 -13493429.01246  21533358.6884                   21533356.8484
  -5738648.18446  -4309143.44944  22456802.4844                   22456803.0664
  -2961932.773 5                  23265151.000
  -4606288.03148  -3688166.77746  21126710.8364                   21126709.5354
 -20819630.43448 -16206142.19546  20472371.5864                   20472367.2974
 11  7 26  1 50 30.0000000  0  8G25G10G17G12G05G09G04G02
  -5319262.40646  -4137126.19143  24423004.0164                   24423006.2544
 -19393082.65648 -15097309.05546  20838004.3054                   20838002.8554
  -6084886.34847  -4730213.76645  22851013.9614                   22851012.4654
 -17375551.00447 -13530864.69146  21524216.8594                   21524214.3594
  -5818442.43046  -4371320.68044  22441618.5314                   22441618.5164
  -2866756.578 5                  23283262.516
  -4516372.13348  -3618102.42246  21143821.5004                   21143820.0744
 -20810486.87948 -16199017.31247  20474111.3754                   20474107.0084
 11  7 26  1 51  0.0000000  0  8G25G10G17G12G05G09G04G02
  -5403130.52347  -4202477.87544  24407044.4454                   24407046.7074
 -19395617.47748 -15099284.20346  20837521.7734                   20837520.3484
  -6013335.52047  -4674459.88745  22864629.1174                   22864628.3444
 -17423206.82847 -13567999.06646  21515147.8444                   21515145.5784
  -5898020.23447  -4433329.27344  22426474.5474                   22426474.4184
  -2771340.059 6                  23301421.180
  -4426244.79748  -3547873.30946  21160971.7974                   21160970.3984
 -20801017.72348 -16191638.75047  20475913.1254                   20475909.0594
 11  7 26  1 51 30.0000000  0  8G25G10G17G12G05G09G04G02
  -5486875.78547  -4267733.81644  24391108.3754                   24391110.2704
 -19397541.17648 -15100783.17246  20837156.0784                   20837154.4844
  -5941639.85247  -4618593.17245  22878272.5234                   22878272.0634
 -17470473.64147 -13604830.32446  21506153.5004                   21506151.2154
  -5977378.98846  -4495167.16045  22411373.0234                   22411372.1644
  -2675687.098 5                  23319622.031
  -4335908.80948  -3477481.60946  21178161.7974                   21178160.7814
 -20791224.06248 -16184007.31647  20477776.7114                   20477772.7384
 11  7 26  1 52  0.0000000  0  8G25G10G17G12G05G09G04G02
  -5570495.30947  -4332891.77344  24375195.3284                   24375198.1054
 -19398852.72747 -15101805.14146  20836906.1254                   20836904.6254
  -5869798.65246  -4562612.99645  22891943.2344                   22891942.5084
 -17517348.64148 -13641356.25046  21497233.5704                   21497231.2344
  -6056515.75447  -4556832.07845  22396313.8594                   22396312.5274
                                  23337865.961
  -4245365.97348  -3406928.74246  21195391.1884                   21195390.5984
 -20781106.78548 -16176123.69947  20479702.6254                   20479698.2234
 11  7 26  1 52 30.0000000  0  8G25G10G17G12G05G09G04G02
  -5653976.93047  -4397942.27744  24359309.9384                   24359311.9224
 -19399541.07848 -15102341.49246  20836775.2664                   20836773.4454
  -5797801.85947  -4506511.61745  22905644.2194                   22905642.6724
 -17563819.60247 -13677567.34446  21488390.3284                   21488387.7974
  -6135417.44947  -4618313.80545  22381299.3284                   22381298.2304
  -2483672.28515                  23356161.141
  -4154608.80547  -3336208.84446  21212662.0474                   21212660.8164
 -20770657.05948 -16167981.03947  20481690.7194                   20481686.8634
 11  7 26  1 53  0.0000000  0  8G25G10G17G12G05G09G04G02
  -5737328.92247  -4462891.77044  24343449.0234                   24343450.4774
 -19399615.98848 -15102399.83246  20836760.9304                   20836759.2074
  -5725659.42647  -4450296.74644  22919372.0554                   22919370.6684
 -17609894.92247 -13713470.15646  21479622.0864                   21479619.6294
  -6214092.08647  -4679618.61745  22366328.0084                   22366326.2624
  -2387320.398 5                  23374498.547
  -4063650.14148  -3265331.93046  21229971.1094                   21229969.7274
 -20759886.54348 -16159588.39846  20483739.9774                   20483736.2774
 11  7 26  1 53 30.0000000  0  7G25G10G17G12G05G04G02
  -5820541.41847  -4527732.57844  24327613.9384                   24327615.8204
 -19399068.57048 -15101973.22746  20836865.2034                   20836863.3444
  -5653363.42247  -4393962.19145  22933129.4384                   22933127.9024
 -17655564.80547 -13749057.02746  21470931.2894                   21470928.1414
  -6292529.23847  -4740738.35545  22351401.5314                   22351400.4844
  -3972484.84448  -3194294.02046  21247319.6954                   21247318.4614
 -20748788.98048 -16150940.92246  20485851.7664                   20485848.0594
 11  7 26  1 54  0.0000000  0  7G25G10G17G12G05G04G02
  -5903616.14147  -4592466.09843  24311805.5554                   24311807.3324
 -19397902.30548 -15101064.42246  20837086.6414                   20837085.1684
  -5580918.15247  -4337511.32844  22946915.5554                   22946914.3914
 -17700831.32847 -13784329.59046  21462317.2194                   21462314.9804
  -6370730.18447  -4801674.06246  22336520.3524                   22336519.2424
  -3881119.37148  -3123100.11346  21264706.0474                   21264704.4064
 -20737369.29348 -16142042.44946  20488024.9224                   20488021.0664
 11  7 26  1 54 30.0000000  0  7G25G10G17G12G05G04G02
  -5986545.00047  -4657086.00443  24296024.6644                   24296025.5514
 -19396110.42248 -15099668.11346  20837427.9534                   20837426.5354
  -5508317.16847  -4280939.13344  22960731.0634                   22960730.0394
 -17745686.19147 -13819281.37146  21453782.0864                   21453779.9774
  -6448686.38347  -4862419.05146  22321685.5784                   22321685.0904
  -3789550.04348  -3051747.36346  21282131.0084                   21282129.5354
 -20725622.73048 -16132889.26647  20490260.6174                   20490256.1334
 11  7 26  1 55  0.0000000  0  8G25G10G17G12G05G04G27G02
  -6069331.91447  -4721595.25843  24280270.0164                   24280271.7464
 -19393698.98848 -15097789.05146  20837886.5314                   20837884.8164
  -5435566.43447  -4224250.23444  22974575.2584                   22974573.5124
 -17790133.40647 -13853915.50446  21445323.9694                   21445321.9454
  -6526401.53147  -4922976.20346  22306897.2894                   22306896.3984
  -3697785.74248  -2980242.69946  21299593.0554                   21299591.5354
  -4638595.86315                  23712941.414
 -20713556.92648 -16123487.32046  20492556.4144                   20492552.0554
 11  7 26  1 55 30.0000000  0  8G25G10G17G12G05G04G27G02
  -6151974.83647  -4785992.34443  24264544.0944                   24264545.1374
 -19390667.18748 -15095426.56646  20838463.7894                   20838461.7934
  -5362666.02047  -4167444.69944  22988447.6724                   22988445.5784
 -17834171.43047 -13888230.78946  21436943.7584                   21436941.6804
  -6603872.89547  -4983343.40246  22292154.5084                   22292154.6804
  -3605829.01647  -2908588.10546  21317091.4304                   21317090.0274
  -4555710.773 5                  23728715.219
 -20701173.24648 -16113837.67247  20494913.0084                   20494908.5704
 11  7 26  1 56  0.0000000  0  9G25G10G17G12G05G09G04G27G02
  -6234471.74646  -4850275.64143  24248844.2274                   24248846.6844
 -19387014.60948 -15092580.38746  20839158.9454                   20839157.0944
  -5289615.81347  -4110522.45744  23002348.1484                   23002346.1914
 -17877798.08247 -13922225.53546  21428641.5784                   21428638.8674
  -6681098.26247  -5043518.92646  22277459.3594                   22277458.7234
                                  23485394.375
  -3513682.56648  -2836785.68846  21334626.5394                   21334625.5084
  -4472723.27015                  23744507.531
 -20688472.94948 -16103941.32846  20497329.5944                   20497325.3984
 11  7 26  1 56 30.0000000  0  9G25G10G17G12G05G09G04G27G02
  -6316816.68046  -4914440.43443  24233175.1954                   24233176.2114
 -19382737.00848 -15089247.16446  20839972.6334                   20839970.9884
  -5216412.19147  -4053480.64844  23016279.1564                   23016278.1604
 -17921007.67247 -13955895.29746  21420419.1884                   21420416.8204
  -6758071.21147  -5103497.74645  22262811.2274                   22262810.7934
                                  23504018.344
  -3421345.16848  -2764834.44946  21352197.7424                   21352196.6174
                                  23760319.766
 -20675454.07448 -16093796.71946  20499807.0004                   20499802.7894
 11  7 26  1 57  0.0000000  0  8G25G10G17G12G05G09G04G02
  -6399007.31347  -4978485.09043  24217535.1174                   24217535.6954
 -19377833.50848 -15085426.22346  20840905.7664                   20840903.8674
  -5143054.66046  -3996318.94944  23030237.9064                   23030237.2814
 -17963798.22347 -13989238.53946  21412276.4534                   21412274.6724
  -6834789.27347  -5163277.98045  22248212.5234                   22248211.3364
                                  23522675.688
  -3328819.05948  -2692736.19946  21369804.9144                   21369803.0354
 -20662117.92648 -16083404.89547  20502344.7974                   20502341.0824
 11  7 26  1 57 30.0000000  0  8G25G10G17G12G05G09G04G02
  -6481040.20346  -5042406.78544  24201924.3834                   24201925.4024
 -19372302.45748 -15081116.28546  20841958.5944                   20841956.6254
  -5069541.89846  -3939036.29744  23044227.4694                   23044226.0554
 -18006166.24647 -14022252.53946  21404214.0864                   21404212.3014
  -6911248.21547  -5222856.29745  22233662.6954                   22233661.3484
                                  23541379.453
  -3236105.51248  -2620491.88745  21387447.3524                   21387446.2664
 -20648464.23448 -16072765.62547  20504943.1804                   20504938.9534
 11  7 26  1 58  0.0000000  0  7G25G10G17G12G05G04G02
  -6562918.45347  -5106207.94944  24186343.5084                   24186345.2544
 -19366148.86348 -15076321.25046  20843129.3134                   20843127.7424
  -4995879.27146  -3881636.84144  23058244.1094                   23058243.1764
 -18048115.25047 -14054940.03546  21396231.0864                   21396229.7274
  -6987450.90647  -5282234.94145  22219162.0474                   22219160.1254
  -3143212.19548  -2548107.48846  21405124.8914                   21405123.6914
 -20634499.66448 -16061884.12547  20507600.3914                   20507596.8524
 11  7 26  1 58 30.0000000  0  7G25G10G17G12G05G04G02
  -6644637.81346  -5169885.35244  24170792.4694                   24170794.6764
 -19359370.19548 -15071039.14846  20844419.5314                   20844417.3954
  -4922064.59847  -3824118.87944  23072291.0634                   23072290.1454
 -18089641.03548 -14087297.75446  21388329.1564                   21388326.3134
  -7063392.60547  -5341410.22745  22204709.8444                   22204708.3594
  -3050139.59048  -2475583.38346  21422835.7504                   21422834.9614
 -20620223.71548 -16050759.97746  20510316.8914                   20510312.6214
 11  7 26  1 59  0.0000000  0  8G25G10G17G12G05G04G27G02
  -6726190.46546  -5233432.87144  24155274.1334                   24155275.6954
 -19351960.27048 -15065265.14846  20845829.1724                   20845827.3484
  -4848092.10547  -3766477.99245  23086367.6024                   23086366.3674
 -18130736.13348 -14119319.90646  21380508.9924                   21380506.6524
  -7139065.35247  -5400375.93045  22190310.1484                   22190308.4384
  -2956884.64848  -2402917.20346  21440581.3984                   21440580.1374
                                  23839647.617
 -20605631.98048 -16039389.78146  20513093.4454                   20513089.4344
 11  7 26  1 59 30.0000000  0  8G25G10G17G12G05G04G27G02
  -6807576.30946  -5296850.33644  24139786.1724                   24139788.6524
 -19343920.96548 -15059000.73446  20847358.9774                   20847357.2424
  -4773963.84446  -3708715.72745  23100473.7344                   23100472.7034
 -18171400.74248 -14151006.58646  21372771.0554                   21372768.6524
  -7214468.50047  -5459131.54345  22175961.4304                   22175959.9304
  -2863451.75048  -2330112.36346  21458361.2034                   21458360.1724
  -4591016.961 5                  23855564.828
 -20590727.82448 -16027776.14146  20515929.8914                   20515925.8404
 11  7 26  2  0  0.0000000  0  8G25G10G17G12G05G04G27G02
  -6888791.94547  -5360135.19544  24124332.8984                   24124334.2344
 -19335250.82048 -15052244.76646  20849008.8524                   20849007.4384
  -4699678.22346  -3650830.82844  23114609.2114                   23114609.0594
 -18211631.39548 -14182355.12546  21365114.7274                   21365113.1294
  -7289598.38347  -5517674.19145  22161664.4304                   22161663.4104
  -2769842.29348  -2257169.91046  21476174.2814                   21476173.3984
  -4507290.172 5                  23871497.391
 -20575511.69548 -16015919.38747  20518825.3134                   20518821.8134
 11  7 26  2  0 30.0000000  0  8G25G10G17G12G05G04G27G02
  -6969833.48047  -5423284.43744  24108910.7734                   24108912.3244
 -19325947.87148 -15044995.69146  20850779.2424                   20850776.8284
  -4625233.91346  -3592822.29944  23128775.2344                   23128775.9344
 -18251425.12948 -14213363.21546  21357542.6954                   21357540.3634
  -7364450.81347  -5576000.66445  22147421.0084                   22147419.8754
  -2676057.12548  -2184090.55146  21494021.4304                   21494020.1884
  -4423481.285 5                  23887445.484
 -20559983.17648 -16003819.21547  20521780.5944                   20521776.5434
 11  7 26  2  1  0.0000000  0  8G25G10G17G12G05G04G27G02
  -7050701.68847  -5486298.56644  24093521.8204                   24093523.3444
 -19316014.57048 -15037255.45746  20852669.3284                   20852667.2934
  -4550633.74247  -3534692.30144  23142972.5634                   23142971.4144
 -18290782.73448 -14244031.46146  21350053.0234                   21350050.8204
  -7439026.26247  -5634111.31646  22133229.3834                   22133228.1954
  -2582101.43848  -2110878.34046  21511900.5164                   21511899.4454
  -4339596.184 5                  23903407.234
 -20544146.54348 -15991478.96947  20524793.8984                   20524789.9614
 11  7 26  2  1 30.0000000  0  8G25G10G17G12G05G04G27G02
  -7131391.52747  -5549173.74644  24078167.2734                   24078168.7974
 -19305448.28148 -15029021.96546  20854680.0784                   20854678.0554
  -4475874.41847  -3476438.32445  23157198.6334                   23157197.6764
 -18329699.44548 -14274356.16046  21342647.7584                   21342645.0434
  -7513319.13747  -5692001.79345  22119091.6334                   22119091.1254
  -2487975.00848  -2037533.07445  21529812.4614                   21529810.7194
  -4255635.269 6                  23919385.414
 -20528000.43448 -15978897.58246  20527866.0394                   20527862.2664
 11  7 26  2  2  0.0000000  0  8G25G10G17G12G05G04G27G02
  -7211897.64547  -5611905.77044  24062847.3444                   24062848.5474
 -19294245.39548 -15020292.42646  20856811.8914                   20856809.8444
  -4400953.18847  -3418058.14145  23171456.0784                   23171454.5634
 -18368170.18048 -14304333.33646  21335327.3204                   21335324.6844
  -7587323.88347  -5749667.77345  22105009.5634                   22105008.3634
  -2393677.01648  -1964054.11346  21547756.4534                   21547756.1524
  -4171598.44946  -4001374.30152  23935375.5314                   23935378.4144
 -20511543.28148 -15966073.83247  20530997.9304                   20530993.8364
 11  7 26  2  2 30.0000000  0  8G25G10G17G12G05G04G27G02
  -7292227.66046  -5674500.57443  24047560.7424                   24047561.8674
 -19282415.77048 -15011074.52046  20859063.1094                   20859061.5274
  -4325879.32847  -3359559.09045  23185742.3444                   23185741.1844
 -18406202.77048 -14333969.11746  21328089.6644                   21328087.1914
  -7661048.16447  -5807115.18746  22090980.1644                   22090979.2664
  -2299219.78548  -1890451.06645  21565731.1094                   21565729.7344
  -4087498.61746  -3935842.04743  23951380.4534                   23951382.2814
 -20494786.38348 -15953016.48446  20534186.7584                   20534182.8754
 11  7 26  2  3  0.0000000  0  8G25G10G17G12G05G04G27G02
  -7372372.07047  -5736950.72344  24032309.3364                   24032311.1094
 -19269951.87148 -15001362.38346  20861434.7664                   20861432.9844
  -4250645.88747  -3300935.66045  23200058.2274                   23200057.4614
 -18443788.00047 -14363256.30146  21320937.1094                   21320934.9694
  -7734481.84847  -5864336.15246  22077006.9384                   22077004.7774
  -2204598.30948  -1816720.07445  21583736.8444                   21583734.4924
  -4003331.87546  -3870257.70743  23967397.3364                   23967399.4574
 -20477723.59848 -15939720.77747  20537433.6724                   20537429.5664
 11  7 26  2  3 30.0000000  0  8G25G10G17G12G05G04G27G02
  -7452334.35247  -5799258.97343  24017092.2664                   24017093.7384
 -19256859.25848 -14991160.33646  20863926.1954                   20863924.8094
  -4175258.15247  -3242191.99245  23214403.9774                   23214403.1604
 -18480929.75047 -14392197.90646  21313869.3444                   21313866.9494
  -7807627.98847  -5921333.04346  22063086.7584                   22063085.2194
  -2109820.89848  -1742867.55545  21601772.7424                   21601771.7464
  -3919106.88746  -3804627.95343  23983424.7424                   23983425.9844
 -20460362.08648 -15926192.30546  20540737.1804                   20540733.7704
 11  7 26  2  4  0.0000000  0  8G25G10G17G12G05G04G27G02
  -7532110.32047  -5861422.07043  24001911.5004                   24001912.2234
 -19243135.90648 -14980466.80946  20866537.8754                   20866535.9654
  -4099714.66847  -3183326.97344  23228779.2584                   23228778.3204
 -18517624.57848 -14420791.24646  21306886.7194                   21306883.9574
  -7880482.37547  -5978102.60546  22049222.9304                   22049221.7304
  -2014887.80548  -1668893.72345  21619837.5474                   21619837.1454
  -3834825.13346  -3738953.94944  23999463.1954                   23999464.4694
 -20442701.41448 -15912430.74646  20544097.9144                   20544093.6844
 11  7 26  2  4 30.0000000  0  8G25G10G17G12G05G04G27G02
  -7611689.25047  -5923431.60943  23986768.4924                   23986770.1294
 -19228773.47348 -14969275.28946  20869270.6414                   20869268.6054
  -4024006.52346  -3124333.62144  23243185.8284                   23243184.2854
 -18553861.81247 -14449028.02746  21299990.4774                   21299988.6684
  -7953033.95747  -6034636.24245  22035416.5234                   22035414.7894
  -1919793.21148  -1594794.06345  21637933.5234                   21637932.5594
  -3750481.03946  -3673231.35344  24015513.8674                   24015515.0354
 -20424734.78948 -15898430.78146  20547517.0704                   20547512.5124
 11  7 26  2  5  0.0000000  0  8G25G10G17G12G05G04G27G02
  -7691073.43047  -5985289.40244  23971662.8444                   23971663.6844
 -19213776.28148 -14957589.12946  20872124.5704                   20872122.5944
  -3948138.18447  -3065215.45345  23257623.5394                   23257622.6294
 -18589644.57847 -14476910.68046  21293181.8444                   21293179.4064
  -8025284.72347  -6090935.46546  22021667.6564                   22021666.1524
  -1824543.89848  -1520573.83646  21656058.6094                   21656059.3954
  -3666082.63746  -3607466.44143  24031573.0554                   24031575.3874
 -20406467.91448 -15884196.83647  20550993.2734                   20550989.3014
 11  7 26  2  5 30.0000000  0  8G25G10G17G12G05G04G27G02
  -7770258.93847  -6046992.42243  23956593.7504                   23956595.2504
 -19198142.54748 -14945406.97746  20875099.8914                   20875097.8324
  -3872107.94947  -3005971.12544  23272091.2504                   23272090.1414
 -18624969.07047 -14504436.22346  21286459.5004                   21286457.0704
  -8097230.59847  -6146997.10946  22007976.7734                   22007975.3134
  -1729140.37548  -1446233.43045  21674214.4224                   21674211.4694
  -3581631.05146  -3541660.09443  24047644.2504                   24047645.6414
 -20387900.44148 -15869728.65646  20554526.3984                   20554522.1884
 11  7 26  2  6  0.0000000  0  8G25G10G17G12G05G04G27G02
  -7849245.95347  -6108540.74244  23941563.0554                   23941565.1174
 -19181874.73448 -14932730.74246  20878195.1484                   20878193.2704
  -3795918.21547  -2946602.52344  23286589.9384                   23286588.7704
 -18659835.69148 -14531604.98446  21279824.7734                   21279822.0704
  -8168871.50047  -6202821.12146  21994343.9614                   21994342.6134
  -1633587.65248  -1371776.84445  21692397.4454                   21692396.0084
  -3497131.94946  -3475816.71144  24063724.1484                   24063725.6564
 -20369036.45348 -15855029.43046  20558116.1334                   20558111.8204
 11  7 26  2  6 30.0000000  0  8G25G10G17G12G05G04G27G02
  -7928025.46947  -6169927.37544  23926572.5394                   23926573.9964
 -19164966.50848 -14919555.48046  20881413.0554                   20881410.8874
  -3719562.13346  -2887104.31644  23301119.4614                   23301119.3094
 -18694236.42648 -14558410.72346  21273278.5944                   21273275.6214
  -8240198.17647  -6258400.26645  21980770.7114                   21980769.1724
  -1537881.33647  -1297200.50045  21710608.9844                   21710608.2034
  -3412581.50446  -3409933.33643  24079813.2664                   24079815.6884
 -20349870.64548 -15840095.02346  20561763.0784                   20561759.0554
 11  7 26  2  7  0.0000000  0  8G25G10G17G12G05G04G27G02
  -8006600.18447  -6231154.39844  23911620.0084                   23911621.2274
 -19147422.73847 -14905884.97346  20884751.0784                   20884749.1524
  -3643044.86746  -2827480.46544  23315680.8054                   23315680.0044
 -18728174.24647 -14584855.73046  21266820.1644                   21266817.4884
  -8311213.36347  -6313736.69945  21967257.2894                   21967255.1914
  -1442028.66848  -1222510.09445  21728848.5944                   21728846.6484
  -3327988.06646  -3344016.42643  24095911.7344                   24095912.8324
 -20330409.16848 -15824930.22746  20565466.6564                   20565462.6604
 11  7 26  2  7 30.0000000  0  8G25G10G17G12G05G04G27G02
  -8084968.31347  -6292220.42244  23896707.2814                   23896707.9734
 -19129243.95347 -14891719.66446  20888210.5864                   20888208.4024
  -3566366.60547  -2767731.18444  23330272.5164                   23330270.9384
 -18761647.79748 -14610938.98046  21260449.8284                   21260447.8524
  -8381914.80147  -6368828.66846  21953803.1094                   21953801.4774
  -1346032.67648  -1147708.04745  21747116.0314                   21747117.4414
  -3243355.05946  -3278068.66443  24112015.9844                   24112017.6844
 -20310654.24248 -15809536.78146  20569225.6724                   20569221.7034
 11  7 26  2  8  0.0000000  0  8G25G10G17G12G05G04G27G02
  -8163128.64547  -6353124.48044  23881834.0474                   23881833.7894
 -19110431.42647 -14877060.52346  20891790.0394                   20891788.3984
  -3489528.38347  -2707857.23044  23344894.2664                   23344893.6764
 -18794656.21148 -14636659.77046  21254168.3984                   21254166.0354
  -8452300.75047  -6423674.77346  21940408.5394                   21940407.1294
  -1249896.27348  -1072796.58245  21765411.1484                   21765408.7664
  -3158686.70745  -3212093.40243  24128128.2734                   24128129.1454
 -20290608.50448 -15793916.71146  20573040.3134                   20573036.5044
 11  7 26  2  8 30.0000000  0  8G25G10G17G12G05G04G27G02
  -8241071.32047  -6413858.91444  23867002.3444                   23867002.0864
 -19090977.69947 -14861901.75846  20895492.2504                   20895490.3874
  -3412522.81346  -2647852.89144  23359547.1804                   23359546.0314
 -18827190.27348 -14662010.93746  21247977.5394                   21247975.4654
  -8522361.75847  -6478267.69946  21927076.5004                   21927075.1844
  -1153614.56648   -997771.93445  21783732.9774                   21783732.5044
  -3073978.52745  -3146087.14542  24144246.8834                   24144249.0164
 -20270265.53948 -15778065.05146  20576911.4844                   20576907.4184
 11  7 26  2  9  0.0000000  0  8G25G10G17G12G05G04G27G02
  -8318802.45747  -6474428.45744  23852210.1804                   23852209.8204
 -19070891.35947 -14846250.05946  20899314.6804                   20899312.5784
  -3335357.87947  -2587724.37944  23374231.1254                   23374231.1054
 -18859256.62948 -14686997.67246  21241875.5474                   21241873.3204
  -8592103.41047  -6532611.78546  21913805.5784                   21913803.5944
  -1057198.25848   -922642.30145  21802079.6954                   21802079.3834
  -2989242.04345  -3080058.71542  24160372.0084                   24160372.4884
 -20249635.23848 -15761989.49246  20580837.4694                   20580833.5044
 11  7 26  2  9 30.0000000  0  8G25G10G17G12G05G04G27G02
  -8396316.35947  -6534828.77044  23837459.3914                   23837460.0704
 -19050169.27347 -14830102.95746  20903257.9614                   20903256.2194
  -3258030.21546  -2527469.04344  23388945.5784                   23388945.0164
 -18890850.49648 -14711616.22746  21235863.3364                   21235861.0904
  -8661520.02747  -6586702.59046  21900595.5004                   21900594.4694
   -960646.12148   -847406.90245  21820452.4844                   21820451.4384
  -2904476.81645  -3014007.84842  24176502.0004                   24176503.6254
 -20228715.34848 -15745688.27346  20584818.5474                   20584814.2424
 11  7 26  2 10  0.0000000  0  8G25G10G17G12G05G04G27G02
  -8473603.82047  -6595052.57844  23822751.0864                   23822752.9844
 -19028804.80147 -14813455.29346  20907323.3984                   20907321.8404
  -3180533.00847  -2467081.59044  23403694.5474                   23403692.4454
 -18921962.68448 -14735859.45346  21229942.9454                   21229940.3594
  -8730602.10947  -6640532.70746  21887449.6334                   21887448.4804
   -863953.36348   -772061.87945  21838853.6884                   21838853.4414
  -2819678.91446  -2947931.63742  24192639.0164                   24192640.6414
 -20207500.83648 -15729157.46546  20588855.0314                   20588850.6414
 11  7 26  2 10 30.0000000  0  8G25G10G17G12G05G04G27G02
  -8550669.18447  -6655103.38344  23808085.5944                   23808087.7114
 -19006804.81647 -14796312.43746  20911509.8674                   20911508.6954
  -3102872.93447  -2406567.24244  23418472.5084                   23418470.3714
 -18952598.76648 -14759731.68046  21224113.4064                   21224110.8984
  -8799353.79347  -6694105.38746  21874367.1414                   21874365.5234
   -767128.81648   -696614.18045  21857278.2114                   21857275.0744
  -2734858.19546  -2881837.61343  24208780.0864                   24208781.7584
 -20185999.77348 -15712403.35947  20592946.7114                   20592942.5474
 11  7 26  2 11  0.0000000  0  8G25G10G17G12G05G04G27G02
  -8627507.57047  -6714977.32444  23793464.0944                   23793465.8164
 -18984167.10547 -14778672.64146  20915817.7504                   20915815.8324
  -3025046.98046  -2345923.63744  23433281.1024                   23433279.5004
 -18982754.23048 -14783229.41046  21218374.9144                   21218372.4144
  -8867769.99647  -6747416.64146  21861347.7274                   21861346.3324
   -670172.61348   -621063.90245  21875728.1724                   21875728.7854
  -2650015.27746  -2815726.29343  24224925.6804                   24224927.3134
 -20164211.01648 -15695425.08647  20597092.7974                   20597089.4184
 11  7 26  2 11 30.0000000  0  8G25G10G17G12G05G04G27G02
  -8704115.97347  -6774672.03544  23778885.6884                   23778887.5904
 -18960891.30948 -14760535.62946  20920246.8524                   20920245.2114
  -2947054.51646  -2285150.28544  23448123.3754                   23448123.4804
 -19012426.19148 -14806350.39546  21212728.3204                   21212725.9184
  -8935847.65647  -6800464.09846  21848393.2424                   21848391.9384
   -573085.94948   -545411.92245  21894203.6644                   21894200.8094
  -2565152.49646  -2749599.51643  24241074.5234                   24241076.2624
 -20142134.95348 -15678222.92246  20601293.6174                   20601289.5784
 11  7 26  2 12  0.0000000  0  8G25G10G17G12G05G04G27G02
  -8780492.16847  -6834185.84444  23764352.5944                   23764354.0474
 -18936977.72748 -14741901.66046  20924797.3284                   20924795.6884
  -2868895.87147  -2224247.46144  23462996.5554                   23462995.5944
 -19041613.57848 -14829093.79346  21207173.8674                   21207172.1524
  -9003584.76247  -6853246.20346  21835502.5084                   21835501.6414
   -475871.25048   -469660.24645  21912703.1954                   21912700.9184
  -2480272.96546  -2683459.62144  24257226.5634                   24257228.6294
 -20119773.34448 -15660798.27046  20605549.3524                   20605544.7734
 11  7 26  2 12 30.0000000  0  8G25G10G17G12G05G04G27G02
  -8856633.39847  -6893516.57844  23749863.4224                   23749864.3134
 -18912426.21147 -14722770.57046  20929469.7504                   20929467.8714
  -2790570.44547  -2163214.66044  23477901.0784                   23477900.1954
 -19070314.21148 -14851457.89846  21201712.7974                   21201710.7114
  -9070978.44547  -6905760.69946  21822677.9304                   21822676.6334
   -378530.19548   -393810.04345  21931226.6174                   21931226.1954
  -2395379.15646  -2617308.60943  24273380.7034                   24273383.9614
 -20097127.28148 -15643151.97747  20609858.5704                   20609854.2424
 11  7 26  2 13  0.0000000  0  8G25G10G17G12G05G04G27G02
  -8932540.19147  -6952664.64144  23735418.2664                   23735419.3164
 -18887240.25848 -14703145.13746  20934262.0314                   20934260.5084
  -2712081.11747  -2102054.13744  23492837.8444                   23492836.3794
 -19098528.81648 -14873443.28946  21196343.7424                   21196341.5204
  -9138028.42647  -6958007.38746  21809919.1334                   21809917.4024
   -281067.97348   -317865.43845  21949772.1334                   21949770.5004
  -2310477.03546  -2551151.15644  24289537.8594                   24289539.8164
 -20074201.27748 -15625287.54747  20614221.0634                   20614216.8364
 11  7 26  2 13 30.0000000  0  8G25G10G17G12G05G04G27G02
  -9008208.60247  -7011626.96544  23721019.0944                   23721019.3094
 -18861418.68048 -14683024.40246  20939176.1174                   20939173.6174
  -2633426.18847  -2040764.59444  23507804.7194                   23507803.5514
 -19126254.47748 -14895047.68446  21191067.9454                   21191065.0394
  -9204730.98447  -7009983.34446  21797225.4774                   21797224.0864
   -183485.09048   -241826.83245  21968342.6804                   21968341.3984
  -2225568.06646  -2484988.36344  24305694.8444                   24305697.3134
 -20050995.01648 -15607204.72746  20618637.3204                   20618633.2464
 11  7 26  2 14  0.0000000  0  8G25G10G17G12G05G04G27G02
  -9083631.27047  -7070397.77044  23706666.7034                   23706667.4924
 -18834956.80148 -14662404.72746  20944211.1644                   20944209.8524
  -2554600.35947  -1979341.87544  23522804.8444                   23522802.9734
 -19153484.54348 -14916265.91046  21185885.7424                   21185883.6884
  -9271078.55547  -7061682.68046  21784599.7584                   21784598.3094
    -85778.73048   -165691.99245  21986935.1884                   21986932.2344
  -2140650.31646  -2418818.72744  24321854.4454                   24321857.1024
 -20027504.57848 -15588900.44947  20623106.9304                   20623103.3524
 11  7 26  2 14 30.0000000  0  8G25G10G17G12G05G04G27G02
  -9158804.71947  -7128974.40643  23692360.7584                   23692361.5314
 -18807854.18048 -14641285.78946  20949368.7034                   20949367.7464
  -2475602.65247  -1917785.23444  23537838.3364                   23537836.2854
 -19180216.44148 -14937095.94946  21180799.4534                   21180796.6764
  -9337067.74247  -7113102.77346  21772042.3914                   21772041.7544
     12050.20748    -89461.63345  22005550.7584                   22005550.1724
  -2055725.62546  -2352643.65644  24338015.4694                   24338016.7854
 -20003730.35548 -15570375.05947  20627631.4144                   20627627.2664
 11  7 26  2 15  0.0000000  0  8G25G10G17G12G05G04G27G02
  -9233734.72747  -7187361.34844  23678102.1954                   23678103.0634
 -18780119.41847 -14619674.27046  20954646.6484                   20954645.1994
  -2396441.22747  -1856100.99644  23552901.5314                   23552899.9224
 -19206456.53148 -14957542.77346  21175805.6024                   21175803.3134
  -9402704.37148  -7164248.14846  21759553.0004                   21759551.4344
    109991.40648    -13143.78545  22024188.5084                   22024186.6764
  -1970805.30546  -2286472.00044  24354174.9844                   24354177.3914
 -19979682.19148 -15551636.19546  20632207.6564                   20632203.1914
 11  7 26  2 15 30.0000000  0  8G25G10G17G12G05G04G27G02
  -9308413.31247  -7245552.41443  23663891.4304                   23663891.3444
 -18751747.11748 -14597565.95346  20960045.7664                   20960044.2774
  -2317110.05147  -1794284.52044  23567997.4844                   23567996.0084
 -19232197.34048 -14977600.52346  21170907.4384                   21170905.1134
  -9467980.44147  -7215112.57046  21747131.0084                   21747129.8954
    208048.33248     63264.20745  22042848.4774                   22042847.7774
  -1885886.52746  -2220301.53943  24370334.3444                   24370336.8014
 -19955355.75448 -15532680.51246  20636836.4064                   20636832.2074
 11  7 26  2 16  0.0000000  0  8G25G10G17G12G05G04G27G02
  -9382841.53147  -7303548.35544  23649728.3364                   23649729.2664
 -18722741.49247 -14574964.14846  20965564.8594                   20965563.7274
  -2237612.98047  -1732338.73844  23583125.7274                   23583124.0124
 -19257440.74648 -14997270.69546  21166104.0474                   21166101.1524
  -9532896.77347  -7265696.67246  21734777.6094                   21734775.9804
    306215.35548    139758.02345  22061528.8524                   22061526.9574
  -1800975.76246  -2154137.31643  24386492.4694                   24386494.2114
 -19930756.18048 -15513512.00046  20641517.7274                   20641513.8164
 11  7 26  2 16 30.0000000  0  8G25G10G17G12G05G04G27G02
  -9457017.25047  -7361347.56244  23635612.7584                   23635613.6374
 -18693103.53547 -14551869.62146  20971205.1564                   20971203.2814
  -2157950.04347  -1670263.74244  23598285.3984                   23598284.0204
 -19282185.77748 -15016552.53546  21161395.4454                   21161392.0824
  -9597451.28547  -7315998.84046  21722493.3054                   21722490.9884
    404490.25848    216335.87545  22080229.8364                   22080229.7854
  -1716076.08245  -2087981.80143  24402648.2034                   24402649.9184
 -19905884.78548 -15494131.68047  20646250.8524                   20646246.6334
 11  7 26  2 17  0.0000000  0  8G25G10G17G12G05G04G27G02
  -9530933.70747  -7418944.71944  23621547.1804                   23621548.6414
 -18662829.43448 -14528279.39846  20976966.0084                   20976963.9734
  -2078116.83647  -1608056.00044  23613477.5234                   23613475.7664
 -19306426.35948 -15035441.28546  21156781.9384                   21156779.7074
  -9661637.27047  -7366013.84046  21710278.9144                   21710277.4964
    502875.29747    292999.57845  22098952.4144                   22098950.8754
  -1631186.21145  -2021833.92642  24418801.9304                   24418803.1684
 -19880738.78148 -15474537.36747  20651035.5084                   20651032.1484
 11  7 26  2 17 30.0000000  0  8G25G10G17G12G05G04G27G02
  -9604593.46147  -7476341.89144  23607529.7504                   23607532.0044
 -18631924.58247 -14504197.68446  20982847.1174                   20982845.6914
  -1998118.10246  -1545719.30944  23628700.0634                   23628698.8134
 -19330165.96148 -15053939.66446  21152264.3984                   21152262.1804
  -9725457.10247  -7415743.52346  21698134.5864                   21698132.8554
    601363.36348    369743.56245  22117694.1954                   22117692.6994
  -1546314.13745  -1955699.86342  24434953.7664                   24434954.0704
 -19855324.42648 -15454733.94947  20655872.0634                   20655867.8094
 11  7 26  2 18  0.0000000  0  8G25G10G17G12G05G04G27G02
  -9677991.76647  -7533535.31244  23593563.0634                   23593564.4064
 -18600387.14547 -14479623.05946  20988848.3834                   20988846.8284
  -1917951.63747  -1483251.93844  23643955.0164                   23643953.9144
 -19353400.31248 -15072044.33646  21147843.1024                   21147840.6914
  -9788906.19148  -7465184.31246  21686060.5554                   21686058.6414
    699954.82847    446568.11745  22136455.1024                   22136453.9064
  -1461460.50045  -1889580.18042  24451100.0704                   24451102.5164
 -19829640.70348 -15434720.64546  20660759.2894                   20660755.5274
 11  7 26  2 18 30.0000000  0  8G25G10G17G12G05G04G27G02
  -9751120.94947  -7590519.04745  23579647.3524                   23579648.8714
 -18568212.86347 -14454552.17646  20994971.0164                   20994968.9964
  -1837611.86347  -1420649.52044  23659243.8834                   23659242.4384
 -19376122.74248 -15089750.08646  21143519.0004                   21143516.6094
  -9851976.81647  -7514330.20746  21674058.4614                   21674056.6524
    798653.07047    523475.83245  22155236.5784                   22155235.3524
  -1376622.63345  -1823472.82842  24467243.8914                   24467246.1254
 -19803683.66848 -15414494.36746  20665698.7584                   20665694.3954
 11  7 26  2 19  0.0000000  0  8G25G10G17G12G05G04G27G02
  -9823978.28147  -7647290.91445  23565783.3594                   23565784.1334
 -18535401.91047 -14428985.19946  21001215.0234                   21001213.2074
  -1757098.52046  -1357911.80944  23674564.7114                   23674563.8364
 -19398331.30948 -15107055.44546  21139292.6564                   21139290.2074
  -9914666.03147  -7563178.89146  21662129.1094                   21662126.9454
    897456.07847    600465.23045  22174038.1484                   22174037.2584
  -1291803.28145  -1757379.87542  24483384.4064                   24483386.6524
 -19777454.84048 -15394056.29346  20670689.9614                   20670685.4774
 11  7 26  2 19 30.0000000  0  8G25G10G17G12G05G04G27G02
  -9896562.58247  -7703850.05145  23551969.7194                   23551971.9964
 -18501956.33648 -14402923.67246  21007579.0394                   21007576.5084
  -1676412.84446  -1295039.80944  23689917.4144                   23689916.9964
 -19420025.69148 -15123960.11746  21135164.4384                   21135162.0164
  -9976972.88747  -7611729.64146  21650272.1954                   21650270.5474
    996361.05547    677534.07845  22192859.0164                   22192857.5474
  -1207006.56646  -1691304.51242  24499520.8444                   24499523.3134
 -19750956.78548 -15373408.43046  20675732.5314                   20675728.4494
 11  7 26  2 20  0.0000000  0  8G25G10G17G12G05G04G27G02
  -9968877.66047  -7760199.47745  23538209.2194                   23538211.0864
 -18467883.18748 -14376373.14546  21014062.9614                   21014061.1684
  -1595561.26646  -1232038.57843  23705302.7344                   23705301.7704
 -19441210.76648 -15140467.94946  21131132.9774                   21131130.4804
 -10038901.33647  -7659985.51246  21638487.8524                   21638485.9384
   1095359.32047    754675.61345  22211697.9844                   22211696.8914
  -1122241.69546  -1625253.95743  24515651.8834                   24515652.7154
 -19724197.08648 -15352556.71546  20680824.5234                   20680820.9734
 11  7 26  2 20 30.0000000  0  8G25G10G17G12G05G04G27G02
 -10040916.52747  -7816333.66844  23524500.5234                   23524501.2624
 -18433178.17648 -14349330.26646  21020667.3754                   21020665.1804
  -1514538.84846  -1168904.22743  23720721.6724                   23720719.7344
 -19461880.41048 -15156574.13346  21127200.0634                   21127197.6994
 -10100444.24647  -7707940.97346  21626776.6094                   21626774.7274
   1194453.78547    831892.05945  22230554.6334                   22230554.3364
  -1037507.06346  -1559226.98443  24531775.6484                   24531777.9104
 -19697172.01648 -15331498.19146  20685967.2034                   20685963.1024
 11  7 26  2 21  0.0000000  0  8G25G10G17G12G05G04G27G02
 -10112679.41847  -7872252.80145  23510844.2114                   23510846.0084
 -18397845.08248 -14321797.95346  21027390.6094                   21027388.7464
  -1433348.18846  -1105638.79743  23736171.7584                   23736169.5634
 -19482035.82448 -15172279.60546  21123364.4304                   21123361.8444
 -10161601.91848  -7755596.24646  21615139.2034                   21615136.9304
   1293639.76247    909179.86345  22249429.3524                   22249428.8094
   -952808.10946  -1493227.81643  24547893.9534                   24547895.6174
 -19669886.21948 -15310236.50046  20691159.3284                   20691155.2894
 11  7 26  2 21 30.0000000  0  8G25G10G17G12G05G04G27G02
 -10184164.14847  -7927955.17244  23497241.7974                   23497242.1684
 -18361885.03548 -14293777.10546  21034233.3834                   21034231.6954
  -1351989.20746  -1042242.17243  23751654.9844                   23751651.2544
 -19501675.62548 -15187583.32446  21119627.1174                   21119624.6414
 -10222372.18747  -7802949.64846  21603574.0634                   21603572.8714
   1392914.87547    986537.10545  22268320.8674                   22268319.9534
   -868148.13346  -1427259.10243  24564003.9224                   24564005.4414
 -19642341.10248 -15288772.75446  20696401.3984                   20696396.8674
 11  7 26  2 22  0.0000000  0  8G25G10G17G12G05G04G27G02
 -10255357.73447  -7983430.69144  23483694.5084                   23483694.2344
 -18325288.16048 -14265260.02746  21041197.4304                   21041195.8444
  -1270451.81646   -978706.52743  23767170.0864                   23767168.1604
 -19520787.89548 -15202475.97746  21115990.3054                   21115987.3444
 -10282742.35947  -7849991.28946  21592086.2274                   21592085.1294
   1492287.92647   1063970.69145  22287230.5474                   22287228.7384
   -783519.44146  -1361314.68843  24580109.0164                   24580109.6334
 -19614527.63348 -15267099.90247  20701693.8594                   20701689.5984
 11  7 26  2 22 30.0000000  0  8G25G10G17G12G05G04G27G02
 -10326264.32047  -8038682.53944  23470201.1094                   23470200.3954
 -18288062.22748 -14236252.78546  21048281.6564                   21048279.8554
  -1188742.37946   -915036.82443  23782718.6334                   23782715.2934
 -19539377.87548 -15216961.64546  21112452.8204                   21112450.3164
 -10342716.46148  -7896724.30546  21580673.5314                   21580671.8164
   1591750.17247   1141473.73445  22306158.4224                   22306157.2544
   -698931.50447  -1295402.09044  24596205.2584                   24596207.4064
 -19586453.70348 -15245224.09846  20707036.2584                   20707031.8284
 11  7 26  2 23  0.0000000  0  8G25G10G17G12G05G04G27G02
 -10396880.43747  -8093708.07444  23456762.0314                   23456762.6484
 -18250206.73048 -14206754.97346  21055485.5554                   21055483.5744
  -1106859.74246   -851232.18843  23798300.3204                   23798298.7424
 -19557443.03148 -15231038.35946  21109014.7194                   21109011.5944
 -10402291.31648  -7943146.20746  21569336.9694                   21569335.6644
   1691301.00847   1219045.83245  22325101.9454                   22325099.1054
   -614385.98047  -1229522.52744  24612292.9384                   24612295.1604
 -19558119.73848 -15223145.66846  20712427.9144                   20712423.7034
 11  7 26  2 23 30.0000000  0  7G25G10G17G12G05G04G02
 -10467197.37947  -8148500.47344  23443382.5394                   23443382.9144
 -18211716.64548 -14176762.66446  21062809.9384                   21062808.0864
  -1024797.69146   -787287.69143  23813915.7504                   23813915.3094
 -19574975.65248 -15244700.12146  21105678.3594                   21105676.0514
 -10461458.34848  -7989250.33246  21558077.5864                   21558076.1054
   1790944.69547   1296690.27345  22344063.5864                   22344062.2034
 -19529520.82848 -15200860.78546  20717870.0784                   20717865.7934
 11  7 26  2 24  0.0000000  0  7G25G10G17G12G05G04G02
 -10537220.53147  -8203063.90244  23430057.0314                   23430057.3634
 -18172600.75848 -14146282.72746  21070252.9144                   21070251.2814
   -942564.16447   -723209.64544  23829564.7974                   23829563.1254
 -19591982.44148 -15257952.12946  21102442.2274                   21102439.3874
 -10520222.82848  -8035040.78946  21546895.1724                   21546893.4144
   1890671.55147   1374399.50844  22363040.4304                   22363038.5554
 -19500666.17648 -15178376.63346  20723360.9454                   20723356.8404
 11  7 26  2 24 30.0000000  0  7G25G10G17G12G05G04G02
 -10606946.02047  -8257395.37944  23416789.1484                   23416789.0044
 -18132858.47348 -14115314.69946  21077816.0944                   21077814.2274
   -860157.42647   -658996.59843  23845247.3674                   23845244.1374
 -19608460.47748 -15270792.13746  21099306.6484                   21099303.7424
 -10578581.06248  -8080514.69946  21535789.6564                   21535787.8794
   1990481.01247   1452173.12545  22382033.5634                   22382032.4734
 -19471555.62148 -15155693.06646  20728900.5704                   20728896.1724
 11  7 26  2 25  0.0000000  0  7G25G10G17G12G05G04G02
 -10676364.49247  -8311487.57044  23403579.0784                   23403579.1254
 -18092483.81648 -14083853.89846  21085499.3364                   21085496.9494
   -777570.72746   -594643.31343  23860962.7894                   23860959.6644
 -19624401.02748 -15283213.33246  21096273.4064                   21096270.4144
 -10636523.91848  -8125664.92246  21524764.0554                   21524761.8204
   2090378.23847   1530015.10245  22401043.3674                   22401042.4804
 -19442183.60248 -15132805.77747  20734489.9144                   20734485.9614
 11  7 26  2 25 30.0000000  0  7G25G10G17G12G05G04G02
 -10745475.82447  -8365340.46944  23390426.1174                   23390428.0164
 -18051479.99248 -14051902.85246  21093302.1644                   21093300.6174
   -694806.14146   -530151.37943  23876712.5314                   23876709.8874
 -19639805.51648 -15295216.81646  21093341.7344                   21093339.3834
 -10694051.28548  -8170491.38746  21513816.4144                   21513814.6414
   2190359.04347   1607922.25045  22420069.2344                   22420067.6994
 -19412553.96548 -15109717.73446  20740128.2504                   20740123.8164
 11  7 26  2 26  0.0000000  0  7G25G10G17G12G05G04G02
 -10814280.69147  -8418954.57044  23377333.4924                   23377333.9734
 -18009851.51248 -14019465.06646  21101223.9384                   21101221.6564
   -611866.77346   -465523.28143  23892494.4924                   23892492.5274
 -19654675.71548 -15306803.97346  21090512.0634                   21090509.4024
 -10751164.25048  -8214994.94946  21502948.1334                   21502946.1174
   2290418.57447   1685890.69945  22439110.2974                   22439108.0634
 -19382671.11348 -15086432.37546  20745814.3524                   20745810.1524
 11  7 26  2 26 30.0000000  0  7G25G10G17G12G05G04G02
 -10882778.80547  -8472329.61344  23364298.7974                   23364299.9534
 -17967601.33248 -13986542.81246  21109263.0164                   21109261.2384
   -528754.98046   -400760.84844  23908310.6884                   23908309.6294
 -19669012.29748 -15317975.31646  21087784.0634                   21087781.0864
 -10807862.60248  -8259175.43746  21492158.7664                   21492156.4844
   2390552.67647   1763917.30945  22458164.4844                   22458162.5984
 -19352538.66048 -15062952.52746  20751548.5004                   20751544.3634
 11  7 26  2 27  0.0000000  0  7G25G10G17G12G05G04G02
 -12526386.16847  -9753062.47745  23051531.1024                   23051532.3594
 -19500145.32048 -15180732.91046  20817629.9384                   20817627.7464
  -2020884.02046  -1563458.74244  23624367.5864                   23624366.6484
 -21258230.48848 -16556327.13746  20785366.0314                   20785363.1994
 -12439561.91448  -9530629.38746  21181656.7114                   21181654.7154
    915346.95347    614406.36745  22177442.4384                   22177441.1604
 -20897573.11348 -16266875.48446  20457538.9384                   20457534.0204
 11  7 26  2 27 30.0000000  0  7G25G10G17G12G05G04G02
 -12594254.92647  -9805947.10545  23038616.5784                   23038616.9614
 -19456646.57848 -15146837.75046  20825907.0634                   20825905.4344
  -1937418.42246  -1498420.59444  23640250.7424                   23640249.7074
 -21271487.29348 -16566657.10246  20782842.9064                   20782840.5824
 -12495415.50048  -9574151.62146  21171028.3984                   21171025.8014
   1015633.67647    692551.87145  22196526.1804                   22196524.3754
 -20866936.75848 -16243003.00446  20463368.7814                   20463364.3714
 11  7 26  2 28  0.0000000  0  7G25G10G17G12G05G04G02
 -12661811.16047  -9858588.20745  23025760.2424                   23025761.0984
 -19412531.12548 -15112462.05546  20834302.0164                   20834300.6994
  -1853781.78546  -1433249.16444  23656167.0314                   23656165.2894
 -21284207.89848 -16576569.24646  20780422.1024                   20780419.5274
 -12550849.25048  -9617346.69946  21160479.4844                   21160478.1954
   1115987.96547    770750.02045  22215623.7114                   22215622.5234
 -20836056.23048 -16218940.25046  20469244.4534                   20469240.3324
 11  7 26  2 28 30.0000000  0  7G25G10G17G12G05G04G02
 -12729048.30547  -9910980.70345  23012965.5084                   23012966.5664
 -19367796.00448 -15077603.48446  20842815.1724                   20842813.2154
  -1769969.80946  -1367941.12543  23672114.5394                   23672113.9804
 -21296387.84048 -16586060.09046  20778104.4924                   20778102.1884
 -12605856.70347  -9660209.60246  21150011.9774                   21150010.3444
   1216412.39847    849002.84045  22234733.3524                   22234733.1414
 -20804928.91448 -16194685.16846  20475167.7894                   20475163.6844
 11  7 26  2 29  0.0000000  0  7G25G10G17G12G05G04G02
 -12795962.28947  -9963121.37145  23000231.8134                   23000232.1414
 -19322440.65248 -15042261.60546  20851445.7424                   20851443.7304
  -1685981.21145  -1302495.45743  23688098.0704                   23688096.6254
 -21308023.50048 -16595126.82846  20775890.1334                   20775887.7504
 -12660434.04747  -9702737.35546  21139626.1724                   21139624.2464
   1316906.72347    927310.10945  22253856.5234                   22253855.7894
 -20773554.83648 -16170237.82046  20481138.3204                   20481134.0514
 11  7 26  2 29 30.0000000  0  7G25G10G17G12G05G04G02
 -12862553.27047 -10015010.35545  22987560.1804                   22987560.8054
 -19276469.10248 -15006439.58246  20860193.7974                   20860192.0274
  -1601817.90246  -1236913.71943  23704114.8444                   23704112.3094
 -21319116.28148 -16603770.53146  20773779.2664                   20773776.9574
 -12714581.76647  -9744930.32846  21129322.1094                   21129319.8754
   1417466.73047   1005668.58245  22272992.6254                   22272991.7304
 -20741937.35248 -16145600.81246  20487154.8364                   20487150.6884
 11  7 26  2 30  0.0000000  0  7G25G10G17G12G05G04G02
 -12928823.62547 -10066649.47345  22974949.0554                   22974950.5554
 -19229887.50448 -14970142.21146  20869057.8524                   20869056.5084
  -1517485.04345  -1171199.82043  23720158.5704                   23720160.2584
 -21329669.81248 -16611994.05546  20771771.0784                   20771768.1414
 -12768302.31647  -9786790.44146  21119099.1884                   21119096.7384
   1518086.00847   1084073.23445  22292139.9304                   22292139.2114
 -20710082.97348 -16120779.18746  20493216.2894                   20493212.3754
 11  7 26  2 30 30.0000000  0  7G25G10G17G12G05G04G02
 -12994755.34047 -10118024.75445  22962403.2114                   22962404.0044
 -19182681.35548 -14933358.17646  20878041.2034                   20878038.8404
                                  23736241.2734                   23736243.1914
 -21339667.62148 -16619784.53546  20769868.9694                   20769866.2274
 -12821578.16847  -9828304.03546  21108961.0554                   21108959.3874
   1618777.94547   1162534.49245  22311300.6414                   22311299.7464
 -20677977.33648 -16095761.78146  20499326.1804                   20499322.0864
 11  7 26  2 31  0.0000000  0  8G25G10G17G12G05G09G04G02
 -13060351.50847 -10169138.57445  22949920.6254                   22949921.2504
 -19134857.41848 -14896092.73446  20887141.6094                   20887139.5314
  -1348270.07455  -1039344.07853  23752362.0234                   23752360.2664
 -21349113.89848 -16627145.25846  20768071.0004                   20768068.4064
 -12874412.45748  -9869473.57446  21098907.2504                   21098904.9924
                                  24546525.328
   1719535.67647   1241047.03545  22330474.2274                   22330473.2894
 -20645627.17248 -16070553.82046  20505482.3364                   20505477.5634
 11  7 26  2 31 30.0000000  0  8G25G10G17G12G05G09G04G02
 -13125613.18047 -10219991.76245  22937500.8444                   22937501.8014
 -19086420.72748 -14858349.83246  20896358.5944                   20896356.8674
  -1263396.85256   -973209.09853  23768513.1724                   23768511.1764
 -21358011.04348 -16634078.07846  20766378.0864                   20766375.5164
 -12926806.42248  -9910299.98446  21088936.8914                   21088935.0744
  -6158452.83215                  24566283.180
   1820353.77047   1319606.60545  22349659.5554                   22349657.4264
 -20613036.86348 -16045158.75046  20511683.6644                   20511678.6524
 11  7 26  2 32  0.0000000  0  8G25G10G17G12G05G09G04G02
 -13190539.76247 -10270583.84445  22925145.4454                   22925146.1454
 -19037374.36748 -14820131.86746  20905691.8204                   20905689.8954
  -1178349.61347   -906938.52343  23784697.6484                   23784694.7384
 -21366359.71548 -16640583.51246  20764788.8204                   20764786.0044
 -12978760.11348  -9950783.34046  21079050.6334                   21079048.6954
  -6054634.523 4                  24586039.016
   1921228.82847   1398210.57845  22368855.5164                   22368854.1564
 -20580210.83248 -16019580.00446  20517930.4924                   20517925.6134
 11  7 26  2 32 30.0000000  0  8G25G10G17G12G05G09G04G02
 -13255128.14847 -10320912.42245  22912855.7194                   22912855.2854
 -18987718.98448 -14781439.33246  20915140.8594                   20915139.0474
  -1093127.69947   -840531.83643  23800915.0084                   23800911.9144
 -21374158.14848 -16646660.18746  20763305.2974                   20763301.8484
 -13030270.51648  -9990921.26646  21069248.1954                   21069246.2194
  -5950851.312 5                  24605790.281
   2022159.89847   1476858.20744  22388062.0004                   22388060.0664
 -20547149.25848 -15993817.70746  20524221.8364                   20524217.9844
 11  7 26  2 33  0.0000000  0  8G25G10G17G12G05G09G04G02
 -13319372.43447 -10370972.85245  22900629.5084                   22900630.8284
 -18937452.79748 -14742270.84446  20924705.8834                   20924704.6804
  -1007727.51647   -773986.18043  23817165.9534                   23817163.4844
 -21381401.63348 -16652304.43746  20761927.0234                   20761924.0634
 -13081332.00848 -10030709.39846  21059531.4614                   21059529.7424
  -5847102.887 5                  24625530.500
   2123148.73047   1555550.79345  22407279.8134                   22407279.2304
 -20513849.74248 -15967870.02346  20530558.2344                   20530553.9264
 11  7 26  2 33 30.0000000  0  8G25G10G17G12G05G09G04G02
 -13383274.32447 -10420766.46145  22888469.5704                   22888470.4804
 -18886581.32048 -14702630.72746  20934386.7664                   20934384.4104
   -922153.17247   -707304.82843  23833450.1724                   23833448.3364
 -21388093.49648 -16657518.85246  20760653.8834                   20760650.3984
 -13131946.78147 -10070149.44946  21049899.9224                   21049897.7034
  -5743396.852 6                  24645266.133
   2224189.60247   1634283.94145  22426507.2034                   22426506.0784
 -20480318.08648 -15941741.43746  20536939.1884                   20536934.0314
 11  7 26  2 34  0.0000000  0  8G25G10G17G12G05G09G04G02
 -13446827.16847 -10470288.10545  22876376.4694                   22876376.5204
 -18835101.33648 -14662516.45746  20944182.7814                   20944181.1564
   -836400.39846   -640484.44543  23849766.8524                   23849765.1604
 -21394228.53548 -16662299.37946  20759486.0394                   20759483.5784
 -13182108.19148 -10109236.21146  21040354.6724                   21040352.3524
  -5639732.12946  -2175413.16853  24664993.0784                   24664991.7504
   2325285.02347   1713059.63745  22445744.6884                   22445743.1764
 -20446550.94548 -15915429.35946  20543365.0554                   20543360.6564
 11  7 26  2 34 30.0000000  0  8G25G10G17G12G05G09G04G02
 -13510027.48847 -10519535.03945  22864349.4924                   22864349.9614
 -18783013.27348 -14621928.33646  20954094.9774                   20954093.0314
   -750468.34046   -573524.33643  23866120.6254                   23866117.4304
 -21399804.36748 -16666644.15646  20758425.0864                   20758422.4184
 -13231813.41048 -10147967.50846  21030896.3524                   21030894.2504
  -5536110.86746  -2094669.41443  24684711.2664                   24684712.1134
   2426434.52747   1791877.43845  22464993.0234                   22464991.6254
 -20412548.87548 -15888934.21146  20549835.3054                   20549831.3364
 11  7 26  2 35  0.0000000  0  8G25G10G17G12G05G09G04G02
 -13572874.10947 -10568506.37145  22852389.5314                   22852391.1804
 -18730319.91448 -14580868.55946  20964122.0234                   20964120.0314
   -664358.24646   -506425.52043  23882506.1254                   23882503.9454
 -21404821.47748 -16670553.56246  20757469.7894                   20757467.5274
 -13281061.32048 -10186342.46546  21021524.2814                   21021521.5664
  -5432537.36346  -2013962.82043  24704421.0634                   24704421.4924
   2527635.05947   1870735.02345  22484250.7504                   22484249.0004
 -20378314.45348 -15862258.01646  20556349.8594                   20556345.4264
 11  7 26  2 35 30.0000000  0  8G25G10G17G12G05G09G04G02
 -13635366.85547 -10617201.98845  22840497.4694                   22840499.2304
 -18677025.14148 -14539340.14846  20974264.0004                   20974261.8554
   -578072.59046   -439189.89543  23898923.6954                   23898923.7544
 -21409281.21148 -16674028.65646  20756621.5084                   20756618.8834
 -13329852.39147 -10224361.44546  21012239.6724                   21012237.6724
  -5329017.26647  -1933297.85944  24724119.7894                   24724121.0634
   2628882.76647   1949629.32045  22503517.5474                   22503515.7504
 -20343851.30948 -15835403.59846  20562908.0234                   20562903.6414
 11  7 26  2 36  0.0000000  0  8G25G10G17G12G05G09G04G02
 -13697499.74247 -10665617.18445  22828674.6334                   22828674.9384
 -18623126.69948 -14497341.35246  20984520.2194                   20984518.1604
   -491607.59846   -371814.55543  23915381.0944                   23915378.4924
 -21413178.82448 -16677065.73446  20755879.8754                   20755876.6294
 -13378180.90647 -10262019.97746  21003042.7424                   21003041.0594
  -5225550.00846  -1852674.09444  24743809.3674                   24743810.4344
   2730179.81647   2028562.08245  22522794.0004                   22522791.8524
 -20309156.86748 -15808368.93746  20569509.8834                   20569505.8914
 11  7 26  2 36 30.0000000  0  8G25G10G17G12G05G09G04G02
 -13759274.39147 -10713753.27345  22816919.3984                   22816920.0234
 -18568630.54748 -14454876.80946  20994890.9064                   20994888.7074
   -404967.37946   -304302.61743  23931866.2274                   23931865.2384
 -21416517.57848 -16679667.33246  20755244.3444                   20755241.3674
 -13426048.84847 -10299319.62946  20993933.5394                   20993931.8674
  -5122142.77347  -1772097.07044  24763486.9694                   24763488.0394
   2831520.55147   2107528.93044  22542078.3524                   22542075.8984
 -20274236.62148 -15781158.32846  20576155.3594                   20576150.6374
 11  7 26  2 37  0.0000000  0  8G25G10G17G12G05G09G04G02
 -13820684.05547 -10761604.91445  22805232.9774                   22805234.7074
 -18513533.73448 -14411944.20346  21005375.2974                   21005373.7114
   -318147.62546   -236650.85943  23948387.6334                   23948386.0744
 -21419292.00048 -16681829.18046  20754715.9774                   20754713.1724
 -13473449.85947 -10336255.44146  20984913.8594                   20984911.9734
  -5018794.21546  -1691565.77744  24783154.0944                   24783154.3794
   2932907.73447   2186531.94945  22561371.4924                   22561369.9104
 -20239087.46948 -15753769.35946  20582843.5474                   20582839.2384
 11  7 26  2 37 30.0000000  0  7G25G10G17G12G05G04G02
 -13881725.21147 -10809169.41045  22793617.2424                   22793618.2424
 -18457836.60548 -14368543.83646  21015974.1644                   21015971.9774
   -231147.28146   -168858.30543  23964943.9224                   23964941.3554
 -21421500.17247 -16683549.79746  20754295.9224                   20754293.3054
 -13520380.67648 -10372824.87146  20975982.7664                   20975981.0474
   3034340.97347   2265570.85245  22580673.9064                   22580672.1484
 -20203709.67648 -15726202.23046  20589576.0164                   20589571.4104
 11  7 26  2 38  0.0000000  0  7G25G10G17G12G05G04G02
 -13942397.88347 -10856446.78545  22782072.3134                   22782072.1054
 -18401543.43448 -14324678.98846  21026686.6094                   21026684.7894
   -143969.12945   -100927.25043  23981532.6724                   23981530.7774
 -21423143.50848 -16684830.29746  20753982.9534                   20753980.5824
 -13566841.79748 -10409028.28946  20967141.7894                   20967139.5744
   3135816.19547   2344642.45745  22599983.5944                   22599982.3054
 -20168107.09848 -15698459.93446  20596351.0004                   20596346.5594
 11  7 26  2 38 30.0000000  0  7G25G10G17G12G05G04G02
 -14002696.54347 -10903432.73045  22770597.3754                   22770597.8524
 -18344652.73848 -14280348.57446  21037512.6644                   21037510.7734
    -56609.76645    -32855.01643  23998155.8914                   23998154.4144
 -21424217.78548 -16685667.35546  20753778.7034                   20753776.5274
 -13612828.45748 -10444862.00046  20958390.7424                   20958388.5474
   3237335.20747   2423748.16845  22619302.2114                   22619301.4884
 -20132277.67248 -15670540.87546  20603168.9774                   20603165.0044
 11  7 26  2 39  0.0000000  0  7G25G10G17G12G05G04G02
 -14062614.84447 -10950122.29745  22759195.5864                   22759195.5044
 -18287162.30148 -14235550.80146  21048452.1644                   21048450.2974
     30934.53946     35361.33243  24014817.2194                   24014814.7464
 -21424718.86348 -16686057.77046  20753683.5234                   20753680.7034
 -13658334.36348 -10480321.10546  20949731.1094                   20949729.1334
   3338900.31647   2502889.78545  22638629.6884                   22638628.1054
 -20096218.95348 -15642443.14146  20610030.5704                   20610026.1684
 11  7 26  2 39 30.0000000  0  7G25G10G17G12G05G04G02
 -14122154.64547 -10996516.93745  22747865.0394                   22747865.5124
 -18229077.66447 -14190290.02346  21059505.5474                   21059503.4534
    118659.57846    103718.52343  24031507.7584                   24031507.4144
 -21424649.99648 -16686004.08646  20753696.2974                   20753694.2464
 -13703362.20748 -10515407.70346  20941162.5704                   20941160.3954
   3440505.74647   2582062.85944  22657963.9384                   22657962.7074
 -20059936.33248 -15614170.94946  20616935.0474                   20616931.1214
 11  7 26  2 40  0.0000000  0  7G25G10G17G12G05G04G02
 -14181310.73847 -11042612.56645  22736608.2194                   22736608.3714
 -18170397.80147 -14144565.44546  21070671.7894                   21070669.5824
    206567.75846    172218.37543  24048236.8054                   24048236.3444
 -21424007.28548 -16685503.23846  20753818.7734                   20753816.2344
 -13747906.88348 -10550117.79346  20932686.4224                   20932683.9414
   3542152.77347   2661268.30944  22677307.1564                   22677305.4534
 -20023428.13748 -15585722.97346  20623881.9774                   20623877.9924
 11  7 26  2 40 30.0000000  0  7G25G10G17G12G05G04G02
 -14240082.49247 -11088408.71145  22725424.1804                   22725425.1454
 -18111126.48848 -14098379.97746  21081950.7194                   21081948.5434
    294657.60246    240859.87544  24064999.1414                   24064998.9534
 -21422791.82048 -16684556.10246  20754049.9924                   20754047.2194
 -13791968.16048 -10584451.21146  20924301.5394                   20924299.0744
   3643838.42647   2740503.86344  22696657.0474                   22696656.3054
 -19986697.37948 -15557101.57846  20630871.9774                   20630867.1254
 11  7 26  2 41  0.0000000  0  7G25G10G17G12G05G04G02
 -14298470.04347 -11133905.45745  22714313.9694                   22714313.9614
 -18051267.90248 -14051736.88346  21093341.5394                   21093339.4494
    382926.23846    309640.64844  24081796.8284                   24081795.3554
 -21421005.53948 -16683164.15646  20754390.1174                   20754387.3554
 -13835546.97348 -10618408.68746  20916008.7814                   20916006.6684
   3745558.39546   2819766.15244  22716013.2034                   22716013.2384
 -19949748.19948 -15528309.98046  20637902.8204                   20637898.1644
 11  7 26  2 41 30.0000000  0  7G25G10G17G12G05G04G02
 -14356468.63747 -11179099.12545  22703277.1024                   22703276.9924
 -17990821.44947 -14004635.72746  21104844.0314                   21104841.8954
    471376.09846    378562.62944  24098628.5554                   24098627.3404
 -21418644.90248 -16681324.66446  20754839.6954                   20754836.6174
 -13878638.88748 -10651986.75846  20907808.6254                   20907806.1294
   3847313.71646   2899056.00444  22735377.0634                   22735376.3954
 -19912579.38348 -15499347.23446  20644976.1724                   20644971.6484
 11  7 26  2 42  0.0000000  0  7G25G10G17G12G05G04G02
 -14414080.00047 -11223991.02745  22692313.7734                   22692313.7234
 -17929793.18047 -13957081.20346  21116457.3054                   21116455.3054
    560002.77747    447622.41044  24115494.2734                   24115492.4454
 -21415713.73448 -16679040.62546  20755397.1254                   20755394.4184
 -13921246.28948 -10685187.29346  20899700.6724                   20899698.9304
   3949098.74647   2978369.01644  22754745.7734                   22754744.6844
 -19875196.18048 -15470217.43046  20652089.8364                   20652085.2034
 11  7 26  2 42 30.0000000  0  7G25G10G17G12G05G04G02
 -14471296.32047 -11268575.08645  22681425.4224                   22681426.0434
 -17868179.23048 -13909070.31646  21128181.9224                   21128179.7664
    648812.07046    516824.46544  24132393.5164                   24132391.6804
 -21412205.93748 -16676307.26646  20756064.6724                   20756061.0784
 -13963361.75848 -10718004.49246  20891686.2584                   20891684.8014
   4050917.80547   3057708.52344  22774121.6254                   22774120.4694
 -19837594.24648 -15440917.19946  20659245.4144                   20659240.7424
 11  7 26  2 43  0.0000000  0  7G25G10G17G12G05G04G02
 -14528119.02347 -11312852.41445  22670612.1094                   22670613.0864
 -17805985.03547 -13860607.26246  21140016.7194                   21140014.8634
    737799.67646    586165.47744  24149327.5864                   24149326.5274
 -21408124.37548 -16673126.80146  20756841.0314                   20756838.4614
 -14004987.12148 -10750439.80146  20883764.9384                   20883763.7304
   4152765.47347   3137070.34044  22793502.5164                   22793501.3404
 -19799778.98848 -15411450.74246  20666440.7974                   20666436.6024
 11  7 26  2 43 30.0000000  0  7G25G10G17G12G05G04G02
 -14584540.54747 -11356817.12145  22659875.1564                   22659875.8754
 -17743207.44148 -13811689.65646  21151963.7504                   21151961.9494
    826970.99246    655649.65243  24166295.0634                   24166294.5004
 -21403463.21548 -16669494.72346  20757728.2814                   20757724.9494
 -14046115.46548 -10782487.81646  20875938.5634                   20875936.6134
   4254645.66447   3216457.50044  22812889.7114                   22812888.2774
 -19761746.20348 -15381814.78546  20673678.7114                   20673674.1174
 11  7 26  2 44  0.0000000  0  7G25G10G17G12G05G04G02
 -14640564.60247 -11400472.10945  22649214.5864                   22649215.2624
 -17679854.53147 -13762323.73046  21164018.9534                   21164016.6994
    916319.59446    725271.94543  24183297.3754                   24183297.2894
 -21398227.96948 -16665415.29346  20758724.3754                   20758721.8594
 -14086750.95748 -10814151.78946  20868205.9454                   20868204.0084
   4356551.05147   3295864.31344  22832282.1414                   22832279.8984
 -19723502.94948 -15352014.81646  20680956.0084                   20680951.3484
 11  7 26  2 44 30.0000000  0  7G25G10G17G12G05G04G02
 -14696188.42647 -11443815.24645  22638629.1954                   22638630.1454
 -17615927.95747 -13712510.78946  21176183.3444                   21176181.4144
   1005845.91446    795032.72743  24200334.7424                   24200333.8914
 -21392417.37148 -16660887.56646  20759829.9774                   20759827.5044
 -14126891.55548 -10845430.12946  20860567.3204                   20860565.2384
   4458480.46147   3375289.85544  22851678.3674                   22851676.4414
 -19685050.60248 -15322051.91846  20688272.7814                   20688268.5704
 11  7 26  2 45  0.0000000  0  7G25G10G17G12G05G04G02
 -14751406.22347 -11486842.01245  22628122.1484                   22628121.8094
 -17551425.77747 -13662249.32046  21188458.4064                   21188456.0904
   1095553.13746    864934.45343  24217405.3594                   24217404.4224
 -21386027.60248 -16655908.50846  20761045.9064                   20761043.7274
 -14166531.87148 -10876318.64846  20853024.1484                   20853021.7544
   4560436.18847   3454735.89844  22871080.0474                   22871077.0394
 -19646386.54748 -15291924.05946  20695630.4614                   20695625.9144
 11  7 26  2 45 30.0000000  0  7G25G10G17G12G05G04G02
 -14806216.95747 -11529551.56645  22617690.9144                   22617692.1094
 -17486350.98048 -13611541.67246  21200841.0944                   21200839.8364
   1185440.16446    934976.30543  24234511.7424                   24234509.5554
 -21379059.19148 -16650478.56646  20762371.7584                   20762369.5984
 -14205671.44148 -10906816.96946  20845576.3444                   20845573.7074
   4662415.61347   3534200.39144  22890486.2974                   22890484.0394
 -19607513.46548 -15261633.32046  20703027.9064                   20703023.3134
 11  7 26  2 46  0.0000000  0  7G25G10G17G12G05G04G02
 -14860619.30147 -11571942.91845  22607339.0004                   22607339.3954
 -17420706.40248 -13560390.05546  21213332.9064                   21213330.8134
   1275505.66845   1005157.23442  24251646.4064                   24251646.6564
 -21371512.77348 -16644598.23846  20763807.7194                   20763805.7504
 -14244309.50048 -10936924.50446  20838223.6954                   20838221.1334
   4764416.32447   3613681.51644  22909895.7344                   22909894.0314
 -19568433.32848 -15231181.25446  20710464.4924                   20710459.9064
 11  7 26  2 46 30.0000000  0  7G25G10G17G12G05G04G02
 -14914614.87947 -11614017.30945  22597063.6254                   22597064.5434
 -17354498.28548 -13508799.29746  21225931.6804                   21225930.0354
   1365745.54745   1075474.03142  24268820.3834                   24268818.9224
 -21363391.40248 -16638269.89146  20765353.7974                   20765350.9924
 -14282448.31248 -10966643.00446  20830966.0554                   20830963.7154
   4866433.14847   3693175.17244  22929308.7194                   22929307.7544
 -19529151.37548 -15200571.91046  20717939.9064                   20717935.0784
 11  7 26  2 47  0.0000000  0  7G25G10G17G12G05G04G02
 -14968193.77047 -11655767.03545  22586868.7814                   22586868.9264
 -17287721.14147 -13456765.15646  21238639.4454                   21238637.3714
   1456167.13345   1145932.41842  24286029.5474                   24286026.8554
 -21354687.58648 -16631487.69146  20767009.4924                   20767006.3874
 -14320078.34448 -10995965.07046  20823805.2504                   20823802.5124
   4968472.26647   3772686.20744  22948726.5704                   22948725.4264
 -19489661.16048 -15169800.29746  20725454.4774                   20725450.1804
 11  7 26  2 47 30.0000000  0  7G25G10G17G12G05G04G02
 -15021362.70347 -11697197.31645  22576750.3364                   22576750.7464
 -17220385.73847 -13404296.00446  21251453.2034                   21251451.0394
   1546761.65245   1216525.53143  24303267.1414                   24303266.2154
 -21345409.50448 -16624258.01646  20768775.3674                   20768772.7034
 -14357207.17248 -11024896.57446  20816739.5634                   20816737.1134
   5070523.30547   3852206.52044  22968145.9224                   22968144.5514
 -19449973.08248 -15138874.50046  20733006.5864                   20733002.1724
 11  7 26  2 48  0.0000000  0  7G25G10G17G12G05G04G02
 -15074120.49247 -11738307.21945  22566711.4064                   22566711.6724
 -17152495.44147 -13351394.45746  21264372.3984                   21264370.2034
   1637527.45346   1287252.16442  24320538.8594                   24320538.1844
 -21335557.69148 -16616581.27046  20770650.0474                   20770647.0904
 -14393834.20348 -11053437.07846  20809769.9924                   20809767.6094
   5172583.96147   3931734.31345  22987567.7974                   22987567.1844
 -19410089.43048 -15107796.31246  20740596.4304                   20740591.7074
 11  7 26  2 48 30.0000000  0  7G25G10G17G12G05G04G02
 -15126457.57047 -11779089.30945  22556751.9534                   22556752.1254
 -17084044.75847 -13298056.26246  21277397.7734                   21277395.4694
   1728471.92246   1358117.93843  24337846.1024                   24337845.0164
 -21325124.79348 -16608451.71546  20772635.4384                   20772632.3484
 -14429950.40248 -11081579.52046  20802897.4774                   20802895.1484
   5274660.44946   4011274.45344  23006992.2504                   23006991.3754
 -19370004.21148 -15076561.06646  20748224.3984                   20748219.5434
 11  7 26  2 49  0.0000000  0  7G25G10G17G12G05G04G02
 -15178379.57047 -11819547.98845  22546871.0164                   22546871.7624
 -17015043.97347 -13244289.40246  21290528.6564                   21290525.8954
   1819586.53946   1429116.34443  24355185.3054                   24355183.5124
 -21314117.62548 -16599874.68446  20774730.0634                   20774726.7344
 -14465562.39148 -11109329.09446  20796120.5164                   20796117.7424
   5376743.25846   4090819.48044  23026417.5314                   23026417.8874
 -19329726.21148 -15045175.59446  20755889.1024                   20755884.0514
 11  7 26  2 49 30.0000000  0  7G25G10G17G12G05G04G02
 -15229878.57047 -11859677.04345  22537071.0554                   22537071.2974
 -16945489.31247 -13190090.94946  21303763.7974                   21303762.1804
   1910877.54346   1500252.21942  24372555.6484                   24372555.2034
 -21302530.75048 -16590845.92646  20776934.7504                   20776932.1024
 -14500662.62148 -11136679.87546  20789441.0004                   20789438.1954
   5478836.91846   4170372.97744  23045845.0704                   23045844.9224
 -19289250.94548 -15013636.39846  20763591.3524                   20763586.3834
 11  7 26  2 50  0.0000000  0  7G25G10G17G12G05G04G02
 -15280948.71947 -11899471.94945  22527352.6094                   22527353.0004
 -16875379.44147 -13135459.87146  21317105.0554                   21317103.3674
   2002347.75846   1571527.69943  24389962.2034                   24389961.0084
 -21290360.21948 -16581362.37146  20779250.8914                   20779247.9614
 -14535246.10548 -11163628.01246  20782859.7114                   20782856.8634
   5580943.73846   4249936.76244  23065276.1484                   23065274.3134
 -19248576.27747 -14981941.84046  20771331.2974                   20771327.2304
 11  7 26  2 50 30.0000000  0  7G25G10G17G12G05G04G02
 -15331587.84847 -11938930.96945  22517716.4144                   22517717.2114
 -16804716.34847 -13080397.71946  21330551.6954                   21330549.6174
   2093997.01246   1642942.74643  24407403.8984                   24407400.9694
 -21277605.43748 -16571423.55546  20781677.9614                   20781675.4534
 -14569310.93448 -11190171.98446  20776377.4144                   20776374.3834
   5683062.33246   4329509.67644  23084707.8754                   23084707.1764
 -19207703.31648 -14950092.77046  20779109.2814                   20779104.7034
 11  7 26  2 51  0.0000000  0  7G25G10G17G12G05G04G02
 -15381795.56247 -11978053.80145  22508162.1724                   22508162.0164
 -16733504.09047 -13024907.62146  21344103.5944                   21344101.0164
   2185823.25046   1714495.71542  24424876.0394                   24424875.0704
 -21264268.09448 -16561030.78946  20784215.8134                   20784213.2934
 -14602857.44148 -11216312.07446  20769993.6804                   20769990.7194
   5785189.65646   4409089.41444  23104142.6484                   23104141.2464
 -19166635.18448 -14918091.61346  20786924.1724                   20786919.4534
 11  7 26  2 51 30.0000000  0  8G25G10G17G12G05G29G04G02
 -15431570.77347 -12016839.61745  22498690.4304                   22498690.2464
 -16661746.10247 -12968992.29345  21357758.7034                   21357756.0394
   2277825.20746   1786185.52343  24442383.9774                   24442382.7814
 -21250349.37948 -16550185.02046  20786864.4224                   20786861.8634
 -14635885.55148 -11242048.22346  20763708.5944                   20763706.1024
  -6497259.39815                  24508844.852
   5887323.60046   4488674.29044  23123578.0394                   23123576.7624
 -19125374.09048 -14885940.10246  20794776.0554                   20794771.1764
 11  7 26  2 52  0.0000000  0  8G25G10G17G12G05G29G04G02
 -15480907.84047 -12055283.98845  22489302.0944                   22489301.8914
 -16589441.19547 -12912650.78545  21371517.5234                   21371515.2074
   2370005.88746   1858014.68842  24459926.6024                   24459925.1724
 -21235845.48448 -16538883.25446  20789624.4924                   20789621.8554
 -14668390.25848 -11267376.53546  20757523.2734                   20757520.4844
  -6559248.609 5                  24497048.031
   5989466.34447   4568266.04344  23143015.1804                   23143013.3524
 -19083917.92248 -14853636.57446  20802664.5784                   20802659.9574
 11  7 26  2 52 30.0000000  0  7G25G10G17G12G05G04G02
 -15529810.04747 -12093389.57045  22479996.0474                   22479995.8404
 -16516596.82047 -12855888.91445  21385379.4694                   21385377.0904
   2462359.96146   1929978.98043  24477500.3364                   24477498.4184
 -21220761.32448 -16527129.33646  20792495.2194                   20792492.4144
 -14700375.31648 -11292299.92246  20751436.7424                   20751434.1644
   6091611.05147   4647859.33644  23162452.4304                   23162450.7074
 -19042273.07048 -14821186.02046  20810589.2504                   20810584.7934
 11  7 26  2 53  0.0000000  0  8G25G10G17G12G05G29G04G02
 -15578265.49647 -12131147.01645  22470774.9774                   22470776.2544
 -16443205.57847 -12798700.91046  21399345.1094                   21399343.1374
   2554896.64146   2002085.49242  24495108.1094                   24495107.7734
 -21205087.13748 -16514915.66446  20795477.3914                   20795474.9534
 -14731829.71148 -11316809.80946  20745451.0394                   20745448.3014
                                  24473420.102
   6193766.44147   4727460.96944  23181893.0864                   23181890.3954
 -19000431.19548 -14788581.94146  20818551.4694                   20818546.9964
 11  7 26  2 53 30.0000000  0  8G25G10G17G12G05G29G04G02
 -15626279.89847 -12168560.78145  22461637.4694                   22461638.9384
 -16369277.53547 -12741094.60546  21413413.4774                   21413411.0234
   2647608.11246   2074328.24742  24512750.9844                   24512749.4184
 -21188830.91048 -16502248.45346  20798571.1334                   20798567.6884
 -14762760.07048 -11340911.35246  20739565.0944                   20739562.2384
  -6745586.152 5                  24461587.813
   6295923.23847   4807063.72344  23201331.6254                   23201330.0354
 -18958401.24648 -14755831.32046  20826549.6484                   20826545.5044
 11  7 26  2 54  0.0000000  0  8G25G10G17G12G05G29G04G02
 -15673845.41847 -12205624.77745  22452586.5864                   22452587.2704
 -16294809.21947 -12683067.32046  21427584.0234                   21427581.9264
   2740499.71946   2146711.36742  24530430.0084                   24530426.5474
 -21171986.74248 -16489123.11346  20801776.6724                   20801773.3714
 -14793159.01248 -11364598.79346  20733780.3134                   20733777.9454
  -6807813.281 5                  24449747.148
   6398086.02347   4886671.08244  23220773.1644                   23220771.7854
 -18916178.86348 -14722930.73046  20834584.0234                   20834579.5474
 11  7 26  2 54 30.0000000  0  8G25G10G17G12G05G29G04G02
 -15720962.13748 -12242339.10946  22443621.4454                   22443621.0274
 -16219805.27748 -12624622.65646  21441856.9774                   21441854.8014
   2833568.56346   2219232.53142  24548138.5474                   24548136.1174
 -21154556.51248 -16475541.10246  20805093.2584                   20805090.1684
 -14823027.64848 -11387873.01646  20728096.2274                   20728093.7074
  -6870098.336 5                  24437893.555
   6500251.47747   4966280.52344  23240213.9304                   23240212.8164
 -18873767.11348 -14689882.60246  20842654.5704                   20842649.9924
 11  7 26  2 55  0.0000000  0  8G25G10G17G12G05G29G04G02
 -15767630.28947 -12278703.88346  22434740.7894                   22434740.5704
 -16144270.20747 -12565764.15246  21456230.8984                   21456228.6604
   2926812.29746   2291890.16042  24565883.2194                   24565880.9574
 -21136542.48448 -16461504.17646  20808521.2034                   20808518.1644
 -14852366.63748 -11410734.53546  20722513.4224                   20722511.6524
  -6932442.730 6                  24426031.500
   6602416.11347   5045889.32844  23259655.6024                   23259654.4024
 -18831169.75848 -14656689.83646  20850761.1644                   20850756.2194
 11  7 26  2 55 30.0000000  0  7G25G10G12G05G29G04G02
 -15813844.05547 -12314714.57046  22425946.1334                   22425946.3014
 -16068202.75447 -12506490.79745  21470705.2974                   21470703.5664
 -21117940.98048 -16447009.48846  20812060.7584                   20812057.8444
 -14881170.81648 -11433179.30546  20717032.1724                   20717029.5784
  -6994842.738 5                  24414156.188
   6704582.34047   5125499.34844  23279097.2814                   23279096.0824
 -18788384.12548 -14623350.35246  20858902.7424                   20858898.0944
 11  7 26  2 56  0.0000000  0  7G25G10G12G05G29G04G02
 -15859603.81648 -12350371.50845  22417238.3914                   22417238.5634
 -15991607.59848 -12446806.24246  21485281.1414                   21485279.5314
 -21098754.56248 -16432059.01646  20815711.9844                   20815709.1914
 -14909441.63748 -11455208.47746  20711652.0864                   20711650.0204
  -7057299.914 6                  24402270.430
   6806746.58246   5205107.85544  23298537.9454                   23298536.4924
 -18745413.89848 -14589867.03546  20867079.6254                   20867074.9844
 11  7 26  2 56 30.0000000  0  7G25G10G12G05G29G04G02
 -15904903.66047 -12385670.04745  22408617.7814                   22408618.2154
 -15914483.29748 -12386709.36346  21499957.8594                   21499956.1374
 -21078979.30948 -16416649.71946  20819475.1094                   20819472.3134
 -14937174.09048 -11476818.14146  20706374.9224                   20706372.5314
  -7119809.90246  -5479324.26653  24390374.9224                   24390373.6454
   6908911.60246   5284716.95743  23317979.6174                   23317977.3754
 -18702256.34848 -14556237.75446  20875291.9694                   20875287.5204
 11  7 26  2 57  0.0000000  0  7G25G10G12G05G29G04G02
 -15949735.86747 -12420604.20345  22400086.2344                   22400086.4414
 -15836826.66847 -12326197.67646  21514734.9694                   21514733.0004
 -21058609.28147 -16400776.95746  20823351.0554                   20823348.5234
 -14964361.00048 -11498002.70347  20701201.6024                   20701198.8204
  -7182366.73046  -5528069.80943  24378470.9844                   24378470.7274
   7011081.90646   5364330.14544  23337421.8364                   23337421.1604
 -18658907.19948 -14522459.16446  20883541.4384                   20883536.9184
 11  7 26  2 57 30.0000000  0  7G25G10G12G05G29G04G02
 -15994100.89147 -12455174.33245  22391644.2894                   22391644.2664
 -15758642.71947 -12265275.08646  21529613.0474                   21529610.8054
 -21037647.65648 -16384443.20346  20827339.9924                   20827336.9614
 -14991003.74648 -11518763.25046  20696131.4144                   20696129.1134
  -7244972.29346  -5576853.32443  24366558.0474                   24366556.8954
   7113253.77346   5443944.55944  23356864.6334                   23356863.7814
 -18615369.85548 -14488533.94946  20891826.1414                   20891821.7384
 11  7 26  2 58  0.0000000  0  7G25G10G12G05G29G04G02
 -16038000.71947 -12489381.93745  22383289.9064                   22383290.8754
 -15679937.90247 -12203946.63745  21544590.1024                   21544587.9964
 -21016097.68448 -16367651.01246  20831441.1884                   20831438.0824
 -15017105.18448 -11539101.99246  20691164.5234                   20691161.9734
  -7307630.00046  -5625677.47343  24354633.7584                   24354634.1644
   7215422.25847   5523556.36744  23376306.9774                   23376305.6684
 -18571649.68448 -14454466.25446  20900146.1564                   20900141.4184
 11  7 26  2 58 30.0000000  0  7G25G10G12G05G29G04G02
 -16081434.73047 -12523226.60245  22375024.8754                   22375024.7544
 -15600715.93447 -12142215.21945  21559665.4614                   21559663.2814
 -20993961.83248 -16350402.28546  20835653.4064                   20835649.9964
 -15042665.42248 -11559019.02046  20686300.4614                   20686297.9384
  -7370340.84047  -5674543.04743  24342700.7194                   24342701.2624
   7317584.85947   5603163.57844  23395746.5004                   23395745.8754
 -18527749.19148 -14420258.06246  20908500.0474                   20908495.2664
 11  7 26  2 59  0.0000000  0  7G25G10G12G05G29G04G02
 -16124403.14547 -12556708.43045  22366848.2664                   22366848.2734
 -15520981.48047 -12080084.47345  21574838.5474                   21574836.1884
 -20971242.32048 -16332698.75846  20839976.7584                   20839974.1414
 -15067685.75448 -11578515.34846  20681539.1564                   20681536.4654
  -7433106.33247  -5723451.19143  24330756.8594                   24330756.8404
   7419738.09447   5682763.51244  23415187.8594                   23415184.8674
 -18483671.69948 -14385911.94946  20916887.6334                   20916882.6564
 11  7 26  2 59 30.0000000  0  7G25G10G12G05G29G04G02
 -16166903.70347 -12589825.68745  22358760.5394                   22358760.9694
 -15440736.91847 -12017556.22745  21590107.5944                   21590106.3754
 -20947938.75048 -16314540.11346  20844410.8834                   20844408.1994
 -15092164.37948 -11597589.56646  20676881.2814                   20676878.5044
  -7495925.57446  -5772401.19544  24318802.1804                   24318802.3054
   7521881.31647   5762355.61344  23434623.9774                   23434622.6604
 -18439417.88748 -14351428.43046  20925308.5864                   20925304.5904
 11  7 26  3  0  0.0000000  0  7G25G10G12G05G29G04G02
 -16208931.92247 -12622574.89545  22350762.8594                   22350763.6844
 -15359982.12547 -11954630.39545  21605474.9534                   21605473.2154
 -20924048.77348 -16295924.52746  20848957.0164                   20848954.4104
 -15116097.54348 -11616238.74246  20672326.6414                   20672323.8954
  -7558795.39547  -5821390.62144  24306839.3524                   24306837.9224
   7624015.77347   5841940.94144  23454060.0864                   23454058.1644
 -18394986.59448 -14316806.62946  20933763.7974                   20933759.0004
 11  7 26  3  0 30.0000000  0  7G25G10G12G05G29G04G02
 -16250484.05147 -12654953.12945  22342855.3984                   22342855.6454
 -15278717.94947 -11891307.64145  21620939.9144                   21620937.2344
 -20899570.89848 -16276850.84046  20853615.3594                   20853612.4264
 -15139482.57048 -11634460.79746  20667876.5784                   20667874.0474
  -7621713.68447  -5870417.85244  24294866.1644                   24294866.0704
   7726142.36747   5921520.14144  23473494.4694                   23473492.7194
 -18350377.04748 -14282045.92646  20942252.9534                   20942248.4454
 11  7 26  3  1  0.0000000  0  7G25G10G12G05G29G04G02
 -16291559.75447 -12686960.08645  22335039.0554                   22335039.5904
 -15196948.20347 -11827590.93745  21636499.7194                   21636497.9844
 -20874506.99648 -16257320.50846  20858384.8674                   20858381.5824
 -15162320.00048 -11652256.17247  20663531.0314                   20663528.1214
  -7684681.34447  -5919483.55144  24282883.9144                   24282883.4804
   7828258.26247   6001090.96944  23492925.5394                   23492924.7344
 -18305591.96948 -14247148.44546  20950774.9384                   20950770.3204
 11  7 26  3  1 30.0000000  0  7G25G10G12G05G29G04G02
 -16332159.11747 -12718595.88745  22327313.4844                   22327313.5434
 -15114677.33647 -11763483.74645  21652155.0554                   21652153.0704
 -20848858.89848 -16237334.95346  20863265.3524                   20863262.5004
 -15184610.96948 -11669625.71547  20659288.8054                   20659286.3794
  -7747699.59047  -5968588.65244  24270892.0164                   24270890.8364
   7930360.59847   6080651.24244  23512355.6724                   23512353.9774
 -18260634.79348 -14212116.84846  20959329.7194                   20959325.7344
 11  7 26  3  2  0.0000000  0  7G25G10G12G05G29G04G02
 -16372275.00447 -12749854.96145  22319679.7034                   22319679.6054
 -15031902.96147 -11698984.23445  21667906.7194                   21667904.5554
 -20822622.11748 -16216890.69546  20868258.1484                   20868255.6484
 -15206349.13748 -11686564.52046  20655152.5554                   20655149.8094
  -7810762.94147  -6017728.86344  24258891.2584                   24258890.7814
   8032453.32047   6160204.05144  23531782.5394                   23531781.2384
 -18215500.99248 -14176947.63346  20967918.8204                   20967914.0434
 11  7 26  3  2 30.0000000  0  7G25G10G12G05G29G04G02
 -16411903.59047 -12780734.30145  22312138.2424                   22312138.7034
 -14948625.61748 -11634092.77345  21683754.2974                   21683752.4804
 -20795794.92248 -16195986.36346  20873363.0554                   20873360.3984
 -15227531.44548 -11703070.17247  20651121.4844                   20651118.8284
  -7873868.57447  -6066902.00844  24246882.7584                   24246882.2384
   8134537.37547   6239750.11344  23551207.4924                   23551206.4184
 -18170189.91448 -14141640.26646  20976541.0164                   20976536.7504
 11  7 26  3  3  0.0000000  0  7G25G10G12G05G29G04G02
 -16451044.32847 -12811233.53145  22304690.0864                   22304689.5594
 -14864849.15248 -11568812.40245  21699696.0704                   21699694.5354
 -20768379.66048 -16174623.81646  20878579.9924                   20878577.0824
 -15248158.25848 -11719142.96947  20647196.2344                   20647193.6954
  -7937017.16846  -6116108.62944  24234866.0554                   24234865.3984
   8236610.57847   6319287.71543  23570632.5864                   23570630.1484
 -18124703.95748 -14106196.62946  20985196.5394                   20985192.1684
 11  7 26  3  3 30.0000000  0  7G25G10G12G05G29G04G02
 -16489703.09848 -12841357.21146  22297333.9454                   22297334.1764
 -14780584.19547 -11503151.38745  21715731.3444                   21715728.6094
 -20740383.62548 -16152808.69946  20883907.9144                   20883904.6564
 -15268236.44548 -11734788.27747  20643375.8914                   20643373.1914
  -8000215.85546  -6165354.26644  24222838.7974                   24222838.8284
   8338664.27046   6398810.09443  23590052.6254                   23590051.0634
 -18079051.96948 -14070623.63746  20993884.1804                   20993879.1484
 11  7 26  3  4  0.0000000  0  7G25G10G12G05G29G04G02
 -16527869.25047 -12871097.03946  22290070.9224                   22290070.9574
 -14695824.27347 -11437104.67245  21731860.4454                   21731858.4344
 -20711798.49648 -16130534.54746  20889346.8594                   20889344.2854
 -15287756.19948 -11749998.43747  20639661.1564                   20639658.4614
  -8063455.08646  -6214631.46144  24210804.6564                   24210805.1644
   8440705.98846   6478323.20343  23609470.6334                   23609468.6254
 -18033226.44148 -14034915.39846  21002604.4064                   21002599.0204
 11  7 26  3  4 30.0000000  0  7G25G10G12G05G29G04G02
 -16565539.97347 -12900450.82046  22282902.6254                   22282902.8914
 -14610571.32447 -11370673.78945  21748083.5554                   21748081.5664
 -20682623.91848 -16107801.08646  20894898.8134                   20894895.7234
 -15306715.59048 -11764771.94547  20636053.1024                   20636050.2304
  -8126733.22746  -6263938.96144  24198763.5704                   24198763.3404
   8542735.69946   6557826.91043  23628885.4534                   23628884.1954
 -17987227.56248 -13999072.09446  21011357.4064                   21011353.0354
 11  7 26  3  5  0.0000000  0  7G25G10G12G05G29G04G02
 -16602716.75447 -12929419.71146  22275827.8914                   22275827.9144
 -14524831.28548 -11303863.35545  21764399.9224                   21764397.3554
 -20652863.97348 -16084611.50046  20900561.9844                   20900559.0514
 -15325116.89848 -11779110.59047  20632551.7424                   20632548.8524
  -8190053.03546  -6313278.91444  24186714.5474                   24186714.0594
   8644749.21146   6637318.01643  23648298.4774                   23648296.7704
 -17941059.40648 -13963096.88746  21020142.8134                   21020138.8284
 11  7 26  3  5 30.0000000  0  7G25G10G12G05G29G04G02
 -16639397.11748 -12958001.79346  22268848.1174                   22268847.9694
 -14438605.88748 -11236674.71945  21780807.8914                   21780805.2194
 -20622518.24248 -16060965.44946  20906336.7114                   20906333.8484
 -15342958.71548 -11793013.27047  20629156.4454                   20629153.8014
  -8253413.17246  -6362650.25044  24174657.3054                   24174656.5204
   8746746.28546   6716796.33643  23667707.5234                   23667704.9654
 -17894722.58648 -13926990.25446  21028960.7424                   21028955.6334
 11  7 26  3  6  0.0000000  0  7G25G10G12G05G29G04G02
 -16675581.11747 -12986197.07046  22261961.7114                   22261962.2154
 -14351899.61747 -11169111.36745  21797307.2424                   21797305.1604
 -20591588.83648 -16036864.56646  20912222.1094                   20912219.5314
 -15360242.24248 -11806480.91047  20625867.2274                   20625864.9414
  -8316814.48846  -6412053.66844  24162592.0634                   24162590.9734
   8848724.06646   6796259.60243  23687113.1884                   23687109.6914
 -17848219.95748 -13890754.41846  21037809.7664                   21037805.2114
 11  7 26  3  6 30.0000000  0  7G25G10G12G05G29G04G02
 -16711264.80948 -13014002.50846  22255172.1484                   22255171.3674
 -14264712.89147 -11101173.65245  21813898.5394                   21813895.7584
 -20560074.19148 -16012307.68046  20918219.1414                   20918216.1684
 -15376964.21148 -11819510.97747  20622685.2274                   20622682.7034
  -8380254.43746  -6461487.10944  24150519.9304                   24150518.9734
   8950683.80547   6875708.78143  23706516.6254                   23706513.1214
 -17801550.34848 -13854388.46146  21046690.9924                   21046686.0514
 11  7 26  3  7  0.0000000  0  7G25G10G12G05G29G04G02
 -16746455.02348 -13041423.40246  22248475.3834                   22248475.7584
 -14177057.17247 -11032870.46545  21830578.9694                   21830576.4384
 -20527983.63348 -15987302.02346  20924325.8914                   20924323.1254
 -15393132.62148 -11832109.70347  20619608.2344                   20619606.0784
  -8443740.73847  -6510956.71944  24138439.0474                   24138437.5434
   9052615.77347   6955136.34043  23725912.3364                   23725910.3874
 -17754723.57848 -13817900.03546  21055601.6094                   21055596.6054
 11  7 26  3  7 30.0000000  0  7G25G10G12G05G29G04G02
 -16781146.54748 -13068455.70746  22241873.7734                   22241873.1334
 -14088931.66047 -10964201.21945  21847348.1484                   21847346.2854
 -20495314.39148 -15961845.45346  20930542.5234                   20930539.6484
 -15408743.24248 -11844273.77747  20616637.6644                   20616635.2154
  -8507269.11347  -6560459.15244  24126349.4304                   24126348.4614
   9154522.75847   7034544.40243  23745304.3834                   23745303.2384
 -17707737.07448 -13781287.17246  21064542.6094                   21064538.0824
 11  7 26  3  8  0.0000000  0  7G25G10G12G05G29G04G02
 -16815333.44548 -13095094.80946  22235368.0784                   22235368.3484
 -14000334.74647 -10895164.62945  21864207.6094                   21864205.0944
 -20462062.45348 -15935934.83246  20936870.0234                   20936867.0044
 -15423791.03548 -11855999.29747  20613774.2734                   20613771.1454
  -8570834.77347  -6609990.64544  24114253.5704                   24114251.3134
   9256407.88747   7113935.48844  23764692.9694                   23764691.1174
 -17660587.61748 -13744547.31646  21073514.8754                   21073510.1804
 11  7 26  3  8 30.0000000  0  7G25G10G12G05G29G04G02
 -18424432.87948 -14348938.46546  21929166.5554                   21929166.6684
 -15486684.05548 -12053358.87145  21581364.5944                   21581362.5514
 -22003645.10248 -17137168.05546  20643516.8204                   20643513.5394
 -17013693.34048 -13094884.18047  20311225.7424                   20311222.8054
 -10209857.01247  -7887150.62544  23802357.4924                   23802355.9384
   7782855.98847   5965713.27744  23484286.0234                   23484284.1604
 -19188692.74248 -14935278.55946  20782726.5314                   20782721.4534
 11  7 26  3  9  0.0000000  0  7G25G10G12G05G29G04G02
 -18457604.26648 -14374786.25846  21922854.1024                   21922854.1374
 -15397151.50048 -11983593.25045  21598402.1954                   21598400.1094
 -21969229.19148 -17110350.46146  20650065.5474                   20650062.6804
 -17027612.00048 -13105729.85247  20308577.1484                   20308574.6454
 -10273494.37946  -7936738.06244  23790246.8594                   23790245.8014
   7884695.78147   6045069.00044  23503665.2814                   23503662.8204
 -19141219.54748 -14898286.44546  20791760.0084                   20791755.1524
 11  7 26  3  9 30.0000000  0  7G25G10G12G05G29G04G02
 -18490274.61748 -14400243.62946  21916636.8914                   21916637.0554
 -15307164.75048 -11913473.66045  21615525.9064                   21615522.8014
 -21934241.42248 -17083087.25046  20656723.3754                   20656720.7464
 -17040974.27348 -13116141.98047  20306034.2974                   20306031.8484
 -10337175.20346  -7986359.32044  23778129.5164                   23778128.1024
   7986502.49247   6124398.92644  23523038.0084                   23523035.9304
 -19093595.46148 -14861176.75046  20800822.7034                   20800818.2384
 11  7 26  3 10  0.0000000  0  7G25G10G12G05G29G04G02
 -18522436.22348 -14425304.56646  21910517.0314                   21910516.4614
 -15216720.12948 -11842997.30545  21632737.6174                   21632734.4384
 -21898676.21148 -17055374.10246  20663492.0004                   20663488.8404
 -17053773.71548 -13126115.54347  20303598.6334                   20303596.1954
 -10400892.81647  -8036009.25444  23766004.5084                   23766002.7114
   8088281.24247   6203707.07444  23542405.6804                   23542404.4224
 -19045815.43048 -14823945.54346  20809914.7034                   20809910.4104
 11  7 26  3 10 30.0000000  0  7G25G10G12G05G29G04G02
 -18554084.79748 -14449965.75446  21904494.6884                   21904494.4924
 -15125817.91047 -11772164.38345  21650035.3054                   21650033.2704
 -21862532.08648 -17027209.84846  20670369.4224                   20670366.3794
 -17066006.71948 -13135647.73047  20301270.9384                   20301268.3914
 -10464643.89547  -8085685.28544  23753872.0554                   23753870.5594
   8190033.83647   6282994.79744  23561768.3524                   23561767.4884
 -18997877.58248 -14786591.36746  20819037.0554                   20819032.8014
 11  7 26  3 11  0.0000000  0  7G25G10G12G05G29G04G02
 -18585217.71548 -14474225.12146  21898569.7974                   21898569.3794
 -15034459.92647 -11700976.32445  21667419.8754                   21667418.2274
 -21825808.69148 -16998594.21546  20677357.9144                   20677354.8284
 -17077671.69948 -13144737.29747  20299051.3834                   20299048.5124
 -10528426.43447  -8135385.80544  23741734.6564                   23741733.4224
   8291760.44147   6362262.30544  23581125.5634                   23581125.4414
 -18949782.01248 -14749114.30946  20828189.6954                   20828184.5164
 11  7 26  3 11 30.0000000  0  7G25G10G12G05G29G04G02
 -18615832.96148 -14498081.11746  21892743.9614                   21892743.5124
 -14942648.59048 -11629435.00045  21684891.5474                   21684889.0944
 -21788506.07048 -16969527.24246  20684456.0234                   20684453.2544
 -17088767.88348 -13153383.64147  20296939.3524                   20296937.0474
 -10592239.31247  -8185110.00444  23729591.8444                   23729589.8364
   8393460.50847   6441509.11744  23600480.6484                   23600477.4064
 -18901529.40248 -14711514.86746  20837371.4924                   20837366.8164
 11  7 26  3 12  0.0000000  0  7G25G10G12G05G29G04G02
 -18645929.33648 -14521532.78946  21887016.7974                   21887016.8524
 -14850386.81248 -11557542.69545  21702447.6644                   21702445.9384
 -21750625.58648 -16940009.99246  20691664.7814                   20691661.6644
 -17099294.74248 -13161586.36747  20294936.4774                   20294933.5744
 -10656081.80147  -8234857.28944  23717442.6724                   23717441.4494
   8495132.86746   6520734.33244  23619826.8054                   23619825.9654
 -18853120.87148 -14673793.93446  20846583.2114                   20846578.6844
 11  7 26  3 12 30.0000000  0  7G25G10G12G05G29G04G02
 -18675498.49248 -14544573.65246  21881389.7194                   21881389.8284
 -14757670.84848 -11485296.47745  21720090.7894                   21720088.3094
 -21712161.48848 -16910037.97746  20698984.0314                   20698981.0824
 -17109245.20748 -13169339.94547  20293042.8444                   20293039.9224
 -10719946.84046  -8284622.13344  23705289.0084                   23705288.1054
   8596783.50847   6599942.60943  23639171.2344                   23639169.2774
 -18804551.14148 -14635947.39546  20855825.7584                   20855821.2504
 11  7 26  3 13  0.0000000  0  7G25G10G12G05G29G04G02
 -18704547.71148 -14567209.36746  21875862.4224                   21875861.8914
 -14664512.11348 -11412705.26245  21737818.6484                   21737816.5784
 -21673123.33248 -16879618.64546  20706412.7814                   20706409.2814
 -17118627.82848 -13176651.04747  20291257.2734                   20291254.0234
 -10783842.23446  -8334410.60544  23693129.7814                   23693129.3714
   8698402.57847   6679126.33643  23658507.9534                   23658506.6374
 -18755829.53548 -14597982.50046  20865097.1724                   20865091.9574
 11  7 26  3 13 30.0000000  0  7G25G10G12G05G29G04G02
 -18733071.75848 -14589435.85946  21870434.1414                   21870433.7344
 -14570909.97747 -11339768.50045  21755630.8524                   21755627.5124
 -21633508.31248 -16848749.79346  20713951.4224                   20713948.5864
 -17127437.92648 -13183516.03547  20289580.8834                   20289577.6724
 -10847763.11746  -8384218.94544  23680966.3674                   23680965.1094
   8799993.30546   6758287.98043  23677839.9064                   23677838.1254
 -18706953.46148 -14559897.23846  20874397.9304                   20874393.4844
 11  7 26  3 14  0.0000000  0  7G25G10G12G05G29G04G02
 -18761075.61748 -14611257.00046  21865105.1564                   21865104.4454
 -14476873.57047 -11266493.37545  21773525.0864                   21773522.4884
 -21593323.49248 -16817436.94146  20721598.3984                   20721595.7544
 -17135681.83648 -13189939.83247  20288012.2584                   20288008.7974
 -10911715.33246  -8434051.75844  23668796.9614                   23668795.9144
   8901548.32846   6837421.75843  23697165.6334                   23697162.6954
 -18657930.46548 -14521697.48046  20883726.7274                   20883722.1844
 11  7 26  3 14 30.0000000  0  7G25G10G12G05G29G04G02
 -18788553.64148 -14632668.40646  21859876.2034                   21859875.9024
 -14382401.44947 -11192878.73045  21791503.0394                   21791501.2234
 -21552566.22748 -16785678.03146  20729354.1414                   20729351.3634
 -17143354.89148 -13195918.80547  20286552.1254                   20286549.1454
 -10975693.83646  -8483905.10944  23656622.5784                   23656620.7704
   9003070.70746   6916530.14843  23716485.1644                   23716480.7234
 -18608757.39148 -14483380.77746  20893084.2814                   20893079.3954
 11  7 26  3 15  0.0000000  0  7G25G10G12G05G29G04G02
 -18815507.58248 -14653671.43446  21854747.0394                   21854746.6524
 -14287499.98847 -11118929.52345  21809562.0314                   21809559.0704
 -21511240.72348 -16753476.32846  20737217.9614                   20737214.8404
 -17150459.90648 -13201455.14547  20285199.5474                   20285197.0664
 -11039701.02746  -8533780.75444  23644442.3754                   23644440.6134
   9104556.59046   6995610.08243  23735795.7034                   23735793.2304
 -18559438.50048 -14444950.45346  20902469.2504                   20902464.3524
 11  7 26  3 15 30.0000000  0  7G25G10G12G05G29G04G02
 -18841936.24648 -14674265.18746  21849717.8914                   21849717.7464
 -14192172.03147 -11044647.99245  21827702.0314                   21827699.1844
 -21469347.94548 -16720832.59446  20745189.8594                   20745187.1454
 -17156996.72347 -13206548.74247  20283956.0084                   20283952.9384
 -11103736.39546  -8583678.37944  23632255.8834                   23632255.2974
   9206005.08646   7074660.83243  23755101.2274                   23755098.3554
 -18509974.80948 -14406407.28546  20911881.3834                   20911876.3714
 11  7 26  3 16  0.0000000  0  7G25G10G12G05G29G04G02
 -18867830.84048 -14694442.76246  21844790.1564                   21844790.0554
 -14096413.35947 -10970030.85245  21845924.5234                   21845921.8444
 -21426881.54348 -16687741.88746  20753271.1954                   20753268.5984
 -17162957.59448 -13211193.55547  20282821.1334                   20282818.4144
 -11167791.45746  -8633591.32844  23620066.9454                   23620065.3634
   9307422.57046   7153687.49643  23774399.9844                   23774398.3794
 -18460359.96148 -14367746.32046  20921322.6414                   20921317.6524
 11  7 26  3 16 30.0000000  0  7G25G10G12G05G29G04G02
 -18893194.00048 -14714206.23846  21839963.8984                   21839963.1454
 -14000230.65247 -10895083.29745  21864226.7504                   21864224.4264
 -21383846.56248 -16654208.12546  20761460.4534                   20761457.3794
 -17168346.55148 -13215392.71147  20281795.8594                   20281793.3404
 -11231869.31647  -8683522.04344  23607873.5394                   23607872.0204
   9408804.14547   7232686.16043  23793692.6804                   23793690.4844
 -18410599.04348 -14328971.54346  20930792.4614                   20930787.8834
 11  7 26  3 17  0.0000000  0  7G25G10G12G05G29G04G02
 -18918017.37148 -14733549.09846  21835240.0474                   21835239.9304
 -13903620.09447 -10819802.32045  21882611.8134                   21882608.2624
 -21340237.20348 -16620226.79746  20769759.1024                   20769756.4264
 -17173155.65648 -13219140.02747  20280880.5394                   20280877.6884
 -11295962.18747  -8733464.48444  23595676.8524                   23595675.2854
   9510156.41047   7311661.96143  23812979.9614                   23812977.3484
 -18360686.05148 -14290078.27346  20940290.6484                   20940286.0744
 11  7 26  3 17 30.0000000  0  7G25G10G12G05G29G04G02
 -18942310.26648 -14752478.60246  21830617.3284                   21830617.0664
 -13806595.04347 -10744198.35545  21901074.7814                   21901072.6994
 -21296065.42248 -16585807.21146  20778164.6174                   20778161.4964
 -17177395.69548 -13222443.92247  20280073.6644                   20280070.9454
 -11360079.84046  -8783426.21944  23583475.2974                   23583474.2504
   9611467.69147   7390605.83643  23832259.8054                   23832256.3914
 -18310632.41848 -14251075.40246  20949815.5554                   20949810.2584
 11  7 26  3 18  0.0000000  0  7G25G10G12G05G29G04G02
 -18966067.33248 -14770990.56646  21826096.4614                   21826096.3834
 -13709154.18047 -10668270.37545  21919617.3134                   21919615.6994
 -21251328.12948 -16550946.97346  20786677.8364                   20786675.0904
 -17181062.46948 -13225301.11347  20279376.2344                   20279373.5634
 -11424217.13747  -8833403.28144  23571270.5314                   23571268.7154
   9712741.32846   7469520.32843  23851530.1414                   23851528.0664
 -18260435.23848 -14211960.67646  20959367.1564                   20959361.9414
 11  7 26  3 18 30.0000000  0  7G25G10G12G05G29G04G02
 -18989285.04348 -14789082.26246  21821678.4534                   21821678.1844
 -13611298.37947 -10592019.09045  21938238.5554                   21938236.0474
 -21206024.10548 -16515645.12146  20795298.7894                   20795296.0904
 -17184153.59447 -13227709.75447  20278787.8284                   20278785.2704
 -11488371.23846  -8883393.41844  23559061.9304                   23559061.2464
   9813978.82847   7548406.67244  23870795.5474                   23870793.1094
 -18210093.06248 -14172732.97346  20968946.9844                   20968942.7704
 11  7 26  3 19  0.0000000  0  7G25G10G12G05G29G04G02
 -19011959.19548 -14806750.40646  21817363.7114                   21817362.8874
 -13513027.66447 -10515444.50045  21956938.2664                   21956937.1994
 -21160151.73048 -16479900.40646  20804028.2664                   20804025.2424
 -17186665.85248 -13229667.33647  20278309.6644                   20278306.9184
 -11552537.93746  -8933393.41444  23546851.6954                   23546850.4064
   9915182.31647   7627266.53143  23890053.1954                   23890051.2814
 -18159604.16848 -14133390.93746  20978555.2424                   20978549.9494
 11  7 26  3 19 30.0000000  0  7G25G10G12G05G29G04G02
 -19034091.79748 -14823996.57846  21813151.7504                   21813151.1024
 -13414348.16047 -10438551.36745  21975717.4224                   21975715.2894
 -21113715.89848 -16443716.62946  20812864.5784                   20812861.4844
 -17188602.30948 -13231176.22747  20277941.4064                   20277938.4304
 -11616719.77346  -8983405.14844  23534638.2734                   23534636.2624
  10016347.71146   7706096.74643  23909303.2894                   23909303.1954
 -18108972.61348 -14093937.75446  20988189.4454                   20988184.6294
 11  7 26  3 20  0.0000000  0  7G25G10G12G05G29G04G02
 -19055679.14848 -14840817.87546  21809043.8674                   21809043.5514
 -13315260.37947 -10361340.10245  21994573.5004                   21994569.7424
 -21066714.96548 -16407092.52046  20821808.7344                   20821806.0744
 -17189960.44148 -13232234.48047  20277683.1564                   20277680.0944
 -11680913.27746  -9033425.96144  23522422.7504                   23522420.3134
  10117476.90647   7784898.75844  23928549.6254                   23928547.4024
 -18058196.91848 -14054372.25446  20997851.3134                   20997847.6174
 11  7 26  3 20 30.0000000  0  7G25G10G12G05G29G04G02
 -19076724.31648 -14857216.69946  21805039.0164                   21805038.7544
 -13215771.95747 -10283816.64145  22013505.0944                   22013502.3554
 -21019154.53548 -16370032.43446  20830859.1804                   20830855.8914
 -17190744.56648 -13232845.47747  20277533.7114                   20277530.8484
 -11745121.76246  -9083458.46144  23510204.5474                   23510201.9964
  10218564.81346   7863668.55143  23947784.5704                   23947783.2934
 -18007282.21548 -14014698.43046  21007540.6804                   21007535.6914
 11  7 26  3 21  0.0000000  0  7G25G10G12G05G29G04G02
 -19097219.97748 -14873187.33246  21801138.7974                   21801138.5164
 -13115879.54747 -10205978.37545  22032513.6094                   22032511.3714
 -20971029.78948 -16332532.62146  20840016.9384                   20840013.8054
 -17190947.94548 -13233003.92247  20277495.1884                   20277492.1174
 -11809338.15646  -9133497.14544  23497984.4454                   23497982.6804
  10319616.92646   7942410.43443  23967014.8364                   23967013.3484
 -17956223.48848 -13974912.39546  21017257.2974                   21017251.5554
 11  7 26  3 21 30.0000000  0  7G25G10G12G05G29G04G02
 -19117171.07848 -14888733.62546  21797342.5084                   21797342.1134
 -13015592.36747 -10127832.50445  22051597.4384                   22051594.6604
 -20922347.85548 -16294598.62946  20849280.5864                   20849277.3404
 -17190576.88748 -13232714.75847  20277565.3674                   20277562.7344
 -11873567.41846  -9183545.82044  23485761.2194                   23485759.8984
  10420626.32846   8021119.07443  23986235.9454                   23986234.8834
 -17905027.70748 -13935019.55546  21026999.2034                   21026994.0204
 11  7 26  3 22  0.0000000  0  7G25G10G12G05G29G04G02
 -19136567.50048 -14903847.72346  21793651.3984                   21793651.2154
 -12914904.08247 -10049374.11345  22070757.6644                   22070755.9344
 -20873101.53148 -16256224.87146  20858651.7114                   20858648.9264
 -17189622.69548 -13231971.21547  20277747.2974                   20277744.3554
 -11937799.89147  -9233597.00444  23473538.2034                   23473536.5904
  10521601.40246   8099800.94143  24005449.9144                   24005448.9804
 -17853686.62948 -13895013.49646  21036768.8524                   21036764.0164
 11  7 26  3 22 30.0000000  0  7G25G10G12G05G29G04G02
 -19155417.30148 -14918535.87546  21790064.2734                   21790064.0944
 -12813827.07047  -9970612.78545  22089992.5864                   22089989.4384
 -20823301.37148 -16217419.54346  20868128.6884                   20868125.5354
 -17188094.41048 -13230780.30947  20278037.8284                   20278035.2424
 -12002043.77346  -9283657.08244  23461312.9064                   23461311.2154
  10622532.14546   8178448.25043  24024657.3674                   24024654.9224
 -17802210.50847 -13854902.21946  21046564.3674                   21046559.5944
 11  7 26  3 23  0.0000000  0  7G25G10G12G05G29G04G02
 -19173720.11748 -14932797.80146  21786580.8984                   21786580.6684
 -12712365.03947  -9891551.46144  22109299.9304                   22109297.4384
 -20772949.50447 -16178184.30946  20877710.2274                   20877707.4494
 -17185992.77748 -13229142.66047  20278437.4534                   20278434.4454
 -12066298.55946  -9333725.63744  23449085.5234                   23449084.5124
  10723417.10946   8257059.91843  24043855.4144                   24043853.6484
 -17750600.76248 -13814686.81246  21056385.6334                   21056380.6214
 11  7 26  3 23 30.0000000  0  7G25G10G12G05G29G04G02
 -19191472.03548 -14946630.45346  21783202.8444                   21783202.7424
 -12610518.15247  -9812190.19945  22128680.3054                   22128678.6054
 -20722044.18747 -16138517.82446  20887397.2194                   20887394.7464
 -17183315.13348 -13227056.15647  20278947.3204                   20278944.1484
 -12130560.75046  -9383799.95344  23436856.8204                   23436856.2774
  10824258.55146   8335637.63343  24063044.1174                   24063042.8014
 -17698855.80147 -13774366.06246  21066232.0314                   21066227.4774
 11  7 26  3 24  0.0000000  0  7G25G10G12G05G29G04G02
 -19208671.55948 -14960032.64146  21779930.2194                   21779929.2114
 -12508288.83247  -9732530.95344  22148134.1724                   22148131.5004
 -20670586.94548 -16098421.25446  20897189.3364                   20897186.2034
 -17180060.85948 -13224520.32047  20279566.6414                   20279563.6914
 -12194828.32046  -9433878.48444  23424626.5084                   23424625.8794
  10925056.19946   8414181.25443  24082226.7974                   24082224.3094
 -17646976.00048 -13733940.23046  21076104.6174                   21076099.7974
 11  7 26  3 24 30.0000000  0  7G25G10G12G05G29G04G02
 -19225316.39148 -14973002.60946  21776762.7194                   21776762.6524
 -12405678.79747  -9652575.10245  22167659.9304                   22167656.9654
 -20618577.61748 -16057894.50046  20907086.4454                   20907083.4884
 -17176228.98448 -13221534.43047  20280296.0164                   20280293.1134
 -12259099.08647  -9483959.50044  23412396.5004                   23412395.2664
  11025810.72346   8492691.26643  24101397.8364                   24101396.8244
 -17594960.79348 -13693408.87546  21086002.8054                   21085997.6334
 11  7 26  3 25  0.0000000  0  7G25G10G12G05G29G04G02
 -19241407.32848 -14985540.94546  21773700.5554                   21773700.9104
 -12302693.26247  -9572326.61345  22187258.2034                   22187254.6954
 -20566019.61748 -16016940.21946  20917087.6804                   20917084.7814
 -17171820.99648 -13218099.60947  20281134.3444                   20281131.8984
 -12323374.17247  -9534043.89544  23400165.6564                   23400163.9884
  11126519.59046   8571165.72343  24120563.5944                   24120561.3014
 -17542813.18747 -13652774.36346  21095926.2584                   21095921.2974
 11  7 26  3 25 30.0000000  0  7G25G10G12G05G29G04G02
 -19256941.64548 -14997645.53946  21770744.4064                   21770744.4414
 -12199333.12947  -9491786.23845  22206926.2504                   22206923.7704
 -20512912.68747 -15975558.18446  20927193.7894                   20927190.7424
 -17166835.96948 -13214215.14847  20282083.0394                   20282080.4964
 -12387650.56647  -9584129.31244  23387934.3284                   23387932.7974
  11227184.04346   8649605.58643  24139719.2814                   24139717.2344
 -17490532.03148 -13612035.78946  21105875.1254                   21105870.2934
 11  7 26  3 26  0.0000000  0  7G25G10G12G05G29G04G02
 -19271913.35948 -15009311.75846  21767895.2424                   21767894.9574
 -12095596.61747  -9410952.60245  22226666.4774                   22226665.0784
 -20459253.35948 -15933745.71946  20937404.7584                   20937401.8524
 -17161268.84848 -13209877.09447  20283142.1254                   20283139.5864
 -12451922.27347  -9634211.07445  23375703.9694                   23375702.2074
  11327808.34046   8728014.13743  24158865.6174                   24158865.8794
 -17438113.16447 -13571189.90646  21115849.9384                   21115845.1054
 11  7 26  3 26 30.0000000  0  7G25G10G12G05G29G04G02
 -19286324.13348 -15020540.87546  21765153.0164                   21765152.6484
 -11991489.27047  -9329829.95345  22246478.0474                   22246474.6764
 -20405045.85948 -15891506.10946  20947719.7734                   20947716.8954
 -17155122.20348 -13205087.47747  20284312.1024                   20284308.7154
 -12516190.60947  -9684290.19145  23363474.1174                   23363471.8984
  11428389.14146   8806388.75443  24178007.2424                   24178005.3284
 -17385560.31648 -13530239.62146  21125850.2974                   21125845.4454
 11  7 26  3 27  0.0000000  0  7G25G10G12G05G29G04G02
 -19300168.14848 -15031328.36346  21762518.7194                   21762517.7234
 -11887009.26647  -9248416.97345  22266359.7974                   22266358.0314
 -20350286.82848 -15848836.73446  20958140.6804                   20958137.2234
 -17148391.47348 -13199842.72347  20285592.8284                   20285589.1764
 -12580449.85947  -9734362.24244  23351245.5554                   23351243.9924
  11528930.98446   8884733.11343  24197141.2584                   24197138.1094
 -17332869.09048 -13489181.50446  21135876.6174                   21135871.9494
 11  7 26  3 27 30.0000000  0  7G25G10G12G05G29G04G02
 -19313458.22748 -15041684.22746  21759989.7274                   21759988.9384
 -11782173.32047  -9166726.58645  22286309.4694                   22286307.0004
 -20294991.50048 -15805749.46946  20968662.6254                   20968659.2584
 -17141090.47748 -13194153.60947  20286982.0164                   20286979.2734
 -12644712.45747  -9784436.89844  23339016.8754                   23339014.9184
  11629419.32447   8963035.66443  24216261.0234                   24216260.5664
 -17280054.09848 -13448026.94546  21145927.3364                   21145922.7624
 11  7 26  3 28  0.0000000  0  7G25G10G12G05G29G04G02
 -19326187.47748 -15051603.07046  21757567.6174                   21757566.6644
 -11676978.46947  -9084756.55945  22306327.5554                   22306324.3284
 -20239155.25048 -15762240.69946  20979287.5784                   20979284.3954
 -17133213.87148 -13188015.96947  20288481.2034                   20288478.7344
 -12708971.34447  -9834508.67644  23326788.5554                   23326786.5784
  11729860.04346   9041301.19143  24235375.1414                   24235373.0164
 -17227110.29748 -13406772.01246  21156002.4454                   21155996.9574
 11  7 26  3 28 30.0000000  0  7G25G10G12G05G29G04G02
 -19338352.63348 -15061082.36346  21755252.2034                   21755252.6724
 -11571425.17647  -9002507.25445  22326413.4534                   22326411.4654
 -20182777.77748 -15718310.18746  20990016.1884                   20990013.4574
 -17124759.25848 -13181427.93047  20290089.9224                   20290086.9184
 -12773222.93446  -9884574.77744  23314562.0554                   23314559.8364
  11830254.46146   9119530.64143  24254478.0784                   24254476.8754
 -17174036.05148 -13365415.44546  21166101.8754                   21166096.9064
 11  7 26  3 29  0.0000000  0  7G25G10G12G05G29G04G02
 -19349950.68748 -15070119.77346  21753045.2504                   21753045.0984
 -11465514.25047  -8919979.25445  22346567.7894                   22346565.2774
 -20125858.62948 -15673957.61346  21000847.3914                   21000844.7384
 -17115724.82448 -13174388.08647  20291808.9534                   20291806.6764
 -12837464.03946  -9934632.68744  23302336.8674                   23302335.1454
  11930604.14146   9197725.19543  24273575.3984                   24273572.7464
 -17120829.77048 -13323955.98846  21176226.8914                   21176221.6414
 11  7 26  3 29 30.0000000  0  7G25G10G12G05G29G04G02
 -19360981.48448 -15078715.17646  21750946.4454                   21750945.8404
 -11359249.60247  -8837175.61744  22366789.7424                   22366786.9924
 -20068399.53548 -15629184.28146  21011781.7814                   21011778.8324
 -17106111.67248 -13166897.28947  20293638.1804                   20293635.4224
 -12901694.11346  -9984682.01644  23290113.7974                   23290111.7034
  12030908.10946   9275884.12543  24292662.1884                   24292660.1724
 -17067493.43448 -13282395.19546  21186376.4694                   21186371.8054
 11  7 26  3 30  0.0000000  0  7G25G10G12G05G29G04G02
 -19371444.41048 -15086868.08246  21748955.0004                   21748954.4304
 -11252634.51647  -8754098.92244  22387077.3834                   22387074.6724
 -20010403.17248 -15583992.31246  21022818.1024                   21022815.0944
 -17095920.28948 -13158955.92647  20295577.5864                   20295574.0944
 -12965912.02347 -10034721.89144  23277894.0314                   23277891.0124
  12131165.77746   9354006.93443  24311740.2504                   24311737.8324
 -17014027.67248 -13240733.55146  21196550.2424                   21196545.5434
 11  7 26  3 30 30.0000000  0  7G25G10G12G05G29G04G02
 -19381343.58648 -15094581.72346  21747071.0944                   21747070.9024
 -11145676.71547  -8670755.16844  22407430.4534                   22407428.5944
 -19951875.88348 -15538386.61746  21033955.5704                   21033952.3554
 -17085156.16048 -13150568.26247  20297625.9384                   20297622.9924
 -13030121.67647 -10084755.30544  23265675.3834                   23265673.2384
  12231371.36346   9432089.25043  24330809.0554                   24330807.2584
 -16960438.28148 -13198975.57046  21206748.1174                   21206743.3484
 11  7 26  3 31  0.0000000  0  7G25G10G12G05G29G04G02
 -19390678.69948 -15101855.82846  21745294.8204                   21745294.9454
 -11038379.83647  -8587147.18445  22427849.5944                   22427846.5904
 -19892819.37548 -15492368.55546  21045193.1884                   21045190.7074
 -17073819.80148 -13141734.70747  20299783.2034                   20299780.2774
 -13094322.13347 -10134781.54344  23253457.5944                   23253456.3634
  12331524.21146   9510130.44943  24349867.3284                   24349866.4494
 -16906726.38348 -13157122.12546  21216969.2424                   21216964.0004
 11  7 26  3 31 30.0000000  0  7G25G10G12G05G29G04G02
 -19399444.43448 -15108686.28146  21743626.8914                   21743626.7194
 -10930742.19547  -8503273.71545  22448330.0944                   22448328.9574
 -19833231.23448 -15445936.22746  21056532.7034                   21056530.4144
 -17061907.00048 -13132451.98447  20302049.9534                   20302047.2274
 -13158507.71547 -10184796.20744  23241243.7664                   23241241.8754
  12431628.07446   9588133.39843  24368917.4844                   24368915.4534
 -16852888.11748 -13115170.21546  21227214.2504                   21227209.7584
 11  7 26  3 32  0.0000000  0  8G25G10G26G12G05G29G04G02
 -19407636.00848 -15115069.32446  21742068.0164                   21742067.0394
 -10822763.07447  -8419134.12944  22468879.4774                   22468876.6764
  -7998501.87556  -6216283.92253  24811431.3364                   24811430.3134
 -19773109.26648 -15399087.93746  21067973.5314                   21067970.3204
 -17049414.21148 -13122717.32047  20304426.9454                   20304424.7074
 -13222673.37547 -10234795.36745  23229034.3914                   23229032.0164
  12531686.86346   9666101.27343  24387957.3594                   24387955.1954
 -16798920.37548 -13073117.40246  21237484.1174                   21237479.1604
 11  7 26  3 32 30.0000000  0  8G25G10G26G12G05G29G04G02
 -19415260.96948 -15121010.84846  21740617.1724                   21740617.3914
 -10714453.43047  -8334737.00444  22489488.9224                   22489486.1954
  -8074923.82847  -6275833.37543  24796889.3524                   24796887.6884
 -19712463.28548 -15351831.33246  21079513.8914                   21079510.6844
 -17036350.55548 -13112537.82847  20306913.2344                   20306910.5164
 -13286825.64147 -10284784.07845  23216826.1564                   23216823.8754
  12631691.48846   9744026.98043  24406986.5864                   24406985.1024
 -16744831.96147 -13030970.56646  21247776.6334                   21247771.5164
 11  7 26  3 33  0.0000000  0  8G25G10G26G12G05G29G04G02
 -19422316.88348 -15126508.95746  21739274.1954                   21739274.1804
 -10605814.63747  -8250083.41044  22510162.7974                   22510160.4144
  -8151463.53146  -6335474.56643  24782323.7274                   24782322.8874
 -19651293.54348 -15304166.59446  21091154.1884                   21091150.6804
 -17022714.39848 -13101912.23847  20309508.2974                   20309505.4144
 -13350961.73447 -10334760.14845  23204621.0864                   23204619.3054
  12731643.47346   9821911.58643  24426008.1254                   24426006.5634
 -16690621.94147 -12988728.98446  21258092.2734                   21258087.3524
 11  7 26  3 33 30.0000000  0  8G25G10G26G12G05G29G04G02
 -19428810.79748 -15131569.13346  21738038.9064                   21738038.5704
 -10496857.32447  -8165181.55544  22530896.9304                   22530892.8754
  -8228125.98046  -6395211.38343  24767734.2974                   24767734.3874
 -19589609.58648 -15256101.16846  21102892.0474                   21102888.8134
 -17008514.06248 -13090847.02047  20312210.4924                   20312207.5204
 -13415088.19946 -10384728.72745  23192417.7894                   23192416.2424
  12831534.53846   9899748.76343  24445016.4064                   24445014.1724
 -16636298.77048 -12946399.22346  21268429.6254                   21268424.3324
 11  7 26  3 34  0.0000000  0  8G25G10G26G12G05G29G04G02
 -19434731.68748 -15136182.81646  21736911.9224                   21736911.6294
 -10387574.06647  -8080025.77344  22551692.4454                   22551689.8634
  -8304898.08246  -6455033.65243  24753125.0164                   24753124.4414
 -19527402.77348 -15207628.31246  21114729.3444                   21114726.7664
 -16993739.78948 -13079334.57847  20315021.9844                   20315018.7544
 -13479193.68047 -10434680.96145  23180219.4144                   23180217.2344
  12931374.35246   9977545.96543  24464014.4614                   24464014.1954
 -16581852.96948 -12903973.90646  21278790.3834                   21278785.8054
 11  7 26  3 34 30.0000000  0  8G25G10G26G12G05G29G04G02
 -19440073.28548 -15140345.07446  21735895.0784                   21735894.9144
 -10277962.39147  -7994614.05145  22572550.9384                   22572549.3524
  -8381771.13746  -6514934.62143  24738496.9384                   24738495.8714
 -19464669.28948 -15158745.07446  21126667.8364                   21126664.4104
 -16978386.05148 -13067370.60547  20317943.3054                   20317941.0204
 -13543270.71146 -10484611.03545  23168025.9304                   23168023.9924
  13031168.55546  10055307.65643  24483004.5314                   24483004.6684
 -16527279.03148 -12861448.73046  21289175.4384                   21289169.9414
 11  7 26  3 35  0.0000000  0  8G25G10G26G12G05G29G04G02
 -19444842.23048 -15144061.12546  21734987.8054                   21734987.2894
 -10168032.37547  -7908954.30545  22593470.3914                   22593467.5274
  -8458749.75046  -6574917.77343  24723847.6564                   24723846.6094
 -19401418.37948 -15109458.66046  21138704.2504                   21138700.9734
 -16962460.94148 -13054961.42247  20320973.9144                   20320971.0904
 -13607325.21947 -10534523.54345  23155836.4694                   23155834.5704
  13130909.33246  10133027.69143  24501986.7424                   24501983.6414
 -16472585.09048 -12818830.06646  21299583.2274                   21299578.6724
 11  7 26  3 35 30.0000000  0  8G25G10G26G12G05G29G04G02
 -19449029.96548 -15147324.26646  21734191.0234                   21734190.8094
 -10057779.02047  -7823042.57044  22614450.4224                   22614447.4844
  -8535822.88746  -6634974.65243  24709181.1884                   24709180.4494
 -19337643.87548 -15059764.23846  21150839.3284                   21150836.8054
 -16945957.03548 -13042101.22347  20324114.8134                   20324112.0984
 -13671348.09847 -10584411.42245  23143653.5394                   23143651.6454
  13230604.32446  10210712.05543  24520957.6804                   24520955.6374
 -16417763.83247 -12776112.18446  21310015.4384                   21310010.3444
 11  7 26  3 36  0.0000000  0  8G25G10G26G12G05G29G04G02
 -19452635.88748 -15150134.04346  21733504.7424                   21733504.5204
  -9947205.38347  -7736881.28144  22635492.1884                   22635489.3914
  -8612987.64845  -6695102.87942  24694496.6884                   24694495.3754
 -19273347.44948 -15009663.12946  21163074.8444                   21163071.8954
 -16928874.94148 -13028790.48447  20327365.1954                   20327362.5944
 -13735337.98847 -10634273.57045  23131476.2734                   23131474.6054
  13330253.07846  10288360.45743  24539919.6954                   24539918.7704
 -16362816.12947 -12733295.79346  21320471.8754                   21320466.2504
 11  7 26  3 36 30.0000000  0  8G25G10G26G12G05G29G04G02
 -19455660.62148 -15152490.96946  21732929.3444                   21732929.2664
  -9836315.91047  -7650473.87945  22656593.9924                   22656591.2274
  -8690242.46146  -6755301.32442  24679795.6334                   24679794.2664
 -19208532.50848 -14959157.96946  21175409.0394                   21175406.1914
 -16911216.37548 -13015030.55547  20330725.8204                   20330722.4064
 -13799294.35247 -10684109.65245  23119305.8834                   23119303.6134
  13429854.03946  10365971.62943  24558873.5004                   24558871.1914
 -16307743.50048 -12690382.05146  21330951.7814                   21330946.7384
 11  7 26  3 37  0.0000000  0  8G25G10G26G12G05G29G04G02
 -19458106.76248 -15154397.03546  21732463.5474                   21732463.5594
  -9725116.46947  -7563824.95344  22677754.4534                   22677751.8554
  -8767587.41446  -6815569.98843  24665078.5394                   24665075.7934
 -19143203.67248 -14908252.38346  21187840.5234                   21187837.7154
 -16892985.13348 -13000824.37547  20334194.8134                   20334191.6294
 -13863219.30947 -10733921.23845  23107141.8524                   23107139.8954
  13529403.70746  10443542.78943  24577816.8674                   24577815.4344
 -16252549.71148 -12647373.89146  21341454.8914                   21341450.2464
 11  7 26  3 37 30.0000000  0  8G25G10G26G12G05G29G04G02
 -19459973.45348 -15155851.58246  21732108.5634                   21732108.3874
  -9613609.68047  -7476936.54344  22698972.8284                   22698970.9494
  -8845019.30146  -6875906.39843  24650342.7814                   24650341.2504
 -19077363.10248 -14856948.03546  21200369.5234                   21200366.6604
 -16874181.37548 -12986172.08247  20337773.0474                   20337770.1564
 -13927110.94547 -10783706.85545  23094982.8364                   23094980.3444
  13628902.11746  10521074.01643  24596750.2814                   24596749.2464
 -16197235.41848 -12604271.83646  21351980.9454                   21351976.1334
 11  7 26  3 38  0.0000000  0  8G25G10G26G12G05G29G04G02
 -19461267.69548 -15156860.06246  21731862.0784                   21731861.5234
  -9501806.14147  -7389816.85944  22720248.7814                   22720246.4144
  -8922542.64846  -6936314.09842  24635592.0474                   24635588.6994
 -19011019.93748 -14805252.06246  21212994.2894                   21212990.7894
 -16854813.27048 -12971080.05147  20341458.7894                   20341455.4694
 -13990975.33647 -10833471.24645  23082829.9844                   23082827.9574
  13728341.65246  10598559.40243  24615673.9064                   24615672.4614
 -16141808.26648 -12561081.85546  21362527.9144                   21362522.9304
 11  7 26  3 38 30.0000000  0  8G25G10G26G12G05G29G04G02
 -19461981.12948 -15157415.95746  21731726.4454                   21731725.3834
  -9389700.73447  -7302462.00844  22741581.0784                   22741579.4304
  -9000146.46946  -6996784.50443  24620823.2504                   24620822.3554
 -18944168.17248 -14753159.78546  21225715.6094                   21225713.0554
 -16834873.66448 -12955542.68047  20345252.8444                   20345250.6564
 -14054803.05547 -10883207.05545  23070683.7274                   23070682.2854
  13827729.60546  10676004.55543  24634586.9774                   24634585.0004
 -16086260.91048 -12517798.19546  21373098.4304                   21373093.7154
 11  7 26  3 39  0.0000000  0  8G25G10G26G12G05G29G04G02
 -19462113.09448 -15157518.77746  21731701.2114                   21731700.3324
  -9277296.32047  -7214874.13744  22762972.1954                   22762968.9534
  -9077827.62946  -7057315.16843  24606041.7894                   24606040.4574
 -18876810.01648 -14700672.89846  21238533.5474                   21238530.6094
 -16814363.05948 -12939560.37147  20349155.9224                   20349153.0354
 -14118592.73047 -10932913.20345  23058545.0864                   23058542.7854
  13927065.86746  10753409.40242  24653488.1334                   24653487.8914
 -16030593.84447 -12474421.25446  21383691.8054                   21383686.8524
 11  7 26  3 39 30.0000000  0  8G25G10G26G12G05G29G04G02
 -19461670.25448 -15157173.68746  21731785.8754                   21731785.7544
  -9164602.81247  -7127061.02344  22784415.7734                   22784413.7234
  -9155590.46546  -7117909.45743  24591243.4924                   24591242.9614
 -18808954.02748 -14647798.09846  21251446.2274                   21251443.0704
 -16793289.31248 -12923139.25447  20353166.0004                   20353163.7154
 -14182349.93047 -10982594.04745  23046412.4924                   23046410.6134
  14026343.14146  10830768.35243  24672381.4844                   24672379.4884
 -15974814.68048 -12430956.96546  21394306.3054                   21394301.7894
 11  7 26  3 40  0.0000000  0  8G25G10G26G12G05G29G04G02
 -19460646.36348 -15156375.82046  21731980.6334                   21731979.8754
  -9051617.28147  -7039020.30544  22805917.7274                   22805914.8754
  -9233425.72346  -7178560.19143  24576431.3594                   24576430.9344
 -18740596.58648 -14594532.56646  21264453.9534                   21264450.9304
 -16771647.28548 -12906275.32447  20357284.7584                   20357281.4884
 -14246067.48447 -11032244.01645  23034287.3364                   23034285.5824
  14125566.88346  10908085.51243  24691264.1644                   24691261.7274
 -15918918.39848 -12387401.42246  21404942.9304                   21404937.7234
 11  7 26  3 40 30.0000000  0  8G25G10G26G12G05G29G04G02
 -19459043.45348 -15155126.80546  21732285.5234                   21732284.4924
  -8938345.38347  -6950756.50844  22827470.6724                   22827469.7814
  -9311333.04347  -7239267.09843  24561606.5554                   24561605.3834
 -18671742.16048 -14540879.78146  21277556.4534                   21277553.4104
 -16749440.14148 -12888971.04747  20361510.2034                   20361507.2774
 -14309745.88747 -11081863.49645  23022169.9304                   23022168.0904
  14224734.58646  10985359.00843  24710133.5944                   24710132.6524
 -15862907.59048 -12343756.62546  21415601.1484                   21415595.5864
 11  7 26  3 41  0.0000000  0  8G25G10G26G12G05G29G04G02
 -19456856.60548 -15153422.75446  21732701.5234                   21732701.3914
  -8824785.19947  -6862268.02044  22849082.0864                   22849078.8554
  -9389304.67647  -7300024.11743  24546768.6954                   24546767.1684
 -18602388.34848 -14486837.84846  21290754.0864                   21290751.8364
 -16726664.32448 -12871223.63347  20365844.5634                   20365841.2034
 -14373379.39847 -11131447.98045  23010060.5234                   23010058.8984
  14323850.37146  11062592.12543  24728996.0634                   24728993.2114
 -15806778.23448 -12300019.44546  21426282.0704                   21426277.0514
 11  7 26  3 41 30.0000000  0  8G25G10G26G12G05G29G04G02
 -19454093.95748 -15151270.03946  21733226.9144                   21733226.7274
  -8710948.07846  -6773563.72744  22870743.1484                   22870741.1094
  -9467346.24246  -7360835.62943  24531917.1334                   24531915.9264
 -18532545.54348 -14432414.89146  21304044.7894                   21304042.3364
 -16703328.72748 -12853040.03147  20370285.1724                   20370281.7774
 -14436975.05147 -11181002.97745  22997958.7194                   22997956.4144
  14422905.57446  11139777.96543  24747844.5944                   24747842.0594
 -15750539.45348 -12256197.00846  21436983.9064                   21436979.6414
 11  7 26  3 42  0.0000000  0  8G25G10G26G12G05G29G04G02
 -19450744.10248 -15148659.75846  21733864.9774                   21733863.9534
  -8596825.90246  -6684637.33244  22892460.4534                   22892457.2274
  -9545443.29346  -7421690.41043  24517055.6254                   24517054.5514
 -18462204.89548 -14377604.00046  21317430.3674                   21317427.6254
 -16679423.05148 -12834412.21547  20374834.2194                   20374831.3164
 -14500519.98847 -11230518.47345  22985866.0164                   22985864.3404
  14521910.85946  11216924.91042  24766684.8204                   24766682.4104
 -15694180.86748 -12212281.22746  21447708.7274                   21447704.3554
 11  7 26  3 42 30.0000000  0  8G25G10G26G12G05G29G04G02
 -19446811.89148 -15145595.70746  21734612.9774                   21734612.3444
  -8482426.96947  -6595495.25844  22914230.7034                   22914226.7384
  -9623598.17646  -7482590.20343  24502182.9384                   24502181.9494
 -18391373.45348 -14322410.68046  21330908.8914                   21330906.1724
 -16654953.70348 -12815345.17247  20379490.5864                   20379487.4694
 -14564017.86347 -11279997.27345  22973783.2034                   22973781.1844
  14620861.02346  11294029.00442  24785513.5394                   24785512.5704
 -15637707.96548 -12168276.34446  21458454.9064                   21458450.7464
 11  7 26  3 43  0.0000000  0  7G25G10G26G12G05G29G02
 -19442295.73048 -15142076.61346  21735471.9614                   21735471.9184
  -8367752.55947  -6506138.56244  22936051.9614                   22936049.3914
  -9701806.40646  -7543531.59043  24487301.3914                   24487299.3524
 -18320051.88348 -14266835.42246  21344481.1094                   21344477.7894
 -16629919.99648 -12795838.36747  20384253.9694                   20384251.3324
 -14627466.13347 -11329437.47745  22961709.3834                   22961708.0744
 -15581119.89547 -12124181.73846  21469223.6724                   21469218.3054
 11  7 26  3 43 30.0000000  0  7G25G10G26G12G05G29G02
 -19437194.82048 -15138101.88746  21736442.8054                   21736442.5594
  -8252805.27747  -6416569.25444  22957924.8914                   22957923.8284
  -9780064.26246  -7604511.63743  24472408.9454                   24472407.6804
 -18248242.14548 -14210879.78146  21358145.8134                   21358142.9224
 -16604322.30948 -12775892.09047  20389125.3984                   20389122.1334
 -14690862.37147 -11378837.09845  22949645.1954                   22949643.3754
 -15524416.44148 -12079997.21546  21480013.9224                   21480008.7074
